<?xml version="1.0" encoding="utf-8"?>
<gpx xmlns:xsi="http://www.w3.org/2001/XMLSchema-instance" xmlns:xsd="http://www.w3.org/2001/XMLSchema" version="1.1" creator="Shapelink.com" xmlns="http://www.topografix.com/GPX/1/1" xmlns:gpxtpx="http://www.garmin.com/xmlschemas/TrackPointExtension/v1">
  <metadata>
    <name>Løping 5.00 km, 2014-06-24</name>
    <desc></desc>
    <author><name>Mikael Blom</name></author> 
    <time>2014-06-24T11:27:07Z</time>
  </metadata>
  <trk>
    <name>Løping 5.00 km, 2014-06-24</name>
    <trkseg>
      <trkpt lat="59.9540098" lon="17.7147315">
        <ele>51.0872</ele>
        <time>2014-06-24T11:27:07Z</time>
      </trkpt>
      <trkpt lat="59.9539956" lon="17.7147193">
        <ele>51.0872</ele>
        <time>2014-06-24T11:27:08Z</time>
      </trkpt>
      <trkpt lat="59.9539794" lon="17.714696">
        <ele>51.0872</ele>
        <time>2014-06-24T11:27:09Z</time>
      </trkpt>
      <trkpt lat="59.9539633" lon="17.714667">
        <ele>51.5679</ele>
        <time>2014-06-24T11:27:10Z</time>
      </trkpt>
      <trkpt lat="59.9539468" lon="17.7146345">
        <ele>52.0486</ele>
        <time>2014-06-24T11:27:11Z</time>
      </trkpt>
      <trkpt lat="59.9539312" lon="17.714595">
        <ele>52.5292</ele>
        <time>2014-06-24T11:27:12Z</time>
      </trkpt>
      <trkpt lat="59.9539139" lon="17.7145511">
        <ele>53.4905</ele>
        <time>2014-06-24T11:27:13Z</time>
      </trkpt>
      <trkpt lat="59.9539005" lon="17.7145064">
        <ele>53.9712</ele>
        <time>2014-06-24T11:27:14Z</time>
      </trkpt>
      <trkpt lat="59.9538873" lon="17.714457">
        <ele>53.9712</ele>
        <time>2014-06-24T11:27:15Z</time>
      </trkpt>
      <trkpt lat="59.9538762" lon="17.714409">
        <ele>54.9324</ele>
        <time>2014-06-24T11:27:16Z</time>
      </trkpt>
      <trkpt lat="59.9538715" lon="17.7143582">
        <ele>54.9324</ele>
        <time>2014-06-24T11:27:17Z</time>
      </trkpt>
      <trkpt lat="59.9538671" lon="17.7143172">
        <ele>54.9324</ele>
        <time>2014-06-24T11:27:18Z</time>
      </trkpt>
      <trkpt lat="59.9538581" lon="17.71428">
        <ele>53.9712</ele>
        <time>2014-06-24T11:27:19Z</time>
      </trkpt>
      <trkpt lat="59.9538539" lon="17.7142282">
        <ele>53.4905</ele>
        <time>2014-06-24T11:27:20Z</time>
      </trkpt>
      <trkpt lat="59.953852" lon="17.7141612">
        <ele>50.6066</ele>
        <time>2014-06-24T11:27:21Z</time>
      </trkpt>
      <trkpt lat="59.9538509" lon="17.7140978">
        <ele>51.0872</ele>
        <time>2014-06-24T11:27:22Z</time>
      </trkpt>
      <trkpt lat="59.9538452" lon="17.7140402">
        <ele>51.5679</ele>
        <time>2014-06-24T11:27:23Z</time>
      </trkpt>
      <trkpt lat="59.953838" lon="17.7139844">
        <ele>52.0486</ele>
        <time>2014-06-24T11:27:24Z</time>
      </trkpt>
      <trkpt lat="59.9538372" lon="17.713932">
        <ele>51.5679</ele>
        <time>2014-06-24T11:27:25Z</time>
      </trkpt>
      <trkpt lat="59.9538385" lon="17.7138843">
        <ele>51.0872</ele>
        <time>2014-06-24T11:27:26Z</time>
      </trkpt>
      <trkpt lat="59.9538438" lon="17.7138402">
        <ele>51.0872</ele>
        <time>2014-06-24T11:27:27Z</time>
      </trkpt>
      <trkpt lat="59.9538482" lon="17.7137979">
        <ele>51.0872</ele>
        <time>2014-06-24T11:27:28Z</time>
      </trkpt>
      <trkpt lat="59.9538517" lon="17.713749">
        <ele>50.126</ele>
        <time>2014-06-24T11:27:29Z</time>
      </trkpt>
      <trkpt lat="59.9538497" lon="17.7136943">
        <ele>50.126</ele>
        <time>2014-06-24T11:27:30Z</time>
      </trkpt>
      <trkpt lat="59.9538409" lon="17.713638">
        <ele>49.6453</ele>
        <time>2014-06-24T11:27:31Z</time>
      </trkpt>
      <trkpt lat="59.9538286" lon="17.7135781">
        <ele>49.1646</ele>
        <time>2014-06-24T11:27:32Z</time>
      </trkpt>
      <trkpt lat="59.9538209" lon="17.7135192">
        <ele>49.1646</ele>
        <time>2014-06-24T11:27:33Z</time>
      </trkpt>
      <trkpt lat="59.9538173" lon="17.7134668">
        <ele>49.1646</ele>
        <time>2014-06-24T11:27:34Z</time>
      </trkpt>
      <trkpt lat="59.9538143" lon="17.7134196">
        <ele>49.6453</ele>
        <time>2014-06-24T11:27:35Z</time>
      </trkpt>
      <trkpt lat="59.9538094" lon="17.7133808">
        <ele>49.1646</ele>
        <time>2014-06-24T11:27:36Z</time>
      </trkpt>
      <trkpt lat="59.9538" lon="17.7133347">
        <ele>48.684</ele>
        <time>2014-06-24T11:27:37Z</time>
      </trkpt>
      <trkpt lat="59.9537866" lon="17.7132827">
        <ele>48.684</ele>
        <time>2014-06-24T11:27:38Z</time>
      </trkpt>
      <trkpt lat="59.9537686" lon="17.7132296">
        <ele>48.2034</ele>
        <time>2014-06-24T11:27:39Z</time>
      </trkpt>
      <trkpt lat="59.9537518" lon="17.7131855">
        <ele>48.2034</ele>
        <time>2014-06-24T11:27:40Z</time>
      </trkpt>
      <trkpt lat="59.9537348" lon="17.7131476">
        <ele>48.2034</ele>
        <time>2014-06-24T11:27:41Z</time>
      </trkpt>
      <trkpt lat="59.9537156" lon="17.7131161">
        <ele>48.2034</ele>
        <time>2014-06-24T11:27:42Z</time>
      </trkpt>
      <trkpt lat="59.953694" lon="17.7130964">
        <ele>48.2034</ele>
        <time>2014-06-24T11:27:43Z</time>
      </trkpt>
      <trkpt lat="59.9536704" lon="17.713085">
        <ele>48.2034</ele>
        <time>2014-06-24T11:27:44Z</time>
      </trkpt>
      <trkpt lat="59.9536468" lon="17.7130641">
        <ele>47.7225</ele>
        <time>2014-06-24T11:27:45Z</time>
      </trkpt>
      <trkpt lat="59.9536225" lon="17.7130488">
        <ele>47.7225</ele>
        <time>2014-06-24T11:27:46Z</time>
      </trkpt>
      <trkpt lat="59.9535953" lon="17.7130457">
        <ele>47.7225</ele>
        <time>2014-06-24T11:27:47Z</time>
      </trkpt>
      <trkpt lat="59.953566" lon="17.713053">
        <ele>47.2418</ele>
        <time>2014-06-24T11:27:48Z</time>
      </trkpt>
      <trkpt lat="59.9535386" lon="17.7130777">
        <ele>46.2806</ele>
        <time>2014-06-24T11:27:49Z</time>
      </trkpt>
      <trkpt lat="59.9535143" lon="17.7131066">
        <ele>45.7999</ele>
        <time>2014-06-24T11:27:50Z</time>
      </trkpt>
      <trkpt lat="59.9534878" lon="17.7131322">
        <ele>45.7999</ele>
        <time>2014-06-24T11:27:51Z</time>
      </trkpt>
      <trkpt lat="59.9534679" lon="17.7131641">
        <ele>45.3192</ele>
        <time>2014-06-24T11:27:52Z</time>
      </trkpt>
      <trkpt lat="59.9534465" lon="17.7131975">
        <ele>45.7999</ele>
        <time>2014-06-24T11:27:53Z</time>
      </trkpt>
      <trkpt lat="59.9534283" lon="17.7132269">
        <ele>44.8386</ele>
        <time>2014-06-24T11:27:54Z</time>
      </trkpt>
      <trkpt lat="59.9534065" lon="17.7132554">
        <ele>44.358</ele>
        <time>2014-06-24T11:27:55Z</time>
      </trkpt>
      <trkpt lat="59.9533836" lon="17.7132884">
        <ele>43.3966</ele>
        <time>2014-06-24T11:27:56Z</time>
      </trkpt>
      <trkpt lat="59.9533633" lon="17.7133215">
        <ele>42.916</ele>
        <time>2014-06-24T11:27:57Z</time>
      </trkpt>
      <trkpt lat="59.9533407" lon="17.7133576">
        <ele>42.4354</ele>
        <time>2014-06-24T11:27:58Z</time>
      </trkpt>
      <trkpt lat="59.9533184" lon="17.7133963">
        <ele>42.4354</ele>
        <time>2014-06-24T11:27:59Z</time>
      </trkpt>
      <trkpt lat="59.9533018" lon="17.7134324">
        <ele>42.4354</ele>
        <time>2014-06-24T11:28:00Z</time>
      </trkpt>
      <trkpt lat="59.9532843" lon="17.7134657">
        <ele>42.4354</ele>
        <time>2014-06-24T11:28:01Z</time>
      </trkpt>
      <trkpt lat="59.953265" lon="17.7134982">
        <ele>41.9547</ele>
        <time>2014-06-24T11:28:02Z</time>
      </trkpt>
      <trkpt lat="59.9532454" lon="17.7135358">
        <ele>41.474</ele>
        <time>2014-06-24T11:28:03Z</time>
      </trkpt>
      <trkpt lat="59.9532237" lon="17.7135757">
        <ele>40.9934</ele>
        <time>2014-06-24T11:28:04Z</time>
      </trkpt>
      <trkpt lat="59.9531993" lon="17.7136117">
        <ele>40.0321</ele>
        <time>2014-06-24T11:28:05Z</time>
      </trkpt>
      <trkpt lat="59.9531757" lon="17.7136438">
        <ele>40.5128</ele>
        <time>2014-06-24T11:28:06Z</time>
      </trkpt>
      <trkpt lat="59.9531556" lon="17.7136713">
        <ele>40.0321</ele>
        <time>2014-06-24T11:28:07Z</time>
      </trkpt>
      <trkpt lat="59.9531304" lon="17.7136955">
        <ele>39.5513</ele>
        <time>2014-06-24T11:28:08Z</time>
      </trkpt>
      <trkpt lat="59.9531061" lon="17.7137258">
        <ele>39.0707</ele>
        <time>2014-06-24T11:28:09Z</time>
      </trkpt>
      <trkpt lat="59.9530823" lon="17.7137517">
        <ele>38.5901</ele>
        <time>2014-06-24T11:28:10Z</time>
      </trkpt>
      <trkpt lat="59.9530592" lon="17.7137785">
        <ele>38.5901</ele>
        <time>2014-06-24T11:28:11Z</time>
      </trkpt>
      <trkpt lat="59.953036" lon="17.7137988">
        <ele>38.5901</ele>
        <time>2014-06-24T11:28:12Z</time>
      </trkpt>
      <trkpt lat="59.9530141" lon="17.7138172">
        <ele>37.6287</ele>
        <time>2014-06-24T11:28:13Z</time>
      </trkpt>
      <trkpt lat="59.9529893" lon="17.713837">
        <ele>38.1094</ele>
        <time>2014-06-24T11:28:14Z</time>
      </trkpt>
      <trkpt lat="59.9529656" lon="17.7138501">
        <ele>37.6287</ele>
        <time>2014-06-24T11:28:15Z</time>
      </trkpt>
      <trkpt lat="59.9529391" lon="17.7138598">
        <ele>37.1481</ele>
        <time>2014-06-24T11:28:16Z</time>
      </trkpt>
      <trkpt lat="59.9529111" lon="17.7138597">
        <ele>36.6675</ele>
        <time>2014-06-24T11:28:17Z</time>
      </trkpt>
      <trkpt lat="59.9528848" lon="17.7138556">
        <ele>36.1868</ele>
        <time>2014-06-24T11:28:18Z</time>
      </trkpt>
      <trkpt lat="59.9528596" lon="17.7138419">
        <ele>36.1868</ele>
        <time>2014-06-24T11:28:19Z</time>
      </trkpt>
      <trkpt lat="59.952836" lon="17.7138255">
        <ele>35.7061</ele>
        <time>2014-06-24T11:28:20Z</time>
      </trkpt>
      <trkpt lat="59.9528106" lon="17.7138069">
        <ele>35.7061</ele>
        <time>2014-06-24T11:28:21Z</time>
      </trkpt>
      <trkpt lat="59.9527859" lon="17.713779">
        <ele>35.7061</ele>
        <time>2014-06-24T11:28:22Z</time>
      </trkpt>
      <trkpt lat="59.9527644" lon="17.7137516">
        <ele>36.1868</ele>
        <time>2014-06-24T11:28:23Z</time>
      </trkpt>
      <trkpt lat="59.9527449" lon="17.7137257">
        <ele>36.6675</ele>
        <time>2014-06-24T11:28:24Z</time>
      </trkpt>
      <trkpt lat="59.952724" lon="17.7136957">
        <ele>36.6675</ele>
        <time>2014-06-24T11:28:25Z</time>
      </trkpt>
      <trkpt lat="59.9527039" lon="17.7136648">
        <ele>37.1481</ele>
        <time>2014-06-24T11:28:26Z</time>
      </trkpt>
      <trkpt lat="59.9526852" lon="17.7136315">
        <ele>37.6287</ele>
        <time>2014-06-24T11:28:27Z</time>
      </trkpt>
      <trkpt lat="59.9526672" lon="17.7135967">
        <ele>38.1094</ele>
        <time>2014-06-24T11:28:28Z</time>
      </trkpt>
      <trkpt lat="59.9526497" lon="17.7135631">
        <ele>38.5901</ele>
        <time>2014-06-24T11:28:29Z</time>
      </trkpt>
      <trkpt lat="59.9526336" lon="17.7135298">
        <ele>39.0707</ele>
        <time>2014-06-24T11:28:30Z</time>
      </trkpt>
      <trkpt lat="59.9526179" lon="17.7134985">
        <ele>39.0707</ele>
        <time>2014-06-24T11:28:31Z</time>
      </trkpt>
      <trkpt lat="59.9526011" lon="17.7134666">
        <ele>39.5513</ele>
        <time>2014-06-24T11:28:32Z</time>
      </trkpt>
      <trkpt lat="59.9525827" lon="17.7134311">
        <ele>40.0321</ele>
        <time>2014-06-24T11:28:33Z</time>
      </trkpt>
      <trkpt lat="59.952565" lon="17.7133964">
        <ele>40.5128</ele>
        <time>2014-06-24T11:28:34Z</time>
      </trkpt>
      <trkpt lat="59.9525461" lon="17.7133606">
        <ele>40.9934</ele>
        <time>2014-06-24T11:28:35Z</time>
      </trkpt>
      <trkpt lat="59.9525279" lon="17.7133237">
        <ele>41.474</ele>
        <time>2014-06-24T11:28:36Z</time>
      </trkpt>
      <trkpt lat="59.9525112" lon="17.7132856">
        <ele>41.474</ele>
        <time>2014-06-24T11:28:37Z</time>
      </trkpt>
      <trkpt lat="59.9524963" lon="17.7132502">
        <ele>41.474</ele>
        <time>2014-06-24T11:28:38Z</time>
      </trkpt>
      <trkpt lat="59.9524804" lon="17.713213">
        <ele>41.9547</ele>
        <time>2014-06-24T11:28:39Z</time>
      </trkpt>
      <trkpt lat="59.9524637" lon="17.7131767">
        <ele>41.9547</ele>
        <time>2014-06-24T11:28:40Z</time>
      </trkpt>
      <trkpt lat="59.9524459" lon="17.7131415">
        <ele>42.4354</ele>
        <time>2014-06-24T11:28:41Z</time>
      </trkpt>
      <trkpt lat="59.952428" lon="17.7131072">
        <ele>42.4354</ele>
        <time>2014-06-24T11:28:42Z</time>
      </trkpt>
      <trkpt lat="59.9524119" lon="17.713072">
        <ele>42.4354</ele>
        <time>2014-06-24T11:28:43Z</time>
      </trkpt>
      <trkpt lat="59.9523957" lon="17.7130331">
        <ele>42.916</ele>
        <time>2014-06-24T11:28:44Z</time>
      </trkpt>
      <trkpt lat="59.9523803" lon="17.7129957">
        <ele>42.916</ele>
        <time>2014-06-24T11:28:45Z</time>
      </trkpt>
      <trkpt lat="59.9523638" lon="17.712962">
        <ele>43.3966</ele>
        <time>2014-06-24T11:28:46Z</time>
      </trkpt>
      <trkpt lat="59.9523467" lon="17.712926">
        <ele>43.3966</ele>
        <time>2014-06-24T11:28:47Z</time>
      </trkpt>
      <trkpt lat="59.9523302" lon="17.7128896">
        <ele>43.3966</ele>
        <time>2014-06-24T11:28:48Z</time>
      </trkpt>
      <trkpt lat="59.952315" lon="17.7128551">
        <ele>43.8773</ele>
        <time>2014-06-24T11:28:49Z</time>
      </trkpt>
      <trkpt lat="59.9523011" lon="17.7128235">
        <ele>44.358</ele>
        <time>2014-06-24T11:28:50Z</time>
      </trkpt>
      <trkpt lat="59.9522877" lon="17.7127906">
        <ele>44.358</ele>
        <time>2014-06-24T11:28:51Z</time>
      </trkpt>
      <trkpt lat="59.952271" lon="17.7127498">
        <ele>44.8386</ele>
        <time>2014-06-24T11:28:52Z</time>
      </trkpt>
      <trkpt lat="59.9522525" lon="17.7127084">
        <ele>44.8386</ele>
        <time>2014-06-24T11:28:53Z</time>
      </trkpt>
      <trkpt lat="59.9522338" lon="17.7126773">
        <ele>45.3192</ele>
        <time>2014-06-24T11:28:54Z</time>
      </trkpt>
      <trkpt lat="59.9522145" lon="17.7126452">
        <ele>45.7999</ele>
        <time>2014-06-24T11:28:55Z</time>
      </trkpt>
      <trkpt lat="59.9521965" lon="17.7126139">
        <ele>46.2806</ele>
        <time>2014-06-24T11:28:56Z</time>
      </trkpt>
      <trkpt lat="59.9521777" lon="17.7125847">
        <ele>46.2806</ele>
        <time>2014-06-24T11:28:57Z</time>
      </trkpt>
      <trkpt lat="59.952156" lon="17.7125562">
        <ele>46.7612</ele>
        <time>2014-06-24T11:28:58Z</time>
      </trkpt>
      <trkpt lat="59.9521353" lon="17.7125305">
        <ele>46.7612</ele>
        <time>2014-06-24T11:28:59Z</time>
      </trkpt>
      <trkpt lat="59.9521161" lon="17.7125105">
        <ele>46.7612</ele>
        <time>2014-06-24T11:29:00Z</time>
      </trkpt>
      <trkpt lat="59.9520954" lon="17.7125">
        <ele>47.2418</ele>
        <time>2014-06-24T11:29:01Z</time>
      </trkpt>
      <trkpt lat="59.9520752" lon="17.7125017">
        <ele>47.2418</ele>
        <time>2014-06-24T11:29:02Z</time>
      </trkpt>
      <trkpt lat="59.9520556" lon="17.7125191">
        <ele>47.2418</ele>
        <time>2014-06-24T11:29:03Z</time>
      </trkpt>
      <trkpt lat="59.9520403" lon="17.7125544">
        <ele>47.2418</ele>
        <time>2014-06-24T11:29:04Z</time>
      </trkpt>
      <trkpt lat="59.9520294" lon="17.7125953">
        <ele>47.7225</ele>
        <time>2014-06-24T11:29:05Z</time>
      </trkpt>
      <trkpt lat="59.9520187" lon="17.7126359">
        <ele>47.7225</ele>
        <time>2014-06-24T11:29:06Z</time>
      </trkpt>
      <trkpt lat="59.9520038" lon="17.7126727">
        <ele>48.2034</ele>
        <time>2014-06-24T11:29:07Z</time>
      </trkpt>
      <trkpt lat="59.9519845" lon="17.7127089">
        <ele>47.2418</ele>
        <time>2014-06-24T11:29:08Z</time>
      </trkpt>
      <trkpt lat="59.9519679" lon="17.71274">
        <ele>47.2418</ele>
        <time>2014-06-24T11:29:09Z</time>
      </trkpt>
      <trkpt lat="59.9519502" lon="17.7127683">
        <ele>47.7225</ele>
        <time>2014-06-24T11:29:10Z</time>
      </trkpt>
      <trkpt lat="59.9519353" lon="17.7127997">
        <ele>47.7225</ele>
        <time>2014-06-24T11:29:11Z</time>
      </trkpt>
      <trkpt lat="59.9519176" lon="17.7128337">
        <ele>47.7225</ele>
        <time>2014-06-24T11:29:12Z</time>
      </trkpt>
      <trkpt lat="59.9518943" lon="17.7128594">
        <ele>47.2418</ele>
        <time>2014-06-24T11:29:13Z</time>
      </trkpt>
      <trkpt lat="59.9518711" lon="17.7128818">
        <ele>47.2418</ele>
        <time>2014-06-24T11:29:14Z</time>
      </trkpt>
      <trkpt lat="59.9518489" lon="17.712898">
        <ele>46.7612</ele>
        <time>2014-06-24T11:29:15Z</time>
      </trkpt>
      <trkpt lat="59.9518272" lon="17.7129017">
        <ele>46.7612</ele>
        <time>2014-06-24T11:29:16Z</time>
      </trkpt>
      <trkpt lat="59.9518067" lon="17.7129082">
        <ele>46.2806</ele>
        <time>2014-06-24T11:29:17Z</time>
      </trkpt>
      <trkpt lat="59.9517864" lon="17.7129142">
        <ele>45.7999</ele>
        <time>2014-06-24T11:29:18Z</time>
      </trkpt>
      <trkpt lat="59.9517637" lon="17.7129248">
        <ele>45.3192</ele>
        <time>2014-06-24T11:29:19Z</time>
      </trkpt>
      <trkpt lat="59.9517401" lon="17.7129301">
        <ele>45.3192</ele>
        <time>2014-06-24T11:29:20Z</time>
      </trkpt>
      <trkpt lat="59.9517172" lon="17.7129278">
        <ele>45.3192</ele>
        <time>2014-06-24T11:29:21Z</time>
      </trkpt>
      <trkpt lat="59.9516933" lon="17.7129237">
        <ele>44.358</ele>
        <time>2014-06-24T11:29:22Z</time>
      </trkpt>
      <trkpt lat="59.9516702" lon="17.7129107">
        <ele>44.358</ele>
        <time>2014-06-24T11:29:23Z</time>
      </trkpt>
      <trkpt lat="59.9516443" lon="17.7129007">
        <ele>44.358</ele>
        <time>2014-06-24T11:29:24Z</time>
      </trkpt>
      <trkpt lat="59.9516209" lon="17.712888">
        <ele>44.358</ele>
        <time>2014-06-24T11:29:25Z</time>
      </trkpt>
      <trkpt lat="59.951602" lon="17.7128731">
        <ele>43.8773</ele>
        <time>2014-06-24T11:29:26Z</time>
      </trkpt>
      <trkpt lat="59.9515803" lon="17.7128636">
        <ele>43.8773</ele>
        <time>2014-06-24T11:29:27Z</time>
      </trkpt>
      <trkpt lat="59.9515612" lon="17.712853">
        <ele>43.3966</ele>
        <time>2014-06-24T11:29:28Z</time>
      </trkpt>
      <trkpt lat="59.9515406" lon="17.712842">
        <ele>43.3966</ele>
        <time>2014-06-24T11:29:29Z</time>
      </trkpt>
      <trkpt lat="59.9515161" lon="17.7128434">
        <ele>44.8386</ele>
        <time>2014-06-24T11:29:30Z</time>
      </trkpt>
      <trkpt lat="59.951494" lon="17.7128478">
        <ele>46.7612</ele>
        <time>2014-06-24T11:29:31Z</time>
      </trkpt>
      <trkpt lat="59.9514722" lon="17.71284">
        <ele>46.7612</ele>
        <time>2014-06-24T11:29:32Z</time>
      </trkpt>
      <trkpt lat="59.95145" lon="17.7128301">
        <ele>46.7612</ele>
        <time>2014-06-24T11:29:33Z</time>
      </trkpt>
      <trkpt lat="59.9514298" lon="17.7128172">
        <ele>46.7612</ele>
        <time>2014-06-24T11:29:34Z</time>
      </trkpt>
      <trkpt lat="59.9514101" lon="17.7128056">
        <ele>47.2418</ele>
        <time>2014-06-24T11:29:35Z</time>
      </trkpt>
      <trkpt lat="59.9513882" lon="17.7127914">
        <ele>47.7225</ele>
        <time>2014-06-24T11:29:36Z</time>
      </trkpt>
      <trkpt lat="59.9513632" lon="17.7127758">
        <ele>48.684</ele>
        <time>2014-06-24T11:29:37Z</time>
      </trkpt>
      <trkpt lat="59.9513384" lon="17.7127539">
        <ele>49.6453</ele>
        <time>2014-06-24T11:29:38Z</time>
      </trkpt>
      <trkpt lat="59.9513127" lon="17.7127327">
        <ele>49.1646</ele>
        <time>2014-06-24T11:29:39Z</time>
      </trkpt>
      <trkpt lat="59.9512943" lon="17.7127167">
        <ele>48.684</ele>
        <time>2014-06-24T11:29:40Z</time>
      </trkpt>
      <trkpt lat="59.9512717" lon="17.7126944">
        <ele>49.1646</ele>
        <time>2014-06-24T11:29:41Z</time>
      </trkpt>
      <trkpt lat="59.9512448" lon="17.7126768">
        <ele>49.1646</ele>
        <time>2014-06-24T11:29:42Z</time>
      </trkpt>
      <trkpt lat="59.9512182" lon="17.7126629">
        <ele>48.2034</ele>
        <time>2014-06-24T11:29:43Z</time>
      </trkpt>
      <trkpt lat="59.9511899" lon="17.7126531">
        <ele>49.1646</ele>
        <time>2014-06-24T11:29:44Z</time>
      </trkpt>
      <trkpt lat="59.9511629" lon="17.7126383">
        <ele>49.6453</ele>
        <time>2014-06-24T11:29:45Z</time>
      </trkpt>
      <trkpt lat="59.9511416" lon="17.7126228">
        <ele>49.6453</ele>
        <time>2014-06-24T11:29:46Z</time>
      </trkpt>
      <trkpt lat="59.9511182" lon="17.7126181">
        <ele>50.126</ele>
        <time>2014-06-24T11:29:47Z</time>
      </trkpt>
      <trkpt lat="59.951098" lon="17.7126082">
        <ele>51.5679</ele>
        <time>2014-06-24T11:29:48Z</time>
      </trkpt>
      <trkpt lat="59.9510754" lon="17.7125904">
        <ele>51.0872</ele>
        <time>2014-06-24T11:29:49Z</time>
      </trkpt>
      <trkpt lat="59.9510506" lon="17.7125769">
        <ele>51.0872</ele>
        <time>2014-06-24T11:29:50Z</time>
      </trkpt>
      <trkpt lat="59.9510253" lon="17.7125624">
        <ele>50.6066</ele>
        <time>2014-06-24T11:29:51Z</time>
      </trkpt>
      <trkpt lat="59.9510022" lon="17.7125453">
        <ele>51.0872</ele>
        <time>2014-06-24T11:29:52Z</time>
      </trkpt>
      <trkpt lat="59.9509818" lon="17.7125271">
        <ele>51.5679</ele>
        <time>2014-06-24T11:29:53Z</time>
      </trkpt>
      <trkpt lat="59.950962" lon="17.7125101">
        <ele>52.5292</ele>
        <time>2014-06-24T11:29:54Z</time>
      </trkpt>
      <trkpt lat="59.9509423" lon="17.7124956">
        <ele>53.0098</ele>
        <time>2014-06-24T11:29:55Z</time>
      </trkpt>
      <trkpt lat="59.9509217" lon="17.7124939">
        <ele>53.0098</ele>
        <time>2014-06-24T11:29:56Z</time>
      </trkpt>
      <trkpt lat="59.9509029" lon="17.7125028">
        <ele>52.0486</ele>
        <time>2014-06-24T11:29:57Z</time>
      </trkpt>
      <trkpt lat="59.9508877" lon="17.71252">
        <ele>51.0872</ele>
        <time>2014-06-24T11:29:58Z</time>
      </trkpt>
      <trkpt lat="59.9508748" lon="17.7125482">
        <ele>50.6066</ele>
        <time>2014-06-24T11:29:59Z</time>
      </trkpt>
      <trkpt lat="59.9508602" lon="17.7125809">
        <ele>50.126</ele>
        <time>2014-06-24T11:30:00Z</time>
      </trkpt>
      <trkpt lat="59.9508418" lon="17.7126002">
        <ele>49.1646</ele>
        <time>2014-06-24T11:30:01Z</time>
      </trkpt>
      <trkpt lat="59.9508261" lon="17.7126175">
        <ele>47.7225</ele>
        <time>2014-06-24T11:30:02Z</time>
      </trkpt>
      <trkpt lat="59.9508121" lon="17.7126351">
        <ele>46.7612</ele>
        <time>2014-06-24T11:30:03Z</time>
      </trkpt>
      <trkpt lat="59.9507963" lon="17.7126474">
        <ele>46.2806</ele>
        <time>2014-06-24T11:30:04Z</time>
      </trkpt>
      <trkpt lat="59.9507775" lon="17.7126695">
        <ele>44.8386</ele>
        <time>2014-06-24T11:30:05Z</time>
      </trkpt>
      <trkpt lat="59.9507595" lon="17.7126934">
        <ele>43.8773</ele>
        <time>2014-06-24T11:30:06Z</time>
      </trkpt>
      <trkpt lat="59.9507425" lon="17.7127182">
        <ele>42.4354</ele>
        <time>2014-06-24T11:30:07Z</time>
      </trkpt>
      <trkpt lat="59.9507258" lon="17.7127422">
        <ele>41.474</ele>
        <time>2014-06-24T11:30:08Z</time>
      </trkpt>
      <trkpt lat="59.9507103" lon="17.7127654">
        <ele>40.9934</ele>
        <time>2014-06-24T11:30:09Z</time>
      </trkpt>
      <trkpt lat="59.9506921" lon="17.7127939">
        <ele>39.5513</ele>
        <time>2014-06-24T11:30:10Z</time>
      </trkpt>
      <trkpt lat="59.950674" lon="17.7128213">
        <ele>37.6287</ele>
        <time>2014-06-24T11:30:11Z</time>
      </trkpt>
      <trkpt lat="59.9506621" lon="17.712839">
        <ele>36.6675</ele>
        <time>2014-06-24T11:30:12Z</time>
      </trkpt>
      <trkpt lat="59.9506507" lon="17.7128627">
        <ele>35.7061</ele>
        <time>2014-06-24T11:30:13Z</time>
      </trkpt>
      <trkpt lat="59.9506325" lon="17.7128913">
        <ele>34.2642</ele>
        <time>2014-06-24T11:30:14Z</time>
      </trkpt>
      <trkpt lat="59.9506188" lon="17.7129115">
        <ele>33.3029</ele>
        <time>2014-06-24T11:30:15Z</time>
      </trkpt>
      <trkpt lat="59.95061" lon="17.7129294">
        <ele>32.8223</ele>
        <time>2014-06-24T11:30:16Z</time>
      </trkpt>
      <trkpt lat="59.9506004" lon="17.712966">
        <ele>30.8995</ele>
        <time>2014-06-24T11:30:17Z</time>
      </trkpt>
      <trkpt lat="59.9505894" lon="17.7130068">
        <ele>29.9381</ele>
        <time>2014-06-24T11:30:18Z</time>
      </trkpt>
      <trkpt lat="59.9505761" lon="17.7130563">
        <ele>27.5349</ele>
        <time>2014-06-24T11:30:19Z</time>
      </trkpt>
      <trkpt lat="59.9505615" lon="17.7130995">
        <ele>26.0929</ele>
        <time>2014-06-24T11:30:20Z</time>
      </trkpt>
      <trkpt lat="59.9505491" lon="17.7131435">
        <ele>25.6123</ele>
        <time>2014-06-24T11:30:21Z</time>
      </trkpt>
      <trkpt lat="59.9505461" lon="17.7131876">
        <ele>24.651</ele>
        <time>2014-06-24T11:30:22Z</time>
      </trkpt>
      <trkpt lat="59.9505394" lon="17.7132374">
        <ele>23.6896</ele>
        <time>2014-06-24T11:30:23Z</time>
      </trkpt>
      <trkpt lat="59.9505329" lon="17.7132801">
        <ele>22.7283</ele>
        <time>2014-06-24T11:30:24Z</time>
      </trkpt>
      <trkpt lat="59.9505268" lon="17.7133244">
        <ele>21.2864</ele>
        <time>2014-06-24T11:30:25Z</time>
      </trkpt>
      <trkpt lat="59.9505201" lon="17.7133672">
        <ele>21.2864</ele>
        <time>2014-06-24T11:30:26Z</time>
      </trkpt>
      <trkpt lat="59.9505078" lon="17.713414">
        <ele>19.8444</ele>
        <time>2014-06-24T11:30:27Z</time>
      </trkpt>
      <trkpt lat="59.9504993" lon="17.71346">
        <ele>19.8444</ele>
        <time>2014-06-24T11:30:28Z</time>
      </trkpt>
      <trkpt lat="59.9504904" lon="17.7135134">
        <ele>18.4023</ele>
        <time>2014-06-24T11:30:29Z</time>
      </trkpt>
      <trkpt lat="59.9504868" lon="17.7135665">
        <ele>18.8831</ele>
        <time>2014-06-24T11:30:30Z</time>
      </trkpt>
      <trkpt lat="59.9504757" lon="17.7136173">
        <ele>18.8831</ele>
        <time>2014-06-24T11:30:31Z</time>
      </trkpt>
      <trkpt lat="59.9504653" lon="17.7136697">
        <ele>18.4023</ele>
        <time>2014-06-24T11:30:32Z</time>
      </trkpt>
      <trkpt lat="59.9504541" lon="17.713715">
        <ele>17.9218</ele>
        <time>2014-06-24T11:30:33Z</time>
      </trkpt>
      <trkpt lat="59.9504489" lon="17.7137597">
        <ele>17.9218</ele>
        <time>2014-06-24T11:30:34Z</time>
      </trkpt>
      <trkpt lat="59.9504459" lon="17.713805">
        <ele>18.4023</ele>
        <time>2014-06-24T11:30:35Z</time>
      </trkpt>
      <trkpt lat="59.9504331" lon="17.7138573">
        <ele>17.9218</ele>
        <time>2014-06-24T11:30:36Z</time>
      </trkpt>
      <trkpt lat="59.9504165" lon="17.7139027">
        <ele>17.4412</ele>
        <time>2014-06-24T11:30:37Z</time>
      </trkpt>
      <trkpt lat="59.9504015" lon="17.713945">
        <ele>17.9218</ele>
        <time>2014-06-24T11:30:38Z</time>
      </trkpt>
      <trkpt lat="59.9503823" lon="17.7139913">
        <ele>15.999</ele>
        <time>2014-06-24T11:30:39Z</time>
      </trkpt>
      <trkpt lat="59.950364" lon="17.7140324">
        <ele>16.4797</ele>
        <time>2014-06-24T11:30:40Z</time>
      </trkpt>
      <trkpt lat="59.9503482" lon="17.7140754">
        <ele>15.999</ele>
        <time>2014-06-24T11:30:41Z</time>
      </trkpt>
      <trkpt lat="59.9503355" lon="17.7141132">
        <ele>16.4797</ele>
        <time>2014-06-24T11:30:42Z</time>
      </trkpt>
      <trkpt lat="59.9503239" lon="17.7141411">
        <ele>17.4412</ele>
        <time>2014-06-24T11:30:43Z</time>
      </trkpt>
      <trkpt lat="59.9503119" lon="17.7141757">
        <ele>18.4023</ele>
        <time>2014-06-24T11:30:44Z</time>
      </trkpt>
      <trkpt lat="59.9503008" lon="17.7142151">
        <ele>19.3638</ele>
        <time>2014-06-24T11:30:45Z</time>
      </trkpt>
      <trkpt lat="59.9502927" lon="17.7142537">
        <ele>19.3638</ele>
        <time>2014-06-24T11:30:46Z</time>
      </trkpt>
      <trkpt lat="59.9502803" lon="17.7142969">
        <ele>19.8444</ele>
        <time>2014-06-24T11:30:47Z</time>
      </trkpt>
      <trkpt lat="59.9502673" lon="17.7143316">
        <ele>20.325</ele>
        <time>2014-06-24T11:30:48Z</time>
      </trkpt>
      <trkpt lat="59.9502518" lon="17.7143568">
        <ele>20.8057</ele>
        <time>2014-06-24T11:30:49Z</time>
      </trkpt>
      <trkpt lat="59.9502337" lon="17.7143837">
        <ele>20.8057</ele>
        <time>2014-06-24T11:30:50Z</time>
      </trkpt>
      <trkpt lat="59.9502135" lon="17.7144125">
        <ele>19.3638</ele>
        <time>2014-06-24T11:30:51Z</time>
      </trkpt>
      <trkpt lat="59.9502009" lon="17.7144409">
        <ele>19.3638</ele>
        <time>2014-06-24T11:30:52Z</time>
      </trkpt>
      <trkpt lat="59.9501896" lon="17.7144757">
        <ele>18.8831</ele>
        <time>2014-06-24T11:30:53Z</time>
      </trkpt>
      <trkpt lat="59.9501834" lon="17.7145223">
        <ele>17.9218</ele>
        <time>2014-06-24T11:30:54Z</time>
      </trkpt>
      <trkpt lat="59.9501798" lon="17.7145604">
        <ele>18.8831</ele>
        <time>2014-06-24T11:30:55Z</time>
      </trkpt>
      <trkpt lat="59.9501755" lon="17.7145955">
        <ele>19.3638</ele>
        <time>2014-06-24T11:30:56Z</time>
      </trkpt>
      <trkpt lat="59.9501762" lon="17.7146261">
        <ele>20.8057</ele>
        <time>2014-06-24T11:30:57Z</time>
      </trkpt>
      <trkpt lat="59.9501765" lon="17.7146639">
        <ele>21.767</ele>
        <time>2014-06-24T11:30:58Z</time>
      </trkpt>
      <trkpt lat="59.9501719" lon="17.7147058">
        <ele>21.767</ele>
        <time>2014-06-24T11:30:59Z</time>
      </trkpt>
      <trkpt lat="59.9501677" lon="17.7147623">
        <ele>22.2476</ele>
        <time>2014-06-24T11:31:00Z</time>
      </trkpt>
      <trkpt lat="59.9501658" lon="17.7148129">
        <ele>23.6896</ele>
        <time>2014-06-24T11:31:01Z</time>
      </trkpt>
      <trkpt lat="59.9501583" lon="17.7148607">
        <ele>24.1703</ele>
        <time>2014-06-24T11:31:02Z</time>
      </trkpt>
      <trkpt lat="59.9501526" lon="17.7149116">
        <ele>25.1317</ele>
        <time>2014-06-24T11:31:03Z</time>
      </trkpt>
      <trkpt lat="59.9501467" lon="17.714965">
        <ele>25.6123</ele>
        <time>2014-06-24T11:31:04Z</time>
      </trkpt>
      <trkpt lat="59.950141" lon="17.7150145">
        <ele>26.0929</ele>
        <time>2014-06-24T11:31:05Z</time>
      </trkpt>
      <trkpt lat="59.9501322" lon="17.7150646">
        <ele>27.0543</ele>
        <time>2014-06-24T11:31:06Z</time>
      </trkpt>
      <trkpt lat="59.9501231" lon="17.7151198">
        <ele>28.4962</ele>
        <time>2014-06-24T11:31:07Z</time>
      </trkpt>
      <trkpt lat="59.9501171" lon="17.7151628">
        <ele>28.9769</ele>
        <time>2014-06-24T11:31:08Z</time>
      </trkpt>
      <trkpt lat="59.950115" lon="17.7152015">
        <ele>30.4188</ele>
        <time>2014-06-24T11:31:09Z</time>
      </trkpt>
      <trkpt lat="59.9501135" lon="17.7152525">
        <ele>30.8995</ele>
        <time>2014-06-24T11:31:10Z</time>
      </trkpt>
      <trkpt lat="59.9501083" lon="17.7152891">
        <ele>29.9381</ele>
        <time>2014-06-24T11:31:11Z</time>
      </trkpt>
      <trkpt lat="59.9501057" lon="17.7153224">
        <ele>30.8995</ele>
        <time>2014-06-24T11:31:12Z</time>
      </trkpt>
      <trkpt lat="59.9501027" lon="17.7153623">
        <ele>31.8607</ele>
        <time>2014-06-24T11:31:13Z</time>
      </trkpt>
      <trkpt lat="59.9501003" lon="17.7154055">
        <ele>32.3416</ele>
        <time>2014-06-24T11:31:14Z</time>
      </trkpt>
      <trkpt lat="59.9500979" lon="17.7154548">
        <ele>32.3416</ele>
        <time>2014-06-24T11:31:15Z</time>
      </trkpt>
      <trkpt lat="59.9500954" lon="17.7155027">
        <ele>32.8223</ele>
        <time>2014-06-24T11:31:16Z</time>
      </trkpt>
      <trkpt lat="59.9500933" lon="17.7155545">
        <ele>32.3416</ele>
        <time>2014-06-24T11:31:17Z</time>
      </trkpt>
      <trkpt lat="59.9500924" lon="17.7155984">
        <ele>32.8223</ele>
        <time>2014-06-24T11:31:18Z</time>
      </trkpt>
      <trkpt lat="59.9500916" lon="17.7156335">
        <ele>33.3029</ele>
        <time>2014-06-24T11:31:19Z</time>
      </trkpt>
      <trkpt lat="59.9500853" lon="17.7156728">
        <ele>32.3416</ele>
        <time>2014-06-24T11:31:20Z</time>
      </trkpt>
      <trkpt lat="59.9500798" lon="17.715714">
        <ele>32.3416</ele>
        <time>2014-06-24T11:31:21Z</time>
      </trkpt>
      <trkpt lat="59.9500745" lon="17.715757">
        <ele>32.3416</ele>
        <time>2014-06-24T11:31:22Z</time>
      </trkpt>
      <trkpt lat="59.9500669" lon="17.7157912">
        <ele>32.3416</ele>
        <time>2014-06-24T11:31:23Z</time>
      </trkpt>
      <trkpt lat="59.9500651" lon="17.7158285">
        <ele>31.3801</ele>
        <time>2014-06-24T11:31:24Z</time>
      </trkpt>
      <trkpt lat="59.9500576" lon="17.7158734">
        <ele>30.4188</ele>
        <time>2014-06-24T11:31:25Z</time>
      </trkpt>
      <trkpt lat="59.9500498" lon="17.7159138">
        <ele>29.4575</ele>
        <time>2014-06-24T11:31:26Z</time>
      </trkpt>
      <trkpt lat="59.9500354" lon="17.7159345">
        <ele>29.4575</ele>
        <time>2014-06-24T11:31:27Z</time>
      </trkpt>
      <trkpt lat="59.9500218" lon="17.7159595">
        <ele>28.0155</ele>
        <time>2014-06-24T11:31:28Z</time>
      </trkpt>
      <trkpt lat="59.9500063" lon="17.715983">
        <ele>27.5349</ele>
        <time>2014-06-24T11:31:29Z</time>
      </trkpt>
      <trkpt lat="59.9499906" lon="17.7160004">
        <ele>27.5349</ele>
        <time>2014-06-24T11:31:30Z</time>
      </trkpt>
      <trkpt lat="59.949969" lon="17.7160155">
        <ele>25.1317</ele>
        <time>2014-06-24T11:31:31Z</time>
      </trkpt>
      <trkpt lat="59.9499528" lon="17.7160448">
        <ele>23.6896</ele>
        <time>2014-06-24T11:31:32Z</time>
      </trkpt>
      <trkpt lat="59.9499353" lon="17.7160753">
        <ele>22.7283</ele>
        <time>2014-06-24T11:31:33Z</time>
      </trkpt>
      <trkpt lat="59.9499161" lon="17.7161045">
        <ele>21.767</ele>
        <time>2014-06-24T11:31:34Z</time>
      </trkpt>
      <trkpt lat="59.9498944" lon="17.7161336">
        <ele>19.8444</ele>
        <time>2014-06-24T11:31:35Z</time>
      </trkpt>
      <trkpt lat="59.9498708" lon="17.7161644">
        <ele>17.9218</ele>
        <time>2014-06-24T11:31:36Z</time>
      </trkpt>
      <trkpt lat="59.9498449" lon="17.7161935">
        <ele>16.4797</ele>
        <time>2014-06-24T11:31:37Z</time>
      </trkpt>
      <trkpt lat="59.9498187" lon="17.7162131">
        <ele>15.999</ele>
        <time>2014-06-24T11:31:38Z</time>
      </trkpt>
      <trkpt lat="59.9497921" lon="17.716236">
        <ele>15.999</ele>
        <time>2014-06-24T11:31:39Z</time>
      </trkpt>
      <trkpt lat="59.9497667" lon="17.7162604">
        <ele>15.0377</ele>
        <time>2014-06-24T11:31:40Z</time>
      </trkpt>
      <trkpt lat="59.9497467" lon="17.7162816">
        <ele>14.0764</ele>
        <time>2014-06-24T11:31:41Z</time>
      </trkpt>
      <trkpt lat="59.949727" lon="17.7163111">
        <ele>14.0764</ele>
        <time>2014-06-24T11:31:42Z</time>
      </trkpt>
      <trkpt lat="59.9497126" lon="17.7163376">
        <ele>14.0764</ele>
        <time>2014-06-24T11:31:43Z</time>
      </trkpt>
      <trkpt lat="59.9496958" lon="17.7163552">
        <ele>14.0764</ele>
        <time>2014-06-24T11:31:44Z</time>
      </trkpt>
      <trkpt lat="59.9496728" lon="17.7163687">
        <ele>13.1151</ele>
        <time>2014-06-24T11:31:45Z</time>
      </trkpt>
      <trkpt lat="59.9496493" lon="17.716368">
        <ele>11.6732</ele>
        <time>2014-06-24T11:31:46Z</time>
      </trkpt>
      <trkpt lat="59.9496266" lon="17.7163623">
        <ele>11.1925</ele>
        <time>2014-06-24T11:31:47Z</time>
      </trkpt>
      <trkpt lat="59.9496038" lon="17.7163566">
        <ele>11.1925</ele>
        <time>2014-06-24T11:31:48Z</time>
      </trkpt>
      <trkpt lat="59.9495887" lon="17.7163506">
        <ele>11.1925</ele>
        <time>2014-06-24T11:31:49Z</time>
      </trkpt>
      <trkpt lat="59.9495732" lon="17.7163428">
        <ele>11.1925</ele>
        <time>2014-06-24T11:31:50Z</time>
      </trkpt>
      <trkpt lat="59.9495512" lon="17.7163398">
        <ele>11.1925</ele>
        <time>2014-06-24T11:31:51Z</time>
      </trkpt>
      <trkpt lat="59.9495319" lon="17.7163509">
        <ele>11.1925</ele>
        <time>2014-06-24T11:31:52Z</time>
      </trkpt>
      <trkpt lat="59.9495228" lon="17.7163703">
        <ele>10.7118</ele>
        <time>2014-06-24T11:31:53Z</time>
      </trkpt>
      <trkpt lat="59.9495202" lon="17.716379">
        <ele>10.2312</ele>
        <time>2014-06-24T11:31:54Z</time>
      </trkpt>
      <trkpt lat="59.9495204" lon="17.7163851">
        <ele>9.75061</ele>
        <time>2014-06-24T11:31:55Z</time>
      </trkpt>
      <trkpt lat="59.9495255" lon="17.7163925">
        <ele>9.2699</ele>
        <time>2014-06-24T11:31:56Z</time>
      </trkpt>
      <trkpt lat="59.9495349" lon="17.7163918">
        <ele>8.78918</ele>
        <time>2014-06-24T11:31:57Z</time>
      </trkpt>
      <trkpt lat="59.9495494" lon="17.716385">
        <ele>8.30859</ele>
        <time>2014-06-24T11:31:58Z</time>
      </trkpt>
      <trkpt lat="59.9495659" lon="17.7163789">
        <ele>7.34717</ele>
        <time>2014-06-24T11:31:59Z</time>
      </trkpt>
      <trkpt lat="59.9495728" lon="17.7163859">
        <ele>9.2699</ele>
        <time>2014-06-24T11:32:00Z</time>
      </trkpt>
      <trkpt lat="59.9495846" lon="17.7163727">
        <ele>8.30859</ele>
        <time>2014-06-24T11:32:01Z</time>
      </trkpt>
      <trkpt lat="59.9495953" lon="17.7163613">
        <ele>10.2312</ele>
        <time>2014-06-24T11:32:02Z</time>
      </trkpt>
      <trkpt lat="59.9496061" lon="17.7163548">
        <ele>12.6344</ele>
        <time>2014-06-24T11:32:03Z</time>
      </trkpt>
      <trkpt lat="59.9496125" lon="17.7163561">
        <ele>14.557</ele>
        <time>2014-06-24T11:32:04Z</time>
      </trkpt>
      <trkpt lat="59.9496217" lon="17.7163599">
        <ele>16.4797</ele>
        <time>2014-06-24T11:32:05Z</time>
      </trkpt>
      <trkpt lat="59.9496336" lon="17.716349">
        <ele>17.9218</ele>
        <time>2014-06-24T11:32:06Z</time>
      </trkpt>
      <trkpt lat="59.9496469" lon="17.7163356">
        <ele>18.8831</ele>
        <time>2014-06-24T11:32:07Z</time>
      </trkpt>
      <trkpt lat="59.9496613" lon="17.71632">
        <ele>20.325</ele>
        <time>2014-06-24T11:32:08Z</time>
      </trkpt>
      <trkpt lat="59.9496773" lon="17.7163139">
        <ele>21.767</ele>
        <time>2014-06-24T11:32:09Z</time>
      </trkpt>
      <trkpt lat="59.9496954" lon="17.7162828">
        <ele>22.7283</ele>
        <time>2014-06-24T11:32:10Z</time>
      </trkpt>
      <trkpt lat="59.949712" lon="17.7162687">
        <ele>24.651</ele>
        <time>2014-06-24T11:32:11Z</time>
      </trkpt>
      <trkpt lat="59.9497322" lon="17.7162506">
        <ele>26.0929</ele>
        <time>2014-06-24T11:32:12Z</time>
      </trkpt>
      <trkpt lat="59.9497486" lon="17.7162271">
        <ele>27.5349</ele>
        <time>2014-06-24T11:32:13Z</time>
      </trkpt>
      <trkpt lat="59.9497654" lon="17.7162037">
        <ele>28.4962</ele>
        <time>2014-06-24T11:32:14Z</time>
      </trkpt>
      <trkpt lat="59.9497809" lon="17.7161817">
        <ele>29.9381</ele>
        <time>2014-06-24T11:32:15Z</time>
      </trkpt>
      <trkpt lat="59.9497953" lon="17.7161458">
        <ele>31.3801</ele>
        <time>2014-06-24T11:32:16Z</time>
      </trkpt>
      <trkpt lat="59.9498078" lon="17.7161102">
        <ele>32.8223</ele>
        <time>2014-06-24T11:32:17Z</time>
      </trkpt>
      <trkpt lat="59.9498168" lon="17.7160879">
        <ele>34.7449</ele>
        <time>2014-06-24T11:32:18Z</time>
      </trkpt>
      <trkpt lat="59.9498196" lon="17.7160666">
        <ele>35.7061</ele>
        <time>2014-06-24T11:32:19Z</time>
      </trkpt>
      <trkpt lat="59.9498161" lon="17.7160314">
        <ele>37.1481</ele>
        <time>2014-06-24T11:32:20Z</time>
      </trkpt>
      <trkpt lat="59.9498077" lon="17.7159974">
        <ele>38.1094</ele>
        <time>2014-06-24T11:32:21Z</time>
      </trkpt>
      <trkpt lat="59.9497996" lon="17.7159686">
        <ele>38.5901</ele>
        <time>2014-06-24T11:32:22Z</time>
      </trkpt>
      <trkpt lat="59.9497923" lon="17.7159454">
        <ele>39.0707</ele>
        <time>2014-06-24T11:32:23Z</time>
      </trkpt>
      <trkpt lat="59.9497815" lon="17.7159092">
        <ele>40.0321</ele>
        <time>2014-06-24T11:32:24Z</time>
      </trkpt>
      <trkpt lat="59.9497729" lon="17.7158765">
        <ele>40.9934</ele>
        <time>2014-06-24T11:32:25Z</time>
      </trkpt>
      <trkpt lat="59.9497639" lon="17.7158527">
        <ele>41.9547</ele>
        <time>2014-06-24T11:32:26Z</time>
      </trkpt>
      <trkpt lat="59.9497572" lon="17.7158485">
        <ele>43.8773</ele>
        <time>2014-06-24T11:32:27Z</time>
      </trkpt>
      <trkpt lat="59.949739" lon="17.7158398">
        <ele>45.3192</ele>
        <time>2014-06-24T11:32:28Z</time>
      </trkpt>
      <trkpt lat="59.9497193" lon="17.7158315">
        <ele>47.2418</ele>
        <time>2014-06-24T11:32:29Z</time>
      </trkpt>
      <trkpt lat="59.9496991" lon="17.7158165">
        <ele>49.1646</ele>
        <time>2014-06-24T11:32:30Z</time>
      </trkpt>
      <trkpt lat="59.9496789" lon="17.7158007">
        <ele>50.126</ele>
        <time>2014-06-24T11:32:31Z</time>
      </trkpt>
      <trkpt lat="59.949652" lon="17.7157699">
        <ele>51.5679</ele>
        <time>2014-06-24T11:32:32Z</time>
      </trkpt>
      <trkpt lat="59.9496235" lon="17.715736">
        <ele>53.0098</ele>
        <time>2014-06-24T11:32:33Z</time>
      </trkpt>
      <trkpt lat="59.9496092" lon="17.7157192">
        <ele>53.9712</ele>
        <time>2014-06-24T11:32:34Z</time>
      </trkpt>
      <trkpt lat="59.9496018" lon="17.715704">
        <ele>55.4131</ele>
        <time>2014-06-24T11:32:35Z</time>
      </trkpt>
      <trkpt lat="59.9495882" lon="17.7156822">
        <ele>56.3745</ele>
        <time>2014-06-24T11:32:36Z</time>
      </trkpt>
      <trkpt lat="59.9495764" lon="17.7156538">
        <ele>56.8551</ele>
        <time>2014-06-24T11:32:37Z</time>
      </trkpt>
      <trkpt lat="59.9495618" lon="17.7156252">
        <ele>56.8551</ele>
        <time>2014-06-24T11:32:38Z</time>
      </trkpt>
      <trkpt lat="59.94955" lon="17.7156015">
        <ele>56.8551</ele>
        <time>2014-06-24T11:32:39Z</time>
      </trkpt>
      <trkpt lat="59.9495376" lon="17.7155647">
        <ele>57.3358</ele>
        <time>2014-06-24T11:32:40Z</time>
      </trkpt>
      <trkpt lat="59.9495281" lon="17.7155293">
        <ele>56.8551</ele>
        <time>2014-06-24T11:32:41Z</time>
      </trkpt>
      <trkpt lat="59.9495203" lon="17.7155047">
        <ele>57.3358</ele>
        <time>2014-06-24T11:32:42Z</time>
      </trkpt>
      <trkpt lat="59.9495094" lon="17.715487">
        <ele>57.8165</ele>
        <time>2014-06-24T11:32:43Z</time>
      </trkpt>
      <trkpt lat="59.949497" lon="17.7154569">
        <ele>57.8165</ele>
        <time>2014-06-24T11:32:44Z</time>
      </trkpt>
      <trkpt lat="59.9494878" lon="17.7154228">
        <ele>57.8165</ele>
        <time>2014-06-24T11:32:45Z</time>
      </trkpt>
      <trkpt lat="59.9494751" lon="17.7153891">
        <ele>57.8165</ele>
        <time>2014-06-24T11:32:46Z</time>
      </trkpt>
      <trkpt lat="59.9494596" lon="17.7153597">
        <ele>57.8165</ele>
        <time>2014-06-24T11:32:47Z</time>
      </trkpt>
      <trkpt lat="59.9494442" lon="17.7153381">
        <ele>58.7777</ele>
        <time>2014-06-24T11:32:48Z</time>
      </trkpt>
      <trkpt lat="59.9494235" lon="17.7153207">
        <ele>59.7391</ele>
        <time>2014-06-24T11:32:49Z</time>
      </trkpt>
      <trkpt lat="59.9493929" lon="17.7152977">
        <ele>60.2197</ele>
        <time>2014-06-24T11:32:50Z</time>
      </trkpt>
      <trkpt lat="59.9493616" lon="17.7152772">
        <ele>60.2197</ele>
        <time>2014-06-24T11:32:51Z</time>
      </trkpt>
      <trkpt lat="59.9493277" lon="17.7152554">
        <ele>59.7391</ele>
        <time>2014-06-24T11:32:52Z</time>
      </trkpt>
      <trkpt lat="59.9492934" lon="17.7152363">
        <ele>59.7391</ele>
        <time>2014-06-24T11:32:53Z</time>
      </trkpt>
      <trkpt lat="59.949265" lon="17.7152128">
        <ele>59.2584</ele>
        <time>2014-06-24T11:32:54Z</time>
      </trkpt>
      <trkpt lat="59.9492396" lon="17.7151815">
        <ele>59.7391</ele>
        <time>2014-06-24T11:32:55Z</time>
      </trkpt>
      <trkpt lat="59.9492172" lon="17.715155">
        <ele>58.7777</ele>
        <time>2014-06-24T11:32:56Z</time>
      </trkpt>
      <trkpt lat="59.9491941" lon="17.7151318">
        <ele>57.8165</ele>
        <time>2014-06-24T11:32:57Z</time>
      </trkpt>
      <trkpt lat="59.9491723" lon="17.7151046">
        <ele>58.2971</ele>
        <time>2014-06-24T11:32:58Z</time>
      </trkpt>
      <trkpt lat="59.949148" lon="17.7150698">
        <ele>58.2971</ele>
        <time>2014-06-24T11:32:59Z</time>
      </trkpt>
      <trkpt lat="59.9491263" lon="17.71504">
        <ele>58.2971</ele>
        <time>2014-06-24T11:33:00Z</time>
      </trkpt>
      <trkpt lat="59.9491097" lon="17.7150045">
        <ele>57.3358</ele>
        <time>2014-06-24T11:33:01Z</time>
      </trkpt>
      <trkpt lat="59.949095" lon="17.7149589">
        <ele>56.3745</ele>
        <time>2014-06-24T11:33:02Z</time>
      </trkpt>
      <trkpt lat="59.9490841" lon="17.7149123">
        <ele>56.3745</ele>
        <time>2014-06-24T11:33:03Z</time>
      </trkpt>
      <trkpt lat="59.9490776" lon="17.7148685">
        <ele>55.4131</ele>
        <time>2014-06-24T11:33:04Z</time>
      </trkpt>
      <trkpt lat="59.949075" lon="17.7148312">
        <ele>55.4131</ele>
        <time>2014-06-24T11:33:05Z</time>
      </trkpt>
      <trkpt lat="59.9490718" lon="17.7147901">
        <ele>55.4131</ele>
        <time>2014-06-24T11:33:06Z</time>
      </trkpt>
      <trkpt lat="59.9490687" lon="17.7147344">
        <ele>55.8938</ele>
        <time>2014-06-24T11:33:07Z</time>
      </trkpt>
      <trkpt lat="59.9490651" lon="17.7146644">
        <ele>55.8938</ele>
        <time>2014-06-24T11:33:08Z</time>
      </trkpt>
      <trkpt lat="59.9490695" lon="17.7146077">
        <ele>55.8938</ele>
        <time>2014-06-24T11:33:09Z</time>
      </trkpt>
      <trkpt lat="59.9490769" lon="17.7145642">
        <ele>55.8938</ele>
        <time>2014-06-24T11:33:10Z</time>
      </trkpt>
      <trkpt lat="59.9490832" lon="17.7145233">
        <ele>56.3745</ele>
        <time>2014-06-24T11:33:11Z</time>
      </trkpt>
      <trkpt lat="59.9490898" lon="17.7144856">
        <ele>56.3745</ele>
        <time>2014-06-24T11:33:12Z</time>
      </trkpt>
      <trkpt lat="59.9490935" lon="17.7144472">
        <ele>56.3745</ele>
        <time>2014-06-24T11:33:13Z</time>
      </trkpt>
      <trkpt lat="59.9490939" lon="17.7144044">
        <ele>56.3745</ele>
        <time>2014-06-24T11:33:14Z</time>
      </trkpt>
      <trkpt lat="59.949093" lon="17.7143663">
        <ele>56.3745</ele>
        <time>2014-06-24T11:33:15Z</time>
      </trkpt>
      <trkpt lat="59.9490926" lon="17.7143282">
        <ele>56.8551</ele>
        <time>2014-06-24T11:33:16Z</time>
      </trkpt>
      <trkpt lat="59.94909" lon="17.7142914">
        <ele>56.8551</ele>
        <time>2014-06-24T11:33:17Z</time>
      </trkpt>
      <trkpt lat="59.9490847" lon="17.7142525">
        <ele>57.3358</ele>
        <time>2014-06-24T11:33:18Z</time>
      </trkpt>
      <trkpt lat="59.9490718" lon="17.7142138">
        <ele>58.2971</ele>
        <time>2014-06-24T11:33:19Z</time>
      </trkpt>
      <trkpt lat="59.9490603" lon="17.7141842">
        <ele>58.7777</ele>
        <time>2014-06-24T11:33:20Z</time>
      </trkpt>
      <trkpt lat="59.9490439" lon="17.71416">
        <ele>59.2584</ele>
        <time>2014-06-24T11:33:21Z</time>
      </trkpt>
      <trkpt lat="59.9490255" lon="17.7141403">
        <ele>59.2584</ele>
        <time>2014-06-24T11:33:22Z</time>
      </trkpt>
      <trkpt lat="59.949008" lon="17.7141365">
        <ele>59.7391</ele>
        <time>2014-06-24T11:33:23Z</time>
      </trkpt>
      <trkpt lat="59.9489905" lon="17.7141306">
        <ele>59.7391</ele>
        <time>2014-06-24T11:33:24Z</time>
      </trkpt>
      <trkpt lat="59.9489718" lon="17.7141136">
        <ele>59.7391</ele>
        <time>2014-06-24T11:33:25Z</time>
      </trkpt>
      <trkpt lat="59.9489486" lon="17.7140916">
        <ele>59.7391</ele>
        <time>2014-06-24T11:33:26Z</time>
      </trkpt>
      <trkpt lat="59.9489239" lon="17.7140722">
        <ele>60.2197</ele>
        <time>2014-06-24T11:33:27Z</time>
      </trkpt>
      <trkpt lat="59.9488985" lon="17.7140531">
        <ele>59.7391</ele>
        <time>2014-06-24T11:33:28Z</time>
      </trkpt>
      <trkpt lat="59.9488704" lon="17.7140309">
        <ele>59.7391</ele>
        <time>2014-06-24T11:33:29Z</time>
      </trkpt>
      <trkpt lat="59.948847" lon="17.7140053">
        <ele>59.7391</ele>
        <time>2014-06-24T11:33:30Z</time>
      </trkpt>
      <trkpt lat="59.9488232" lon="17.7139863">
        <ele>58.7777</ele>
        <time>2014-06-24T11:33:31Z</time>
      </trkpt>
      <trkpt lat="59.9487962" lon="17.713968">
        <ele>58.7777</ele>
        <time>2014-06-24T11:33:32Z</time>
      </trkpt>
      <trkpt lat="59.9487688" lon="17.7139499">
        <ele>57.8165</ele>
        <time>2014-06-24T11:33:33Z</time>
      </trkpt>
      <trkpt lat="59.9487443" lon="17.7139322">
        <ele>57.8165</ele>
        <time>2014-06-24T11:33:34Z</time>
      </trkpt>
      <trkpt lat="59.9487233" lon="17.7139159">
        <ele>57.8165</ele>
        <time>2014-06-24T11:33:35Z</time>
      </trkpt>
      <trkpt lat="59.9486978" lon="17.7139003">
        <ele>57.3358</ele>
        <time>2014-06-24T11:33:36Z</time>
      </trkpt>
      <trkpt lat="59.948673" lon="17.7138807">
        <ele>57.3358</ele>
        <time>2014-06-24T11:33:37Z</time>
      </trkpt>
      <trkpt lat="59.9486511" lon="17.7138536">
        <ele>57.8165</ele>
        <time>2014-06-24T11:33:38Z</time>
      </trkpt>
      <trkpt lat="59.9486268" lon="17.7138277">
        <ele>58.2971</ele>
        <time>2014-06-24T11:33:39Z</time>
      </trkpt>
      <trkpt lat="59.9486054" lon="17.7138033">
        <ele>57.8165</ele>
        <time>2014-06-24T11:33:40Z</time>
      </trkpt>
      <trkpt lat="59.9485885" lon="17.7137853">
        <ele>57.3358</ele>
        <time>2014-06-24T11:33:41Z</time>
      </trkpt>
      <trkpt lat="59.9485657" lon="17.7137632">
        <ele>56.8551</ele>
        <time>2014-06-24T11:33:42Z</time>
      </trkpt>
      <trkpt lat="59.948543" lon="17.7137511">
        <ele>56.3745</ele>
        <time>2014-06-24T11:33:43Z</time>
      </trkpt>
      <trkpt lat="59.9485243" lon="17.7137489">
        <ele>55.4131</ele>
        <time>2014-06-24T11:33:44Z</time>
      </trkpt>
      <trkpt lat="59.948502" lon="17.713745">
        <ele>54.9324</ele>
        <time>2014-06-24T11:33:45Z</time>
      </trkpt>
      <trkpt lat="59.9484808" lon="17.7137421">
        <ele>54.9324</ele>
        <time>2014-06-24T11:33:46Z</time>
      </trkpt>
      <trkpt lat="59.9484613" lon="17.7137465">
        <ele>54.4518</ele>
        <time>2014-06-24T11:33:47Z</time>
      </trkpt>
      <trkpt lat="59.9484404" lon="17.7137544">
        <ele>53.9712</ele>
        <time>2014-06-24T11:33:48Z</time>
      </trkpt>
      <trkpt lat="59.9484168" lon="17.7137603">
        <ele>53.4905</ele>
        <time>2014-06-24T11:33:49Z</time>
      </trkpt>
      <trkpt lat="59.9483956" lon="17.7137769">
        <ele>53.0098</ele>
        <time>2014-06-24T11:33:50Z</time>
      </trkpt>
      <trkpt lat="59.948376" lon="17.7137893">
        <ele>53.0098</ele>
        <time>2014-06-24T11:33:51Z</time>
      </trkpt>
      <trkpt lat="59.9483559" lon="17.7138035">
        <ele>52.5292</ele>
        <time>2014-06-24T11:33:52Z</time>
      </trkpt>
      <trkpt lat="59.9483404" lon="17.7138258">
        <ele>51.5679</ele>
        <time>2014-06-24T11:33:53Z</time>
      </trkpt>
      <trkpt lat="59.94833" lon="17.7138506">
        <ele>50.6066</ele>
        <time>2014-06-24T11:33:54Z</time>
      </trkpt>
      <trkpt lat="59.9483201" lon="17.7138744">
        <ele>50.126</ele>
        <time>2014-06-24T11:33:55Z</time>
      </trkpt>
      <trkpt lat="59.948306" lon="17.7138945">
        <ele>49.6453</ele>
        <time>2014-06-24T11:33:56Z</time>
      </trkpt>
      <trkpt lat="59.9482919" lon="17.7139194">
        <ele>49.1646</ele>
        <time>2014-06-24T11:33:57Z</time>
      </trkpt>
      <trkpt lat="59.9482813" lon="17.713961">
        <ele>48.2034</ele>
        <time>2014-06-24T11:33:58Z</time>
      </trkpt>
      <trkpt lat="59.9482698" lon="17.7140086">
        <ele>47.7225</ele>
        <time>2014-06-24T11:33:59Z</time>
      </trkpt>
      <trkpt lat="59.9482568" lon="17.71406">
        <ele>47.2418</ele>
        <time>2014-06-24T11:34:00Z</time>
      </trkpt>
      <trkpt lat="59.9482441" lon="17.7141161">
        <ele>45.7999</ele>
        <time>2014-06-24T11:34:01Z</time>
      </trkpt>
      <trkpt lat="59.9482325" lon="17.7141697">
        <ele>45.3192</ele>
        <time>2014-06-24T11:34:02Z</time>
      </trkpt>
      <trkpt lat="59.9482236" lon="17.714222">
        <ele>44.8386</ele>
        <time>2014-06-24T11:34:03Z</time>
      </trkpt>
      <trkpt lat="59.948217" lon="17.714269">
        <ele>44.358</ele>
        <time>2014-06-24T11:34:04Z</time>
      </trkpt>
      <trkpt lat="59.9482127" lon="17.7143166">
        <ele>43.3966</ele>
        <time>2014-06-24T11:34:05Z</time>
      </trkpt>
      <trkpt lat="59.9482058" lon="17.7143664">
        <ele>42.916</ele>
        <time>2014-06-24T11:34:06Z</time>
      </trkpt>
      <trkpt lat="59.9481977" lon="17.7144178">
        <ele>42.4354</ele>
        <time>2014-06-24T11:34:07Z</time>
      </trkpt>
      <trkpt lat="59.9481926" lon="17.7144699">
        <ele>42.4354</ele>
        <time>2014-06-24T11:34:08Z</time>
      </trkpt>
      <trkpt lat="59.9481842" lon="17.7145241">
        <ele>41.474</ele>
        <time>2014-06-24T11:34:09Z</time>
      </trkpt>
      <trkpt lat="59.9481731" lon="17.7145768">
        <ele>41.474</ele>
        <time>2014-06-24T11:34:10Z</time>
      </trkpt>
      <trkpt lat="59.9481653" lon="17.7146281">
        <ele>40.9934</ele>
        <time>2014-06-24T11:34:11Z</time>
      </trkpt>
      <trkpt lat="59.9481562" lon="17.7146787">
        <ele>40.5128</ele>
        <time>2014-06-24T11:34:12Z</time>
      </trkpt>
      <trkpt lat="59.9481466" lon="17.7147339">
        <ele>40.0321</ele>
        <time>2014-06-24T11:34:13Z</time>
      </trkpt>
      <trkpt lat="59.9481419" lon="17.7147845">
        <ele>40.0321</ele>
        <time>2014-06-24T11:34:14Z</time>
      </trkpt>
      <trkpt lat="59.9481356" lon="17.714839">
        <ele>40.0321</ele>
        <time>2014-06-24T11:34:15Z</time>
      </trkpt>
      <trkpt lat="59.9481239" lon="17.7148927">
        <ele>40.0321</ele>
        <time>2014-06-24T11:34:16Z</time>
      </trkpt>
      <trkpt lat="59.9481171" lon="17.7149431">
        <ele>40.0321</ele>
        <time>2014-06-24T11:34:17Z</time>
      </trkpt>
      <trkpt lat="59.9481098" lon="17.7149999">
        <ele>40.0321</ele>
        <time>2014-06-24T11:34:18Z</time>
      </trkpt>
      <trkpt lat="59.9481029" lon="17.7150482">
        <ele>40.5128</ele>
        <time>2014-06-24T11:34:19Z</time>
      </trkpt>
      <trkpt lat="59.9480925" lon="17.7150931">
        <ele>40.9934</ele>
        <time>2014-06-24T11:34:20Z</time>
      </trkpt>
      <trkpt lat="59.9480794" lon="17.7151368">
        <ele>40.9934</ele>
        <time>2014-06-24T11:34:21Z</time>
      </trkpt>
      <trkpt lat="59.9480756" lon="17.7151742">
        <ele>41.474</ele>
        <time>2014-06-24T11:34:22Z</time>
      </trkpt>
      <trkpt lat="59.9480606" lon="17.7152076">
        <ele>40.9934</ele>
        <time>2014-06-24T11:34:23Z</time>
      </trkpt>
      <trkpt lat="59.9480454" lon="17.7152394">
        <ele>39.0707</ele>
        <time>2014-06-24T11:34:24Z</time>
      </trkpt>
      <trkpt lat="59.9480342" lon="17.7152687">
        <ele>39.0707</ele>
        <time>2014-06-24T11:34:25Z</time>
      </trkpt>
      <trkpt lat="59.948019" lon="17.7152973">
        <ele>38.5901</ele>
        <time>2014-06-24T11:34:26Z</time>
      </trkpt>
      <trkpt lat="59.9480036" lon="17.7153273">
        <ele>39.0707</ele>
        <time>2014-06-24T11:34:27Z</time>
      </trkpt>
      <trkpt lat="59.9479885" lon="17.7153605">
        <ele>39.0707</ele>
        <time>2014-06-24T11:34:28Z</time>
      </trkpt>
      <trkpt lat="59.9479772" lon="17.7153951">
        <ele>38.5901</ele>
        <time>2014-06-24T11:34:29Z</time>
      </trkpt>
      <trkpt lat="59.9479632" lon="17.7154196">
        <ele>38.1094</ele>
        <time>2014-06-24T11:34:30Z</time>
      </trkpt>
      <trkpt lat="59.947946" lon="17.7154425">
        <ele>37.1481</ele>
        <time>2014-06-24T11:34:31Z</time>
      </trkpt>
      <trkpt lat="59.9479262" lon="17.7154669">
        <ele>37.1481</ele>
        <time>2014-06-24T11:34:32Z</time>
      </trkpt>
      <trkpt lat="59.9479021" lon="17.7154904">
        <ele>37.6287</ele>
        <time>2014-06-24T11:34:33Z</time>
      </trkpt>
      <trkpt lat="59.9478773" lon="17.7155132">
        <ele>37.6287</ele>
        <time>2014-06-24T11:34:34Z</time>
      </trkpt>
      <trkpt lat="59.9478587" lon="17.7155295">
        <ele>37.1481</ele>
        <time>2014-06-24T11:34:35Z</time>
      </trkpt>
      <trkpt lat="59.9478415" lon="17.7155436">
        <ele>37.1481</ele>
        <time>2014-06-24T11:34:36Z</time>
      </trkpt>
      <trkpt lat="59.9478193" lon="17.7155617">
        <ele>37.1481</ele>
        <time>2014-06-24T11:34:37Z</time>
      </trkpt>
      <trkpt lat="59.9477965" lon="17.7155759">
        <ele>37.6287</ele>
        <time>2014-06-24T11:34:38Z</time>
      </trkpt>
      <trkpt lat="59.947776" lon="17.7155926">
        <ele>37.6287</ele>
        <time>2014-06-24T11:34:39Z</time>
      </trkpt>
      <trkpt lat="59.9477579" lon="17.7156018">
        <ele>38.5901</ele>
        <time>2014-06-24T11:34:40Z</time>
      </trkpt>
      <trkpt lat="59.947742" lon="17.7156075">
        <ele>39.0707</ele>
        <time>2014-06-24T11:34:41Z</time>
      </trkpt>
      <trkpt lat="59.9477228" lon="17.7156148">
        <ele>39.0707</ele>
        <time>2014-06-24T11:34:42Z</time>
      </trkpt>
      <trkpt lat="59.9477006" lon="17.7156215">
        <ele>39.5513</ele>
        <time>2014-06-24T11:34:43Z</time>
      </trkpt>
      <trkpt lat="59.9476769" lon="17.7156196">
        <ele>40.5128</ele>
        <time>2014-06-24T11:34:44Z</time>
      </trkpt>
      <trkpt lat="59.9476483" lon="17.7156279">
        <ele>42.916</ele>
        <time>2014-06-24T11:34:45Z</time>
      </trkpt>
      <trkpt lat="59.9476198" lon="17.715631">
        <ele>45.3192</ele>
        <time>2014-06-24T11:34:46Z</time>
      </trkpt>
      <trkpt lat="59.9475948" lon="17.7156306">
        <ele>47.2418</ele>
        <time>2014-06-24T11:34:47Z</time>
      </trkpt>
      <trkpt lat="59.9475711" lon="17.715614">
        <ele>47.7225</ele>
        <time>2014-06-24T11:34:48Z</time>
      </trkpt>
      <trkpt lat="59.9475468" lon="17.7155916">
        <ele>48.684</ele>
        <time>2014-06-24T11:34:49Z</time>
      </trkpt>
      <trkpt lat="59.9475203" lon="17.7155708">
        <ele>49.6453</ele>
        <time>2014-06-24T11:34:50Z</time>
      </trkpt>
      <trkpt lat="59.9474955" lon="17.7155497">
        <ele>50.126</ele>
        <time>2014-06-24T11:34:51Z</time>
      </trkpt>
      <trkpt lat="59.9474747" lon="17.7155234">
        <ele>50.126</ele>
        <time>2014-06-24T11:34:52Z</time>
      </trkpt>
      <trkpt lat="59.9474524" lon="17.7154978">
        <ele>50.6066</ele>
        <time>2014-06-24T11:34:53Z</time>
      </trkpt>
      <trkpt lat="59.9474312" lon="17.7154782">
        <ele>51.0872</ele>
        <time>2014-06-24T11:34:54Z</time>
      </trkpt>
      <trkpt lat="59.9474118" lon="17.7154591">
        <ele>51.5679</ele>
        <time>2014-06-24T11:34:55Z</time>
      </trkpt>
      <trkpt lat="59.9473928" lon="17.7154366">
        <ele>52.0486</ele>
        <time>2014-06-24T11:34:56Z</time>
      </trkpt>
      <trkpt lat="59.9473749" lon="17.7154146">
        <ele>52.5292</ele>
        <time>2014-06-24T11:34:57Z</time>
      </trkpt>
      <trkpt lat="59.9473535" lon="17.7153961">
        <ele>52.5292</ele>
        <time>2014-06-24T11:34:58Z</time>
      </trkpt>
      <trkpt lat="59.9473317" lon="17.7153746">
        <ele>52.5292</ele>
        <time>2014-06-24T11:34:59Z</time>
      </trkpt>
      <trkpt lat="59.9473108" lon="17.7153457">
        <ele>52.5292</ele>
        <time>2014-06-24T11:35:00Z</time>
      </trkpt>
      <trkpt lat="59.9472893" lon="17.7153198">
        <ele>52.5292</ele>
        <time>2014-06-24T11:35:01Z</time>
      </trkpt>
      <trkpt lat="59.9472675" lon="17.715301">
        <ele>52.5292</ele>
        <time>2014-06-24T11:35:02Z</time>
      </trkpt>
      <trkpt lat="59.9472448" lon="17.7152843">
        <ele>53.0098</ele>
        <time>2014-06-24T11:35:03Z</time>
      </trkpt>
      <trkpt lat="59.947226" lon="17.7152606">
        <ele>53.0098</ele>
        <time>2014-06-24T11:35:04Z</time>
      </trkpt>
      <trkpt lat="59.9472095" lon="17.7152327">
        <ele>53.0098</ele>
        <time>2014-06-24T11:35:05Z</time>
      </trkpt>
      <trkpt lat="59.9471929" lon="17.7152031">
        <ele>53.0098</ele>
        <time>2014-06-24T11:35:06Z</time>
      </trkpt>
      <trkpt lat="59.9471791" lon="17.7151731">
        <ele>53.0098</ele>
        <time>2014-06-24T11:35:07Z</time>
      </trkpt>
      <trkpt lat="59.9471659" lon="17.7151371">
        <ele>53.4905</ele>
        <time>2014-06-24T11:35:08Z</time>
      </trkpt>
      <trkpt lat="59.9471541" lon="17.7150943">
        <ele>53.9712</ele>
        <time>2014-06-24T11:35:09Z</time>
      </trkpt>
      <trkpt lat="59.9471448" lon="17.7150502">
        <ele>54.9324</ele>
        <time>2014-06-24T11:35:10Z</time>
      </trkpt>
      <trkpt lat="59.9471374" lon="17.7150111">
        <ele>54.9324</ele>
        <time>2014-06-24T11:35:11Z</time>
      </trkpt>
      <trkpt lat="59.9471313" lon="17.714967">
        <ele>54.4518</ele>
        <time>2014-06-24T11:35:12Z</time>
      </trkpt>
      <trkpt lat="59.9471273" lon="17.714923">
        <ele>54.4518</ele>
        <time>2014-06-24T11:35:13Z</time>
      </trkpt>
      <trkpt lat="59.947124" lon="17.7148825">
        <ele>53.9712</ele>
        <time>2014-06-24T11:35:14Z</time>
      </trkpt>
      <trkpt lat="59.947125" lon="17.7148421">
        <ele>53.9712</ele>
        <time>2014-06-24T11:35:15Z</time>
      </trkpt>
      <trkpt lat="59.9471312" lon="17.7148036">
        <ele>53.9712</ele>
        <time>2014-06-24T11:35:16Z</time>
      </trkpt>
      <trkpt lat="59.9471347" lon="17.7147634">
        <ele>53.0098</ele>
        <time>2014-06-24T11:35:17Z</time>
      </trkpt>
      <trkpt lat="59.947135" lon="17.7147163">
        <ele>52.5292</ele>
        <time>2014-06-24T11:35:18Z</time>
      </trkpt>
      <trkpt lat="59.9471386" lon="17.7146758">
        <ele>52.5292</ele>
        <time>2014-06-24T11:35:19Z</time>
      </trkpt>
      <trkpt lat="59.9471469" lon="17.7146458">
        <ele>52.0486</ele>
        <time>2014-06-24T11:35:20Z</time>
      </trkpt>
      <trkpt lat="59.9471582" lon="17.7146064">
        <ele>51.5679</ele>
        <time>2014-06-24T11:35:21Z</time>
      </trkpt>
      <trkpt lat="59.947168" lon="17.7145585">
        <ele>51.5679</ele>
        <time>2014-06-24T11:35:22Z</time>
      </trkpt>
      <trkpt lat="59.9471759" lon="17.7145109">
        <ele>51.5679</ele>
        <time>2014-06-24T11:35:23Z</time>
      </trkpt>
      <trkpt lat="59.9471836" lon="17.7144648">
        <ele>51.5679</ele>
        <time>2014-06-24T11:35:24Z</time>
      </trkpt>
      <trkpt lat="59.947196" lon="17.7144307">
        <ele>51.5679</ele>
        <time>2014-06-24T11:35:25Z</time>
      </trkpt>
      <trkpt lat="59.9472137" lon="17.7143948">
        <ele>51.5679</ele>
        <time>2014-06-24T11:35:26Z</time>
      </trkpt>
      <trkpt lat="59.9472327" lon="17.7143615">
        <ele>51.5679</ele>
        <time>2014-06-24T11:35:27Z</time>
      </trkpt>
      <trkpt lat="59.947244" lon="17.7143339">
        <ele>52.0486</ele>
        <time>2014-06-24T11:35:28Z</time>
      </trkpt>
      <trkpt lat="59.9472572" lon="17.7143019">
        <ele>52.5292</ele>
        <time>2014-06-24T11:35:29Z</time>
      </trkpt>
      <trkpt lat="59.9472743" lon="17.7142717">
        <ele>52.5292</ele>
        <time>2014-06-24T11:35:30Z</time>
      </trkpt>
      <trkpt lat="59.9472945" lon="17.7142418">
        <ele>53.0098</ele>
        <time>2014-06-24T11:35:31Z</time>
      </trkpt>
      <trkpt lat="59.9473136" lon="17.7142029">
        <ele>53.0098</ele>
        <time>2014-06-24T11:35:32Z</time>
      </trkpt>
      <trkpt lat="59.9473288" lon="17.7141599">
        <ele>53.0098</ele>
        <time>2014-06-24T11:35:33Z</time>
      </trkpt>
      <trkpt lat="59.9473463" lon="17.7141226">
        <ele>53.4905</ele>
        <time>2014-06-24T11:35:34Z</time>
      </trkpt>
      <trkpt lat="59.947354" lon="17.7140858">
        <ele>53.9712</ele>
        <time>2014-06-24T11:35:35Z</time>
      </trkpt>
      <trkpt lat="59.9473461" lon="17.7140531">
        <ele>53.9712</ele>
        <time>2014-06-24T11:35:36Z</time>
      </trkpt>
      <trkpt lat="59.9473279" lon="17.7140152">
        <ele>53.9712</ele>
        <time>2014-06-24T11:35:37Z</time>
      </trkpt>
      <trkpt lat="59.947323" lon="17.7139613">
        <ele>53.4905</ele>
        <time>2014-06-24T11:35:38Z</time>
      </trkpt>
      <trkpt lat="59.9473329" lon="17.713905">
        <ele>53.4905</ele>
        <time>2014-06-24T11:35:39Z</time>
      </trkpt>
      <trkpt lat="59.9473495" lon="17.7138486">
        <ele>53.4905</ele>
        <time>2014-06-24T11:35:40Z</time>
      </trkpt>
      <trkpt lat="59.9473663" lon="17.713795">
        <ele>53.9712</ele>
        <time>2014-06-24T11:35:41Z</time>
      </trkpt>
      <trkpt lat="59.947383" lon="17.7137528">
        <ele>54.4518</ele>
        <time>2014-06-24T11:35:42Z</time>
      </trkpt>
      <trkpt lat="59.947406" lon="17.7137164">
        <ele>54.4518</ele>
        <time>2014-06-24T11:35:43Z</time>
      </trkpt>
      <trkpt lat="59.9474302" lon="17.7136766">
        <ele>53.9712</ele>
        <time>2014-06-24T11:35:44Z</time>
      </trkpt>
      <trkpt lat="59.9474458" lon="17.7136344">
        <ele>53.9712</ele>
        <time>2014-06-24T11:35:45Z</time>
      </trkpt>
      <trkpt lat="59.9474577" lon="17.7135946">
        <ele>53.9712</ele>
        <time>2014-06-24T11:35:46Z</time>
      </trkpt>
      <trkpt lat="59.947469" lon="17.7135537">
        <ele>53.4905</ele>
        <time>2014-06-24T11:35:47Z</time>
      </trkpt>
      <trkpt lat="59.9474831" lon="17.7135154">
        <ele>53.0098</ele>
        <time>2014-06-24T11:35:48Z</time>
      </trkpt>
      <trkpt lat="59.9474954" lon="17.7134729">
        <ele>53.0098</ele>
        <time>2014-06-24T11:35:49Z</time>
      </trkpt>
      <trkpt lat="59.9475075" lon="17.7134383">
        <ele>52.5292</ele>
        <time>2014-06-24T11:35:50Z</time>
      </trkpt>
      <trkpt lat="59.9475204" lon="17.7134023">
        <ele>52.0486</ele>
        <time>2014-06-24T11:35:51Z</time>
      </trkpt>
      <trkpt lat="59.9475349" lon="17.7133684">
        <ele>52.0486</ele>
        <time>2014-06-24T11:35:52Z</time>
      </trkpt>
      <trkpt lat="59.9475462" lon="17.71333">
        <ele>51.5679</ele>
        <time>2014-06-24T11:35:53Z</time>
      </trkpt>
      <trkpt lat="59.9475596" lon="17.7132943">
        <ele>51.0872</ele>
        <time>2014-06-24T11:35:54Z</time>
      </trkpt>
      <trkpt lat="59.9475717" lon="17.7132641">
        <ele>51.0872</ele>
        <time>2014-06-24T11:35:55Z</time>
      </trkpt>
      <trkpt lat="59.9475846" lon="17.7132357">
        <ele>51.0872</ele>
        <time>2014-06-24T11:35:56Z</time>
      </trkpt>
      <trkpt lat="59.9475973" lon="17.7132051">
        <ele>51.0872</ele>
        <time>2014-06-24T11:35:57Z</time>
      </trkpt>
      <trkpt lat="59.9476103" lon="17.7131716">
        <ele>50.6066</ele>
        <time>2014-06-24T11:35:58Z</time>
      </trkpt>
      <trkpt lat="59.9476229" lon="17.7131361">
        <ele>50.6066</ele>
        <time>2014-06-24T11:35:59Z</time>
      </trkpt>
      <trkpt lat="59.9476337" lon="17.7130943">
        <ele>51.0872</ele>
        <time>2014-06-24T11:36:00Z</time>
      </trkpt>
      <trkpt lat="59.947647" lon="17.7130656">
        <ele>51.0872</ele>
        <time>2014-06-24T11:36:01Z</time>
      </trkpt>
      <trkpt lat="59.9476615" lon="17.7130357">
        <ele>51.0872</ele>
        <time>2014-06-24T11:36:02Z</time>
      </trkpt>
      <trkpt lat="59.9476813" lon="17.7130062">
        <ele>51.0872</ele>
        <time>2014-06-24T11:36:03Z</time>
      </trkpt>
      <trkpt lat="59.9477011" lon="17.7129734">
        <ele>51.5679</ele>
        <time>2014-06-24T11:36:04Z</time>
      </trkpt>
      <trkpt lat="59.9477151" lon="17.712933">
        <ele>52.0486</ele>
        <time>2014-06-24T11:36:05Z</time>
      </trkpt>
      <trkpt lat="59.947729" lon="17.7128871">
        <ele>52.5292</ele>
        <time>2014-06-24T11:36:06Z</time>
      </trkpt>
      <trkpt lat="59.9477451" lon="17.7128431">
        <ele>53.0098</ele>
        <time>2014-06-24T11:36:07Z</time>
      </trkpt>
      <trkpt lat="59.947761" lon="17.7128051">
        <ele>53.4905</ele>
        <time>2014-06-24T11:36:08Z</time>
      </trkpt>
      <trkpt lat="59.9477784" lon="17.7127667">
        <ele>53.4905</ele>
        <time>2014-06-24T11:36:09Z</time>
      </trkpt>
      <trkpt lat="59.9477957" lon="17.7127296">
        <ele>53.4905</ele>
        <time>2014-06-24T11:36:10Z</time>
      </trkpt>
      <trkpt lat="59.947813" lon="17.7126939">
        <ele>53.9712</ele>
        <time>2014-06-24T11:36:11Z</time>
      </trkpt>
      <trkpt lat="59.9478351" lon="17.7126574">
        <ele>53.9712</ele>
        <time>2014-06-24T11:36:12Z</time>
      </trkpt>
      <trkpt lat="59.9478543" lon="17.7126213">
        <ele>53.9712</ele>
        <time>2014-06-24T11:36:13Z</time>
      </trkpt>
      <trkpt lat="59.9478672" lon="17.7125803">
        <ele>53.4905</ele>
        <time>2014-06-24T11:36:14Z</time>
      </trkpt>
      <trkpt lat="59.9478824" lon="17.7125401">
        <ele>53.4905</ele>
        <time>2014-06-24T11:36:15Z</time>
      </trkpt>
      <trkpt lat="59.9478988" lon="17.7125048">
        <ele>53.4905</ele>
        <time>2014-06-24T11:36:16Z</time>
      </trkpt>
      <trkpt lat="59.9479134" lon="17.7124656">
        <ele>53.0098</ele>
        <time>2014-06-24T11:36:17Z</time>
      </trkpt>
      <trkpt lat="59.9479278" lon="17.712421">
        <ele>53.4905</ele>
        <time>2014-06-24T11:36:18Z</time>
      </trkpt>
      <trkpt lat="59.9479451" lon="17.712381">
        <ele>53.9712</ele>
        <time>2014-06-24T11:36:19Z</time>
      </trkpt>
      <trkpt lat="59.947963" lon="17.7123458">
        <ele>54.4518</ele>
        <time>2014-06-24T11:36:20Z</time>
      </trkpt>
      <trkpt lat="59.9479796" lon="17.7123104">
        <ele>54.4518</ele>
        <time>2014-06-24T11:36:21Z</time>
      </trkpt>
      <trkpt lat="59.9479963" lon="17.712272">
        <ele>54.4518</ele>
        <time>2014-06-24T11:36:22Z</time>
      </trkpt>
      <trkpt lat="59.9480105" lon="17.7122349">
        <ele>54.4518</ele>
        <time>2014-06-24T11:36:23Z</time>
      </trkpt>
      <trkpt lat="59.9480264" lon="17.7121981">
        <ele>54.4518</ele>
        <time>2014-06-24T11:36:24Z</time>
      </trkpt>
      <trkpt lat="59.9480435" lon="17.712155">
        <ele>54.9324</ele>
        <time>2014-06-24T11:36:25Z</time>
      </trkpt>
      <trkpt lat="59.948059" lon="17.7121185">
        <ele>55.8938</ele>
        <time>2014-06-24T11:36:26Z</time>
      </trkpt>
      <trkpt lat="59.948072" lon="17.7120778">
        <ele>55.8938</ele>
        <time>2014-06-24T11:36:27Z</time>
      </trkpt>
      <trkpt lat="59.948086" lon="17.7120337">
        <ele>56.3745</ele>
        <time>2014-06-24T11:36:28Z</time>
      </trkpt>
      <trkpt lat="59.9481046" lon="17.7119909">
        <ele>56.8551</ele>
        <time>2014-06-24T11:36:29Z</time>
      </trkpt>
      <trkpt lat="59.9481224" lon="17.711949">
        <ele>57.3358</ele>
        <time>2014-06-24T11:36:30Z</time>
      </trkpt>
      <trkpt lat="59.948134" lon="17.7119094">
        <ele>57.3358</ele>
        <time>2014-06-24T11:36:31Z</time>
      </trkpt>
      <trkpt lat="59.9481456" lon="17.7118681">
        <ele>57.3358</ele>
        <time>2014-06-24T11:36:32Z</time>
      </trkpt>
      <trkpt lat="59.948157" lon="17.7118318">
        <ele>56.8551</ele>
        <time>2014-06-24T11:36:33Z</time>
      </trkpt>
      <trkpt lat="59.9481711" lon="17.7117901">
        <ele>56.8551</ele>
        <time>2014-06-24T11:36:34Z</time>
      </trkpt>
      <trkpt lat="59.9481901" lon="17.71175">
        <ele>56.8551</ele>
        <time>2014-06-24T11:36:35Z</time>
      </trkpt>
      <trkpt lat="59.9482072" lon="17.7117198">
        <ele>56.8551</ele>
        <time>2014-06-24T11:36:36Z</time>
      </trkpt>
      <trkpt lat="59.9482227" lon="17.7116807">
        <ele>57.3358</ele>
        <time>2014-06-24T11:36:37Z</time>
      </trkpt>
      <trkpt lat="59.9482414" lon="17.711646">
        <ele>57.8165</ele>
        <time>2014-06-24T11:36:38Z</time>
      </trkpt>
      <trkpt lat="59.9482638" lon="17.7116189">
        <ele>58.2971</ele>
        <time>2014-06-24T11:36:39Z</time>
      </trkpt>
      <trkpt lat="59.948288" lon="17.711589">
        <ele>58.7777</ele>
        <time>2014-06-24T11:36:40Z</time>
      </trkpt>
      <trkpt lat="59.9483108" lon="17.7115561">
        <ele>58.7777</ele>
        <time>2014-06-24T11:36:41Z</time>
      </trkpt>
      <trkpt lat="59.9483293" lon="17.7115212">
        <ele>58.7777</ele>
        <time>2014-06-24T11:36:42Z</time>
      </trkpt>
      <trkpt lat="59.9483464" lon="17.7114997">
        <ele>57.3358</ele>
        <time>2014-06-24T11:36:43Z</time>
      </trkpt>
      <trkpt lat="59.9483589" lon="17.711474">
        <ele>56.3745</ele>
        <time>2014-06-24T11:36:44Z</time>
      </trkpt>
      <trkpt lat="59.9483724" lon="17.7114476">
        <ele>55.4131</ele>
        <time>2014-06-24T11:36:45Z</time>
      </trkpt>
      <trkpt lat="59.9483862" lon="17.7114213">
        <ele>54.9324</ele>
        <time>2014-06-24T11:36:46Z</time>
      </trkpt>
      <trkpt lat="59.9484029" lon="17.7113798">
        <ele>54.9324</ele>
        <time>2014-06-24T11:36:47Z</time>
      </trkpt>
      <trkpt lat="59.9484185" lon="17.7113335">
        <ele>54.4518</ele>
        <time>2014-06-24T11:36:48Z</time>
      </trkpt>
      <trkpt lat="59.9484342" lon="17.7112891">
        <ele>54.9324</ele>
        <time>2014-06-24T11:36:49Z</time>
      </trkpt>
      <trkpt lat="59.9484463" lon="17.7112518">
        <ele>54.9324</ele>
        <time>2014-06-24T11:36:50Z</time>
      </trkpt>
      <trkpt lat="59.9484598" lon="17.7112102">
        <ele>54.9324</ele>
        <time>2014-06-24T11:36:51Z</time>
      </trkpt>
      <trkpt lat="59.9484755" lon="17.7111695">
        <ele>54.9324</ele>
        <time>2014-06-24T11:36:52Z</time>
      </trkpt>
      <trkpt lat="59.9484909" lon="17.7111221">
        <ele>54.9324</ele>
        <time>2014-06-24T11:36:53Z</time>
      </trkpt>
      <trkpt lat="59.9485082" lon="17.7110744">
        <ele>54.4518</ele>
        <time>2014-06-24T11:36:54Z</time>
      </trkpt>
      <trkpt lat="59.9485256" lon="17.7110219">
        <ele>54.4518</ele>
        <time>2014-06-24T11:36:55Z</time>
      </trkpt>
      <trkpt lat="59.9485378" lon="17.7109762">
        <ele>54.4518</ele>
        <time>2014-06-24T11:36:56Z</time>
      </trkpt>
      <trkpt lat="59.948552" lon="17.7109328">
        <ele>54.4518</ele>
        <time>2014-06-24T11:36:57Z</time>
      </trkpt>
      <trkpt lat="59.9485651" lon="17.7108813">
        <ele>54.4518</ele>
        <time>2014-06-24T11:36:58Z</time>
      </trkpt>
      <trkpt lat="59.9485734" lon="17.7108283">
        <ele>54.4518</ele>
        <time>2014-06-24T11:36:59Z</time>
      </trkpt>
      <trkpt lat="59.9485806" lon="17.7107757">
        <ele>54.9324</ele>
        <time>2014-06-24T11:37:00Z</time>
      </trkpt>
      <trkpt lat="59.9485917" lon="17.7107237">
        <ele>55.4131</ele>
        <time>2014-06-24T11:37:01Z</time>
      </trkpt>
      <trkpt lat="59.9486087" lon="17.7106848">
        <ele>54.9324</ele>
        <time>2014-06-24T11:37:02Z</time>
      </trkpt>
      <trkpt lat="59.9486232" lon="17.7106434">
        <ele>54.9324</ele>
        <time>2014-06-24T11:37:03Z</time>
      </trkpt>
      <trkpt lat="59.9486375" lon="17.7106053">
        <ele>54.9324</ele>
        <time>2014-06-24T11:37:04Z</time>
      </trkpt>
      <trkpt lat="59.9486537" lon="17.710568">
        <ele>55.4131</ele>
        <time>2014-06-24T11:37:05Z</time>
      </trkpt>
      <trkpt lat="59.9486672" lon="17.7105291">
        <ele>54.9324</ele>
        <time>2014-06-24T11:37:06Z</time>
      </trkpt>
      <trkpt lat="59.9486842" lon="17.7104892">
        <ele>54.9324</ele>
        <time>2014-06-24T11:37:07Z</time>
      </trkpt>
      <trkpt lat="59.9487002" lon="17.7104495">
        <ele>54.9324</ele>
        <time>2014-06-24T11:37:08Z</time>
      </trkpt>
      <trkpt lat="59.9487141" lon="17.7104068">
        <ele>54.4518</ele>
        <time>2014-06-24T11:37:09Z</time>
      </trkpt>
      <trkpt lat="59.9487299" lon="17.7103639">
        <ele>54.4518</ele>
        <time>2014-06-24T11:37:10Z</time>
      </trkpt>
      <trkpt lat="59.9487442" lon="17.7103224">
        <ele>54.4518</ele>
        <time>2014-06-24T11:37:11Z</time>
      </trkpt>
      <trkpt lat="59.9487593" lon="17.7102784">
        <ele>54.4518</ele>
        <time>2014-06-24T11:37:12Z</time>
      </trkpt>
      <trkpt lat="59.9487743" lon="17.7102401">
        <ele>53.9712</ele>
        <time>2014-06-24T11:37:13Z</time>
      </trkpt>
      <trkpt lat="59.9487896" lon="17.7102046">
        <ele>53.4905</ele>
        <time>2014-06-24T11:37:14Z</time>
      </trkpt>
      <trkpt lat="59.9488055" lon="17.7101619">
        <ele>53.4905</ele>
        <time>2014-06-24T11:37:15Z</time>
      </trkpt>
      <trkpt lat="59.9488201" lon="17.7101137">
        <ele>53.9712</ele>
        <time>2014-06-24T11:37:16Z</time>
      </trkpt>
      <trkpt lat="59.9488353" lon="17.7100718">
        <ele>53.4905</ele>
        <time>2014-06-24T11:37:17Z</time>
      </trkpt>
      <trkpt lat="59.9488521" lon="17.7100355">
        <ele>53.4905</ele>
        <time>2014-06-24T11:37:18Z</time>
      </trkpt>
      <trkpt lat="59.9488678" lon="17.7100012">
        <ele>53.0098</ele>
        <time>2014-06-24T11:37:19Z</time>
      </trkpt>
      <trkpt lat="59.9488846" lon="17.7099666">
        <ele>53.0098</ele>
        <time>2014-06-24T11:37:20Z</time>
      </trkpt>
      <trkpt lat="59.9489004" lon="17.7099303">
        <ele>52.0486</ele>
        <time>2014-06-24T11:37:21Z</time>
      </trkpt>
      <trkpt lat="59.9489182" lon="17.7098985">
        <ele>52.0486</ele>
        <time>2014-06-24T11:37:22Z</time>
      </trkpt>
      <trkpt lat="59.948935" lon="17.7098602">
        <ele>52.0486</ele>
        <time>2014-06-24T11:37:23Z</time>
      </trkpt>
      <trkpt lat="59.9489535" lon="17.7098241">
        <ele>52.0486</ele>
        <time>2014-06-24T11:37:24Z</time>
      </trkpt>
      <trkpt lat="59.9489671" lon="17.7097863">
        <ele>52.0486</ele>
        <time>2014-06-24T11:37:25Z</time>
      </trkpt>
      <trkpt lat="59.9489806" lon="17.709745">
        <ele>51.5679</ele>
        <time>2014-06-24T11:37:26Z</time>
      </trkpt>
      <trkpt lat="59.9489972" lon="17.7097046">
        <ele>52.0486</ele>
        <time>2014-06-24T11:37:27Z</time>
      </trkpt>
      <trkpt lat="59.9490126" lon="17.7096717">
        <ele>51.5679</ele>
        <time>2014-06-24T11:37:28Z</time>
      </trkpt>
      <trkpt lat="59.9490303" lon="17.709634">
        <ele>51.5679</ele>
        <time>2014-06-24T11:37:29Z</time>
      </trkpt>
      <trkpt lat="59.9490453" lon="17.709596">
        <ele>50.6066</ele>
        <time>2014-06-24T11:37:30Z</time>
      </trkpt>
      <trkpt lat="59.949063" lon="17.7095548">
        <ele>50.6066</ele>
        <time>2014-06-24T11:37:31Z</time>
      </trkpt>
      <trkpt lat="59.9490795" lon="17.7095169">
        <ele>50.126</ele>
        <time>2014-06-24T11:37:32Z</time>
      </trkpt>
      <trkpt lat="59.9490969" lon="17.7094805">
        <ele>50.126</ele>
        <time>2014-06-24T11:37:33Z</time>
      </trkpt>
      <trkpt lat="59.9491107" lon="17.7094401">
        <ele>50.126</ele>
        <time>2014-06-24T11:37:34Z</time>
      </trkpt>
      <trkpt lat="59.9491267" lon="17.7093999">
        <ele>50.126</ele>
        <time>2014-06-24T11:37:35Z</time>
      </trkpt>
      <trkpt lat="59.9491423" lon="17.7093605">
        <ele>50.6066</ele>
        <time>2014-06-24T11:37:36Z</time>
      </trkpt>
      <trkpt lat="59.9491566" lon="17.7093185">
        <ele>50.6066</ele>
        <time>2014-06-24T11:37:37Z</time>
      </trkpt>
      <trkpt lat="59.9491713" lon="17.7092757">
        <ele>50.6066</ele>
        <time>2014-06-24T11:37:38Z</time>
      </trkpt>
      <trkpt lat="59.9491863" lon="17.7092341">
        <ele>50.126</ele>
        <time>2014-06-24T11:37:39Z</time>
      </trkpt>
      <trkpt lat="59.9492002" lon="17.7091945">
        <ele>49.6453</ele>
        <time>2014-06-24T11:37:40Z</time>
      </trkpt>
      <trkpt lat="59.949211" lon="17.7091531">
        <ele>49.6453</ele>
        <time>2014-06-24T11:37:41Z</time>
      </trkpt>
      <trkpt lat="59.9492194" lon="17.7091119">
        <ele>50.126</ele>
        <time>2014-06-24T11:37:42Z</time>
      </trkpt>
      <trkpt lat="59.9492256" lon="17.709064">
        <ele>50.126</ele>
        <time>2014-06-24T11:37:43Z</time>
      </trkpt>
      <trkpt lat="59.9492334" lon="17.709003">
        <ele>49.1646</ele>
        <time>2014-06-24T11:37:44Z</time>
      </trkpt>
      <trkpt lat="59.9492453" lon="17.7089533">
        <ele>49.6453</ele>
        <time>2014-06-24T11:37:45Z</time>
      </trkpt>
      <trkpt lat="59.9492619" lon="17.7089187">
        <ele>49.6453</ele>
        <time>2014-06-24T11:37:46Z</time>
      </trkpt>
      <trkpt lat="59.9492796" lon="17.7088881">
        <ele>49.6453</ele>
        <time>2014-06-24T11:37:47Z</time>
      </trkpt>
      <trkpt lat="59.9492939" lon="17.7088508">
        <ele>49.1646</ele>
        <time>2014-06-24T11:37:48Z</time>
      </trkpt>
      <trkpt lat="59.9493111" lon="17.7088135">
        <ele>49.1646</ele>
        <time>2014-06-24T11:37:49Z</time>
      </trkpt>
      <trkpt lat="59.9493257" lon="17.7087711">
        <ele>49.1646</ele>
        <time>2014-06-24T11:37:50Z</time>
      </trkpt>
      <trkpt lat="59.9493364" lon="17.7087283">
        <ele>49.6453</ele>
        <time>2014-06-24T11:37:51Z</time>
      </trkpt>
      <trkpt lat="59.949348" lon="17.7086822">
        <ele>49.6453</ele>
        <time>2014-06-24T11:37:52Z</time>
      </trkpt>
      <trkpt lat="59.9493598" lon="17.708638">
        <ele>49.6453</ele>
        <time>2014-06-24T11:37:53Z</time>
      </trkpt>
      <trkpt lat="59.9493702" lon="17.7085835">
        <ele>50.126</ele>
        <time>2014-06-24T11:37:54Z</time>
      </trkpt>
      <trkpt lat="59.9493819" lon="17.7085352">
        <ele>50.126</ele>
        <time>2014-06-24T11:37:55Z</time>
      </trkpt>
      <trkpt lat="59.9493941" lon="17.7084908">
        <ele>50.126</ele>
        <time>2014-06-24T11:37:56Z</time>
      </trkpt>
      <trkpt lat="59.9494088" lon="17.708445">
        <ele>50.6066</ele>
        <time>2014-06-24T11:37:57Z</time>
      </trkpt>
      <trkpt lat="59.9494218" lon="17.7084053">
        <ele>50.6066</ele>
        <time>2014-06-24T11:37:58Z</time>
      </trkpt>
      <trkpt lat="59.9494336" lon="17.7083716">
        <ele>50.6066</ele>
        <time>2014-06-24T11:37:59Z</time>
      </trkpt>
      <trkpt lat="59.9494483" lon="17.7083348">
        <ele>51.0872</ele>
        <time>2014-06-24T11:38:00Z</time>
      </trkpt>
      <trkpt lat="59.9494634" lon="17.7083022">
        <ele>51.0872</ele>
        <time>2014-06-24T11:38:01Z</time>
      </trkpt>
      <trkpt lat="59.9494778" lon="17.7082675">
        <ele>51.0872</ele>
        <time>2014-06-24T11:38:02Z</time>
      </trkpt>
      <trkpt lat="59.9494919" lon="17.7082324">
        <ele>50.6066</ele>
        <time>2014-06-24T11:38:03Z</time>
      </trkpt>
      <trkpt lat="59.9495059" lon="17.7081934">
        <ele>50.6066</ele>
        <time>2014-06-24T11:38:04Z</time>
      </trkpt>
      <trkpt lat="59.9495208" lon="17.7081525">
        <ele>51.0872</ele>
        <time>2014-06-24T11:38:05Z</time>
      </trkpt>
      <trkpt lat="59.9495368" lon="17.7081188">
        <ele>50.6066</ele>
        <time>2014-06-24T11:38:06Z</time>
      </trkpt>
      <trkpt lat="59.9495535" lon="17.7080832">
        <ele>50.6066</ele>
        <time>2014-06-24T11:38:07Z</time>
      </trkpt>
      <trkpt lat="59.9495745" lon="17.7080452">
        <ele>50.6066</ele>
        <time>2014-06-24T11:38:08Z</time>
      </trkpt>
      <trkpt lat="59.949596" lon="17.7080121">
        <ele>50.6066</ele>
        <time>2014-06-24T11:38:09Z</time>
      </trkpt>
      <trkpt lat="59.9496171" lon="17.7079878">
        <ele>50.126</ele>
        <time>2014-06-24T11:38:10Z</time>
      </trkpt>
      <trkpt lat="59.9496385" lon="17.7079641">
        <ele>49.6453</ele>
        <time>2014-06-24T11:38:11Z</time>
      </trkpt>
      <trkpt lat="59.9496569" lon="17.7079316">
        <ele>50.126</ele>
        <time>2014-06-24T11:38:12Z</time>
      </trkpt>
      <trkpt lat="59.9496742" lon="17.7079093">
        <ele>49.1646</ele>
        <time>2014-06-24T11:38:13Z</time>
      </trkpt>
      <trkpt lat="59.949693" lon="17.7078829">
        <ele>49.1646</ele>
        <time>2014-06-24T11:38:14Z</time>
      </trkpt>
      <trkpt lat="59.949709" lon="17.7078503">
        <ele>49.1646</ele>
        <time>2014-06-24T11:38:15Z</time>
      </trkpt>
      <trkpt lat="59.9497245" lon="17.7078138">
        <ele>49.1646</ele>
        <time>2014-06-24T11:38:16Z</time>
      </trkpt>
      <trkpt lat="59.9497427" lon="17.7077753">
        <ele>49.1646</ele>
        <time>2014-06-24T11:38:17Z</time>
      </trkpt>
      <trkpt lat="59.9497623" lon="17.7077384">
        <ele>49.1646</ele>
        <time>2014-06-24T11:38:18Z</time>
      </trkpt>
      <trkpt lat="59.9497804" lon="17.7077039">
        <ele>48.684</ele>
        <time>2014-06-24T11:38:19Z</time>
      </trkpt>
      <trkpt lat="59.9498001" lon="17.7076713">
        <ele>48.684</ele>
        <time>2014-06-24T11:38:20Z</time>
      </trkpt>
      <trkpt lat="59.9498208" lon="17.7076397">
        <ele>48.684</ele>
        <time>2014-06-24T11:38:21Z</time>
      </trkpt>
      <trkpt lat="59.9498393" lon="17.7076096">
        <ele>48.2034</ele>
        <time>2014-06-24T11:38:22Z</time>
      </trkpt>
      <trkpt lat="59.949858" lon="17.7075743">
        <ele>47.7225</ele>
        <time>2014-06-24T11:38:23Z</time>
      </trkpt>
      <trkpt lat="59.9498731" lon="17.7075312">
        <ele>46.7612</ele>
        <time>2014-06-24T11:38:24Z</time>
      </trkpt>
      <trkpt lat="59.9498887" lon="17.7074931">
        <ele>46.7612</ele>
        <time>2014-06-24T11:38:25Z</time>
      </trkpt>
      <trkpt lat="59.9499043" lon="17.70745">
        <ele>45.7999</ele>
        <time>2014-06-24T11:38:26Z</time>
      </trkpt>
      <trkpt lat="59.9499208" lon="17.7074035">
        <ele>45.3192</ele>
        <time>2014-06-24T11:38:27Z</time>
      </trkpt>
      <trkpt lat="59.9499387" lon="17.7073671">
        <ele>45.3192</ele>
        <time>2014-06-24T11:38:28Z</time>
      </trkpt>
      <trkpt lat="59.9499565" lon="17.7073292">
        <ele>44.358</ele>
        <time>2014-06-24T11:38:29Z</time>
      </trkpt>
      <trkpt lat="59.9499721" lon="17.7072851">
        <ele>43.8773</ele>
        <time>2014-06-24T11:38:30Z</time>
      </trkpt>
      <trkpt lat="59.9499881" lon="17.7072414">
        <ele>43.8773</ele>
        <time>2014-06-24T11:38:31Z</time>
      </trkpt>
      <trkpt lat="59.9500087" lon="17.7072087">
        <ele>43.3966</ele>
        <time>2014-06-24T11:38:32Z</time>
      </trkpt>
      <trkpt lat="59.9500294" lon="17.7071797">
        <ele>43.3966</ele>
        <time>2014-06-24T11:38:33Z</time>
      </trkpt>
      <trkpt lat="59.9500485" lon="17.7071496">
        <ele>43.3966</ele>
        <time>2014-06-24T11:38:34Z</time>
      </trkpt>
      <trkpt lat="59.9500689" lon="17.7071244">
        <ele>43.3966</ele>
        <time>2014-06-24T11:38:35Z</time>
      </trkpt>
      <trkpt lat="59.9500879" lon="17.7070993">
        <ele>42.916</ele>
        <time>2014-06-24T11:38:36Z</time>
      </trkpt>
      <trkpt lat="59.9501078" lon="17.7070724">
        <ele>42.916</ele>
        <time>2014-06-24T11:38:37Z</time>
      </trkpt>
      <trkpt lat="59.9501285" lon="17.7070471">
        <ele>42.916</ele>
        <time>2014-06-24T11:38:38Z</time>
      </trkpt>
      <trkpt lat="59.9501477" lon="17.7070269">
        <ele>42.916</ele>
        <time>2014-06-24T11:38:39Z</time>
      </trkpt>
      <trkpt lat="59.9501652" lon="17.7070015">
        <ele>42.916</ele>
        <time>2014-06-24T11:38:40Z</time>
      </trkpt>
      <trkpt lat="59.9501846" lon="17.7069738">
        <ele>42.4354</ele>
        <time>2014-06-24T11:38:41Z</time>
      </trkpt>
      <trkpt lat="59.9502062" lon="17.706945">
        <ele>42.4354</ele>
        <time>2014-06-24T11:38:42Z</time>
      </trkpt>
      <trkpt lat="59.9502264" lon="17.7069118">
        <ele>42.4354</ele>
        <time>2014-06-24T11:38:43Z</time>
      </trkpt>
      <trkpt lat="59.950246" lon="17.7068803">
        <ele>42.916</ele>
        <time>2014-06-24T11:38:44Z</time>
      </trkpt>
      <trkpt lat="59.9502659" lon="17.7068454">
        <ele>42.4354</ele>
        <time>2014-06-24T11:38:45Z</time>
      </trkpt>
      <trkpt lat="59.9502869" lon="17.7068167">
        <ele>42.4354</ele>
        <time>2014-06-24T11:38:46Z</time>
      </trkpt>
      <trkpt lat="59.9503101" lon="17.7067871">
        <ele>42.916</ele>
        <time>2014-06-24T11:38:47Z</time>
      </trkpt>
      <trkpt lat="59.950329" lon="17.7067487">
        <ele>42.4354</ele>
        <time>2014-06-24T11:38:48Z</time>
      </trkpt>
      <trkpt lat="59.9503434" lon="17.7067034">
        <ele>42.4354</ele>
        <time>2014-06-24T11:38:49Z</time>
      </trkpt>
      <trkpt lat="59.9503581" lon="17.7066618">
        <ele>42.4354</ele>
        <time>2014-06-24T11:38:50Z</time>
      </trkpt>
      <trkpt lat="59.9503715" lon="17.7066179">
        <ele>42.4354</ele>
        <time>2014-06-24T11:38:51Z</time>
      </trkpt>
      <trkpt lat="59.9503812" lon="17.7065644">
        <ele>42.916</ele>
        <time>2014-06-24T11:38:52Z</time>
      </trkpt>
      <trkpt lat="59.9503887" lon="17.7065107">
        <ele>42.916</ele>
        <time>2014-06-24T11:38:53Z</time>
      </trkpt>
      <trkpt lat="59.9503962" lon="17.7064565">
        <ele>42.916</ele>
        <time>2014-06-24T11:38:54Z</time>
      </trkpt>
      <trkpt lat="59.9504018" lon="17.706403">
        <ele>42.916</ele>
        <time>2014-06-24T11:38:55Z</time>
      </trkpt>
      <trkpt lat="59.9504068" lon="17.7063523">
        <ele>42.916</ele>
        <time>2014-06-24T11:38:56Z</time>
      </trkpt>
      <trkpt lat="59.9504113" lon="17.7063075">
        <ele>43.3966</ele>
        <time>2014-06-24T11:38:57Z</time>
      </trkpt>
      <trkpt lat="59.950417" lon="17.7062606">
        <ele>43.8773</ele>
        <time>2014-06-24T11:38:58Z</time>
      </trkpt>
      <trkpt lat="59.9504301" lon="17.7062163">
        <ele>43.8773</ele>
        <time>2014-06-24T11:38:59Z</time>
      </trkpt>
      <trkpt lat="59.9504481" lon="17.7061721">
        <ele>43.8773</ele>
        <time>2014-06-24T11:39:00Z</time>
      </trkpt>
      <trkpt lat="59.9504622" lon="17.7061315">
        <ele>44.8386</ele>
        <time>2014-06-24T11:39:01Z</time>
      </trkpt>
      <trkpt lat="59.950476" lon="17.7060943">
        <ele>45.3192</ele>
        <time>2014-06-24T11:39:02Z</time>
      </trkpt>
      <trkpt lat="59.9504909" lon="17.7060539">
        <ele>45.3192</ele>
        <time>2014-06-24T11:39:03Z</time>
      </trkpt>
      <trkpt lat="59.950503" lon="17.7060167">
        <ele>45.7999</ele>
        <time>2014-06-24T11:39:04Z</time>
      </trkpt>
      <trkpt lat="59.9505139" lon="17.7059799">
        <ele>46.2806</ele>
        <time>2014-06-24T11:39:05Z</time>
      </trkpt>
      <trkpt lat="59.9505259" lon="17.7059404">
        <ele>46.7612</ele>
        <time>2014-06-24T11:39:06Z</time>
      </trkpt>
      <trkpt lat="59.9505407" lon="17.7059072">
        <ele>46.7612</ele>
        <time>2014-06-24T11:39:07Z</time>
      </trkpt>
      <trkpt lat="59.9505542" lon="17.7058758">
        <ele>46.2806</ele>
        <time>2014-06-24T11:39:08Z</time>
      </trkpt>
      <trkpt lat="59.9505652" lon="17.7058418">
        <ele>45.7999</ele>
        <time>2014-06-24T11:39:09Z</time>
      </trkpt>
      <trkpt lat="59.9505772" lon="17.7058036">
        <ele>45.3192</ele>
        <time>2014-06-24T11:39:10Z</time>
      </trkpt>
      <trkpt lat="59.9505909" lon="17.705763">
        <ele>45.3192</ele>
        <time>2014-06-24T11:39:11Z</time>
      </trkpt>
      <trkpt lat="59.950604" lon="17.7057239">
        <ele>44.8386</ele>
        <time>2014-06-24T11:39:12Z</time>
      </trkpt>
      <trkpt lat="59.950614" lon="17.7056795">
        <ele>44.358</ele>
        <time>2014-06-24T11:39:13Z</time>
      </trkpt>
      <trkpt lat="59.9506247" lon="17.705639">
        <ele>44.358</ele>
        <time>2014-06-24T11:39:14Z</time>
      </trkpt>
      <trkpt lat="59.9506375" lon="17.7055918">
        <ele>44.358</ele>
        <time>2014-06-24T11:39:15Z</time>
      </trkpt>
      <trkpt lat="59.9506543" lon="17.705553">
        <ele>44.358</ele>
        <time>2014-06-24T11:39:16Z</time>
      </trkpt>
      <trkpt lat="59.9506697" lon="17.7055158">
        <ele>43.8773</ele>
        <time>2014-06-24T11:39:17Z</time>
      </trkpt>
      <trkpt lat="59.9506823" lon="17.7054764">
        <ele>44.358</ele>
        <time>2014-06-24T11:39:18Z</time>
      </trkpt>
      <trkpt lat="59.9506957" lon="17.7054304">
        <ele>44.358</ele>
        <time>2014-06-24T11:39:19Z</time>
      </trkpt>
      <trkpt lat="59.9507083" lon="17.7053868">
        <ele>44.358</ele>
        <time>2014-06-24T11:39:20Z</time>
      </trkpt>
      <trkpt lat="59.950722" lon="17.7053418">
        <ele>44.358</ele>
        <time>2014-06-24T11:39:21Z</time>
      </trkpt>
      <trkpt lat="59.9507376" lon="17.7052926">
        <ele>44.358</ele>
        <time>2014-06-24T11:39:22Z</time>
      </trkpt>
      <trkpt lat="59.9507506" lon="17.705229">
        <ele>44.358</ele>
        <time>2014-06-24T11:39:23Z</time>
      </trkpt>
      <trkpt lat="59.9507583" lon="17.70516">
        <ele>44.8386</ele>
        <time>2014-06-24T11:39:24Z</time>
      </trkpt>
      <trkpt lat="59.9507676" lon="17.705104">
        <ele>44.8386</ele>
        <time>2014-06-24T11:39:25Z</time>
      </trkpt>
      <trkpt lat="59.950778" lon="17.7050532">
        <ele>44.8386</ele>
        <time>2014-06-24T11:39:26Z</time>
      </trkpt>
      <trkpt lat="59.950787" lon="17.7050113">
        <ele>44.8386</ele>
        <time>2014-06-24T11:39:27Z</time>
      </trkpt>
      <trkpt lat="59.9507979" lon="17.7049764">
        <ele>44.358</ele>
        <time>2014-06-24T11:39:28Z</time>
      </trkpt>
      <trkpt lat="59.9508133" lon="17.7049417">
        <ele>44.358</ele>
        <time>2014-06-24T11:39:29Z</time>
      </trkpt>
      <trkpt lat="59.9508278" lon="17.7049108">
        <ele>43.8773</ele>
        <time>2014-06-24T11:39:30Z</time>
      </trkpt>
      <trkpt lat="59.9508398" lon="17.7048734">
        <ele>43.8773</ele>
        <time>2014-06-24T11:39:31Z</time>
      </trkpt>
      <trkpt lat="59.9508536" lon="17.704831">
        <ele>43.3966</ele>
        <time>2014-06-24T11:39:32Z</time>
      </trkpt>
      <trkpt lat="59.950869" lon="17.7047902">
        <ele>42.916</ele>
        <time>2014-06-24T11:39:33Z</time>
      </trkpt>
      <trkpt lat="59.9508822" lon="17.7047441">
        <ele>42.916</ele>
        <time>2014-06-24T11:39:34Z</time>
      </trkpt>
      <trkpt lat="59.9508934" lon="17.7046961">
        <ele>42.916</ele>
        <time>2014-06-24T11:39:35Z</time>
      </trkpt>
      <trkpt lat="59.9509072" lon="17.7046566">
        <ele>42.4354</ele>
        <time>2014-06-24T11:39:36Z</time>
      </trkpt>
      <trkpt lat="59.950923" lon="17.7046226">
        <ele>41.9547</ele>
        <time>2014-06-24T11:39:37Z</time>
      </trkpt>
      <trkpt lat="59.9509402" lon="17.7045876">
        <ele>41.474</ele>
        <time>2014-06-24T11:39:38Z</time>
      </trkpt>
      <trkpt lat="59.95096" lon="17.704558">
        <ele>40.9934</ele>
        <time>2014-06-24T11:39:39Z</time>
      </trkpt>
      <trkpt lat="59.9509796" lon="17.7045259">
        <ele>40.9934</ele>
        <time>2014-06-24T11:39:40Z</time>
      </trkpt>
      <trkpt lat="59.9509987" lon="17.7044964">
        <ele>40.5128</ele>
        <time>2014-06-24T11:39:41Z</time>
      </trkpt>
      <trkpt lat="59.9510179" lon="17.7044631">
        <ele>40.5128</ele>
        <time>2014-06-24T11:39:42Z</time>
      </trkpt>
      <trkpt lat="59.9510358" lon="17.7044312">
        <ele>40.5128</ele>
        <time>2014-06-24T11:39:43Z</time>
      </trkpt>
      <trkpt lat="59.9510557" lon="17.7044068">
        <ele>40.5128</ele>
        <time>2014-06-24T11:39:44Z</time>
      </trkpt>
      <trkpt lat="59.9510765" lon="17.7043777">
        <ele>40.5128</ele>
        <time>2014-06-24T11:39:45Z</time>
      </trkpt>
      <trkpt lat="59.9510966" lon="17.7043426">
        <ele>40.5128</ele>
        <time>2014-06-24T11:39:46Z</time>
      </trkpt>
      <trkpt lat="59.9511183" lon="17.7043098">
        <ele>40.5128</ele>
        <time>2014-06-24T11:39:47Z</time>
      </trkpt>
      <trkpt lat="59.9511391" lon="17.7042814">
        <ele>39.5513</ele>
        <time>2014-06-24T11:39:48Z</time>
      </trkpt>
      <trkpt lat="59.9511588" lon="17.7042467">
        <ele>40.0321</ele>
        <time>2014-06-24T11:39:49Z</time>
      </trkpt>
      <trkpt lat="59.951182" lon="17.7042199">
        <ele>40.0321</ele>
        <time>2014-06-24T11:39:50Z</time>
      </trkpt>
      <trkpt lat="59.9512048" lon="17.7041924">
        <ele>39.5513</ele>
        <time>2014-06-24T11:39:51Z</time>
      </trkpt>
      <trkpt lat="59.9512239" lon="17.7041509">
        <ele>39.5513</ele>
        <time>2014-06-24T11:39:52Z</time>
      </trkpt>
      <trkpt lat="59.9512425" lon="17.7041105">
        <ele>39.5513</ele>
        <time>2014-06-24T11:39:53Z</time>
      </trkpt>
      <trkpt lat="59.9512624" lon="17.7040747">
        <ele>39.0707</ele>
        <time>2014-06-24T11:39:54Z</time>
      </trkpt>
      <trkpt lat="59.9512819" lon="17.7040374">
        <ele>39.0707</ele>
        <time>2014-06-24T11:39:55Z</time>
      </trkpt>
      <trkpt lat="59.9513018" lon="17.7039996">
        <ele>38.5901</ele>
        <time>2014-06-24T11:39:56Z</time>
      </trkpt>
      <trkpt lat="59.9513236" lon="17.7039609">
        <ele>38.5901</ele>
        <time>2014-06-24T11:39:57Z</time>
      </trkpt>
      <trkpt lat="59.9513436" lon="17.703928">
        <ele>38.1094</ele>
        <time>2014-06-24T11:39:58Z</time>
      </trkpt>
      <trkpt lat="59.9513623" lon="17.7038979">
        <ele>38.1094</ele>
        <time>2014-06-24T11:39:59Z</time>
      </trkpt>
      <trkpt lat="59.9513831" lon="17.7038742">
        <ele>37.6287</ele>
        <time>2014-06-24T11:40:00Z</time>
      </trkpt>
      <trkpt lat="59.9514023" lon="17.7038493">
        <ele>37.1481</ele>
        <time>2014-06-24T11:40:01Z</time>
      </trkpt>
      <trkpt lat="59.9514195" lon="17.7038245">
        <ele>36.6675</ele>
        <time>2014-06-24T11:40:02Z</time>
      </trkpt>
      <trkpt lat="59.9514395" lon="17.7037946">
        <ele>36.6675</ele>
        <time>2014-06-24T11:40:03Z</time>
      </trkpt>
      <trkpt lat="59.9514598" lon="17.7037663">
        <ele>36.1868</ele>
        <time>2014-06-24T11:40:04Z</time>
      </trkpt>
      <trkpt lat="59.9514795" lon="17.7037363">
        <ele>36.1868</ele>
        <time>2014-06-24T11:40:05Z</time>
      </trkpt>
      <trkpt lat="59.9514997" lon="17.7037074">
        <ele>35.7061</ele>
        <time>2014-06-24T11:40:06Z</time>
      </trkpt>
      <trkpt lat="59.9515193" lon="17.7036808">
        <ele>35.2255</ele>
        <time>2014-06-24T11:40:07Z</time>
      </trkpt>
      <trkpt lat="59.9515359" lon="17.7036571">
        <ele>34.7449</ele>
        <time>2014-06-24T11:40:08Z</time>
      </trkpt>
      <trkpt lat="59.9515528" lon="17.7036246">
        <ele>34.7449</ele>
        <time>2014-06-24T11:40:09Z</time>
      </trkpt>
      <trkpt lat="59.9515728" lon="17.7035905">
        <ele>34.7449</ele>
        <time>2014-06-24T11:40:10Z</time>
      </trkpt>
      <trkpt lat="59.9515892" lon="17.7035661">
        <ele>33.7834</ele>
        <time>2014-06-24T11:40:11Z</time>
      </trkpt>
      <trkpt lat="59.951606" lon="17.7035376">
        <ele>33.7834</ele>
        <time>2014-06-24T11:40:12Z</time>
      </trkpt>
      <trkpt lat="59.9516246" lon="17.7035059">
        <ele>33.3029</ele>
        <time>2014-06-24T11:40:13Z</time>
      </trkpt>
      <trkpt lat="59.9516415" lon="17.7034748">
        <ele>32.8223</ele>
        <time>2014-06-24T11:40:14Z</time>
      </trkpt>
      <trkpt lat="59.9516578" lon="17.7034413">
        <ele>32.3416</ele>
        <time>2014-06-24T11:40:15Z</time>
      </trkpt>
      <trkpt lat="59.9516753" lon="17.7034081">
        <ele>31.8607</ele>
        <time>2014-06-24T11:40:16Z</time>
      </trkpt>
      <trkpt lat="59.9516901" lon="17.7033719">
        <ele>31.8607</ele>
        <time>2014-06-24T11:40:17Z</time>
      </trkpt>
      <trkpt lat="59.9517021" lon="17.7033312">
        <ele>31.3801</ele>
        <time>2014-06-24T11:40:18Z</time>
      </trkpt>
      <trkpt lat="59.9517176" lon="17.7032937">
        <ele>31.3801</ele>
        <time>2014-06-24T11:40:19Z</time>
      </trkpt>
      <trkpt lat="59.951736" lon="17.703262">
        <ele>30.8995</ele>
        <time>2014-06-24T11:40:20Z</time>
      </trkpt>
      <trkpt lat="59.9517523" lon="17.7032328">
        <ele>30.8995</ele>
        <time>2014-06-24T11:40:21Z</time>
      </trkpt>
      <trkpt lat="59.9517609" lon="17.703196">
        <ele>30.8995</ele>
        <time>2014-06-24T11:40:22Z</time>
      </trkpt>
      <trkpt lat="59.9517716" lon="17.7031615">
        <ele>30.8995</ele>
        <time>2014-06-24T11:40:23Z</time>
      </trkpt>
      <trkpt lat="59.9517854" lon="17.7031289">
        <ele>30.4188</ele>
        <time>2014-06-24T11:40:24Z</time>
      </trkpt>
      <trkpt lat="59.9517989" lon="17.7030805">
        <ele>31.3801</ele>
        <time>2014-06-24T11:40:25Z</time>
      </trkpt>
      <trkpt lat="59.951817" lon="17.7030422">
        <ele>30.8995</ele>
        <time>2014-06-24T11:40:26Z</time>
      </trkpt>
      <trkpt lat="59.9518343" lon="17.7030065">
        <ele>31.3801</ele>
        <time>2014-06-24T11:40:27Z</time>
      </trkpt>
      <trkpt lat="59.9518497" lon="17.702978">
        <ele>30.8995</ele>
        <time>2014-06-24T11:40:28Z</time>
      </trkpt>
      <trkpt lat="59.951867" lon="17.7029548">
        <ele>30.4188</ele>
        <time>2014-06-24T11:40:29Z</time>
      </trkpt>
      <trkpt lat="59.9518789" lon="17.7029052">
        <ele>30.4188</ele>
        <time>2014-06-24T11:40:30Z</time>
      </trkpt>
      <trkpt lat="59.9518882" lon="17.7028722">
        <ele>29.4575</ele>
        <time>2014-06-24T11:40:31Z</time>
      </trkpt>
      <trkpt lat="59.9518986" lon="17.7028376">
        <ele>28.9769</ele>
        <time>2014-06-24T11:40:32Z</time>
      </trkpt>
      <trkpt lat="59.9519229" lon="17.7028097">
        <ele>28.9769</ele>
        <time>2014-06-24T11:40:33Z</time>
      </trkpt>
      <trkpt lat="59.9519395" lon="17.7027709">
        <ele>29.4575</ele>
        <time>2014-06-24T11:40:34Z</time>
      </trkpt>
      <trkpt lat="59.951954" lon="17.7027469">
        <ele>29.4575</ele>
        <time>2014-06-24T11:40:35Z</time>
      </trkpt>
      <trkpt lat="59.9519768" lon="17.70269">
        <ele>31.8607</ele>
        <time>2014-06-24T11:40:36Z</time>
      </trkpt>
      <trkpt lat="59.9519924" lon="17.7026589">
        <ele>31.3801</ele>
        <time>2014-06-24T11:40:37Z</time>
      </trkpt>
      <trkpt lat="59.9520076" lon="17.7026039">
        <ele>31.8607</ele>
        <time>2014-06-24T11:40:38Z</time>
      </trkpt>
      <trkpt lat="59.9520232" lon="17.7025638">
        <ele>32.3416</ele>
        <time>2014-06-24T11:40:39Z</time>
      </trkpt>
      <trkpt lat="59.9520398" lon="17.7025189">
        <ele>32.8223</ele>
        <time>2014-06-24T11:40:40Z</time>
      </trkpt>
      <trkpt lat="59.9520565" lon="17.7024689">
        <ele>33.7834</ele>
        <time>2014-06-24T11:40:41Z</time>
      </trkpt>
      <trkpt lat="59.9520699" lon="17.70241">
        <ele>34.7449</ele>
        <time>2014-06-24T11:40:42Z</time>
      </trkpt>
      <trkpt lat="59.9520876" lon="17.7023656">
        <ele>35.2255</ele>
        <time>2014-06-24T11:40:43Z</time>
      </trkpt>
      <trkpt lat="59.9521059" lon="17.7023294">
        <ele>35.2255</ele>
        <time>2014-06-24T11:40:44Z</time>
      </trkpt>
      <trkpt lat="59.9521255" lon="17.7022916">
        <ele>35.2255</ele>
        <time>2014-06-24T11:40:45Z</time>
      </trkpt>
      <trkpt lat="59.9521472" lon="17.702258">
        <ele>35.2255</ele>
        <time>2014-06-24T11:40:46Z</time>
      </trkpt>
      <trkpt lat="59.9521644" lon="17.7022266">
        <ele>35.2255</ele>
        <time>2014-06-24T11:40:47Z</time>
      </trkpt>
      <trkpt lat="59.9521834" lon="17.7022026">
        <ele>34.7449</ele>
        <time>2014-06-24T11:40:48Z</time>
      </trkpt>
      <trkpt lat="59.9522035" lon="17.7021804">
        <ele>34.2642</ele>
        <time>2014-06-24T11:40:49Z</time>
      </trkpt>
      <trkpt lat="59.9522192" lon="17.702139">
        <ele>33.7834</ele>
        <time>2014-06-24T11:40:50Z</time>
      </trkpt>
      <trkpt lat="59.9522373" lon="17.7021014">
        <ele>33.3029</ele>
        <time>2014-06-24T11:40:51Z</time>
      </trkpt>
      <trkpt lat="59.9522555" lon="17.7020669">
        <ele>33.3029</ele>
        <time>2014-06-24T11:40:52Z</time>
      </trkpt>
      <trkpt lat="59.9522726" lon="17.7020322">
        <ele>32.3416</ele>
        <time>2014-06-24T11:40:53Z</time>
      </trkpt>
      <trkpt lat="59.9522896" lon="17.7019918">
        <ele>32.8223</ele>
        <time>2014-06-24T11:40:54Z</time>
      </trkpt>
      <trkpt lat="59.9523076" lon="17.7019519">
        <ele>33.3029</ele>
        <time>2014-06-24T11:40:55Z</time>
      </trkpt>
      <trkpt lat="59.9523264" lon="17.7019189">
        <ele>32.3416</ele>
        <time>2014-06-24T11:40:56Z</time>
      </trkpt>
      <trkpt lat="59.952345" lon="17.7018818">
        <ele>32.3416</ele>
        <time>2014-06-24T11:40:57Z</time>
      </trkpt>
      <trkpt lat="59.9523643" lon="17.7018441">
        <ele>32.3416</ele>
        <time>2014-06-24T11:40:58Z</time>
      </trkpt>
      <trkpt lat="59.9523814" lon="17.7018038">
        <ele>32.8223</ele>
        <time>2014-06-24T11:40:59Z</time>
      </trkpt>
      <trkpt lat="59.9523957" lon="17.7017626">
        <ele>32.8223</ele>
        <time>2014-06-24T11:41:00Z</time>
      </trkpt>
      <trkpt lat="59.9524128" lon="17.7017327">
        <ele>32.8223</ele>
        <time>2014-06-24T11:41:01Z</time>
      </trkpt>
      <trkpt lat="59.9524281" lon="17.7016948">
        <ele>33.3029</ele>
        <time>2014-06-24T11:41:02Z</time>
      </trkpt>
      <trkpt lat="59.9524408" lon="17.701652">
        <ele>33.7834</ele>
        <time>2014-06-24T11:41:03Z</time>
      </trkpt>
      <trkpt lat="59.9524549" lon="17.7016059">
        <ele>34.2642</ele>
        <time>2014-06-24T11:41:04Z</time>
      </trkpt>
      <trkpt lat="59.9524673" lon="17.7015646">
        <ele>34.2642</ele>
        <time>2014-06-24T11:41:05Z</time>
      </trkpt>
      <trkpt lat="59.9524777" lon="17.7015204">
        <ele>35.2255</ele>
        <time>2014-06-24T11:41:06Z</time>
      </trkpt>
      <trkpt lat="59.9524912" lon="17.7014646">
        <ele>36.1868</ele>
        <time>2014-06-24T11:41:07Z</time>
      </trkpt>
      <trkpt lat="59.9525056" lon="17.7014128">
        <ele>36.1868</ele>
        <time>2014-06-24T11:41:08Z</time>
      </trkpt>
      <trkpt lat="59.9525207" lon="17.70137">
        <ele>36.1868</ele>
        <time>2014-06-24T11:41:09Z</time>
      </trkpt>
      <trkpt lat="59.9525367" lon="17.7013262">
        <ele>36.6675</ele>
        <time>2014-06-24T11:41:10Z</time>
      </trkpt>
      <trkpt lat="59.9525465" lon="17.7012874">
        <ele>36.1868</ele>
        <time>2014-06-24T11:41:11Z</time>
      </trkpt>
      <trkpt lat="59.9525482" lon="17.7012415">
        <ele>36.1868</ele>
        <time>2014-06-24T11:41:12Z</time>
      </trkpt>
      <trkpt lat="59.9525429" lon="17.7011889">
        <ele>36.6675</ele>
        <time>2014-06-24T11:41:13Z</time>
      </trkpt>
      <trkpt lat="59.9525352" lon="17.7011372">
        <ele>36.6675</ele>
        <time>2014-06-24T11:41:14Z</time>
      </trkpt>
      <trkpt lat="59.9525283" lon="17.7010813">
        <ele>37.1481</ele>
        <time>2014-06-24T11:41:15Z</time>
      </trkpt>
      <trkpt lat="59.9525241" lon="17.7010265">
        <ele>37.1481</ele>
        <time>2014-06-24T11:41:16Z</time>
      </trkpt>
      <trkpt lat="59.9525236" lon="17.7009785">
        <ele>37.6287</ele>
        <time>2014-06-24T11:41:17Z</time>
      </trkpt>
      <trkpt lat="59.9525239" lon="17.7009294">
        <ele>37.6287</ele>
        <time>2014-06-24T11:41:18Z</time>
      </trkpt>
      <trkpt lat="59.9525233" lon="17.7008811">
        <ele>38.1094</ele>
        <time>2014-06-24T11:41:19Z</time>
      </trkpt>
      <trkpt lat="59.9525205" lon="17.7008342">
        <ele>38.1094</ele>
        <time>2014-06-24T11:41:20Z</time>
      </trkpt>
      <trkpt lat="59.9525151" lon="17.7007864">
        <ele>38.5901</ele>
        <time>2014-06-24T11:41:21Z</time>
      </trkpt>
      <trkpt lat="59.9525106" lon="17.7007351">
        <ele>39.0707</ele>
        <time>2014-06-24T11:41:22Z</time>
      </trkpt>
      <trkpt lat="59.9525065" lon="17.7006787">
        <ele>39.0707</ele>
        <time>2014-06-24T11:41:23Z</time>
      </trkpt>
      <trkpt lat="59.9525034" lon="17.70062">
        <ele>39.0707</ele>
        <time>2014-06-24T11:41:24Z</time>
      </trkpt>
      <trkpt lat="59.9524994" lon="17.7005658">
        <ele>39.0707</ele>
        <time>2014-06-24T11:41:25Z</time>
      </trkpt>
      <trkpt lat="59.9524932" lon="17.700515">
        <ele>39.5513</ele>
        <time>2014-06-24T11:41:26Z</time>
      </trkpt>
      <trkpt lat="59.952488" lon="17.7004662">
        <ele>39.5513</ele>
        <time>2014-06-24T11:41:27Z</time>
      </trkpt>
      <trkpt lat="59.9524807" lon="17.700421">
        <ele>39.0707</ele>
        <time>2014-06-24T11:41:28Z</time>
      </trkpt>
      <trkpt lat="59.95247" lon="17.7003745">
        <ele>39.0707</ele>
        <time>2014-06-24T11:41:29Z</time>
      </trkpt>
      <trkpt lat="59.9524585" lon="17.7003274">
        <ele>39.0707</ele>
        <time>2014-06-24T11:41:30Z</time>
      </trkpt>
      <trkpt lat="59.9524501" lon="17.7002901">
        <ele>39.0707</ele>
        <time>2014-06-24T11:41:31Z</time>
      </trkpt>
      <trkpt lat="59.9524358" lon="17.7002548">
        <ele>38.5901</ele>
        <time>2014-06-24T11:41:32Z</time>
      </trkpt>
      <trkpt lat="59.9524141" lon="17.7002141">
        <ele>39.0707</ele>
        <time>2014-06-24T11:41:33Z</time>
      </trkpt>
      <trkpt lat="59.9523906" lon="17.7001768">
        <ele>39.0707</ele>
        <time>2014-06-24T11:41:34Z</time>
      </trkpt>
      <trkpt lat="59.9523695" lon="17.7001415">
        <ele>38.5901</ele>
        <time>2014-06-24T11:41:35Z</time>
      </trkpt>
      <trkpt lat="59.9523488" lon="17.7001061">
        <ele>38.5901</ele>
        <time>2014-06-24T11:41:36Z</time>
      </trkpt>
      <trkpt lat="59.9523289" lon="17.7000724">
        <ele>38.5901</ele>
        <time>2014-06-24T11:41:37Z</time>
      </trkpt>
      <trkpt lat="59.9523081" lon="17.7000434">
        <ele>38.5901</ele>
        <time>2014-06-24T11:41:38Z</time>
      </trkpt>
      <trkpt lat="59.9522855" lon="17.7000102">
        <ele>39.0707</ele>
        <time>2014-06-24T11:41:39Z</time>
      </trkpt>
      <trkpt lat="59.9522637" lon="17.6999743">
        <ele>39.0707</ele>
        <time>2014-06-24T11:41:40Z</time>
      </trkpt>
      <trkpt lat="59.952242" lon="17.699945">
        <ele>39.5513</ele>
        <time>2014-06-24T11:41:41Z</time>
      </trkpt>
      <trkpt lat="59.9522219" lon="17.6999104">
        <ele>39.5513</ele>
        <time>2014-06-24T11:41:42Z</time>
      </trkpt>
      <trkpt lat="59.9522038" lon="17.6998764">
        <ele>39.0707</ele>
        <time>2014-06-24T11:41:43Z</time>
      </trkpt>
      <trkpt lat="59.9521829" lon="17.6998437">
        <ele>39.0707</ele>
        <time>2014-06-24T11:41:44Z</time>
      </trkpt>
      <trkpt lat="59.95216" lon="17.6998123">
        <ele>39.5513</ele>
        <time>2014-06-24T11:41:45Z</time>
      </trkpt>
      <trkpt lat="59.9521395" lon="17.6997852">
        <ele>39.0707</ele>
        <time>2014-06-24T11:41:46Z</time>
      </trkpt>
      <trkpt lat="59.9521198" lon="17.6997562">
        <ele>39.0707</ele>
        <time>2014-06-24T11:41:47Z</time>
      </trkpt>
      <trkpt lat="59.9521" lon="17.6997239">
        <ele>39.0707</ele>
        <time>2014-06-24T11:41:48Z</time>
      </trkpt>
      <trkpt lat="59.9520803" lon="17.6996908">
        <ele>39.5513</ele>
        <time>2014-06-24T11:41:49Z</time>
      </trkpt>
      <trkpt lat="59.9520595" lon="17.6996627">
        <ele>39.5513</ele>
        <time>2014-06-24T11:41:50Z</time>
      </trkpt>
      <trkpt lat="59.9520379" lon="17.6996354">
        <ele>40.0321</ele>
        <time>2014-06-24T11:41:51Z</time>
      </trkpt>
      <trkpt lat="59.9520203" lon="17.6996059">
        <ele>40.0321</ele>
        <time>2014-06-24T11:41:52Z</time>
      </trkpt>
      <trkpt lat="59.9520032" lon="17.6995749">
        <ele>40.0321</ele>
        <time>2014-06-24T11:41:53Z</time>
      </trkpt>
      <trkpt lat="59.9519865" lon="17.6995384">
        <ele>39.5513</ele>
        <time>2014-06-24T11:41:54Z</time>
      </trkpt>
      <trkpt lat="59.9519675" lon="17.6995034">
        <ele>39.0707</ele>
        <time>2014-06-24T11:41:55Z</time>
      </trkpt>
      <trkpt lat="59.9519472" lon="17.6994743">
        <ele>39.0707</ele>
        <time>2014-06-24T11:41:56Z</time>
      </trkpt>
      <trkpt lat="59.951926" lon="17.6994417">
        <ele>39.0707</ele>
        <time>2014-06-24T11:41:57Z</time>
      </trkpt>
      <trkpt lat="59.9519077" lon="17.6994106">
        <ele>39.0707</ele>
        <time>2014-06-24T11:41:58Z</time>
      </trkpt>
      <trkpt lat="59.9518888" lon="17.6993782">
        <ele>39.0707</ele>
        <time>2014-06-24T11:41:59Z</time>
      </trkpt>
      <trkpt lat="59.9518674" lon="17.6993421">
        <ele>40.0321</ele>
        <time>2014-06-24T11:42:00Z</time>
      </trkpt>
      <trkpt lat="59.9518447" lon="17.6993105">
        <ele>40.0321</ele>
        <time>2014-06-24T11:42:01Z</time>
      </trkpt>
      <trkpt lat="59.9518227" lon="17.6992809">
        <ele>40.5128</ele>
        <time>2014-06-24T11:42:02Z</time>
      </trkpt>
      <trkpt lat="59.9518037" lon="17.6992479">
        <ele>40.5128</ele>
        <time>2014-06-24T11:42:03Z</time>
      </trkpt>
      <trkpt lat="59.9517875" lon="17.6992148">
        <ele>40.0321</ele>
        <time>2014-06-24T11:42:04Z</time>
      </trkpt>
      <trkpt lat="59.951768" lon="17.6991816">
        <ele>40.0321</ele>
        <time>2014-06-24T11:42:05Z</time>
      </trkpt>
      <trkpt lat="59.9517461" lon="17.6991459">
        <ele>39.5513</ele>
        <time>2014-06-24T11:42:06Z</time>
      </trkpt>
      <trkpt lat="59.9517251" lon="17.6991132">
        <ele>40.0321</ele>
        <time>2014-06-24T11:42:07Z</time>
      </trkpt>
      <trkpt lat="59.9517017" lon="17.6990871">
        <ele>40.0321</ele>
        <time>2014-06-24T11:42:08Z</time>
      </trkpt>
      <trkpt lat="59.9516826" lon="17.6990532">
        <ele>39.5513</ele>
        <time>2014-06-24T11:42:09Z</time>
      </trkpt>
      <trkpt lat="59.9516665" lon="17.6990157">
        <ele>39.0707</ele>
        <time>2014-06-24T11:42:10Z</time>
      </trkpt>
      <trkpt lat="59.9516499" lon="17.6989804">
        <ele>39.0707</ele>
        <time>2014-06-24T11:42:11Z</time>
      </trkpt>
      <trkpt lat="59.9516311" lon="17.6989433">
        <ele>39.0707</ele>
        <time>2014-06-24T11:42:12Z</time>
      </trkpt>
      <trkpt lat="59.9516101" lon="17.6989079">
        <ele>39.0707</ele>
        <time>2014-06-24T11:42:13Z</time>
      </trkpt>
      <trkpt lat="59.9515883" lon="17.6988719">
        <ele>39.0707</ele>
        <time>2014-06-24T11:42:14Z</time>
      </trkpt>
      <trkpt lat="59.9515669" lon="17.698839">
        <ele>39.0707</ele>
        <time>2014-06-24T11:42:15Z</time>
      </trkpt>
      <trkpt lat="59.9515449" lon="17.6988086">
        <ele>39.0707</ele>
        <time>2014-06-24T11:42:16Z</time>
      </trkpt>
      <trkpt lat="59.9515229" lon="17.6987779">
        <ele>39.0707</ele>
        <time>2014-06-24T11:42:17Z</time>
      </trkpt>
      <trkpt lat="59.9515012" lon="17.698748">
        <ele>39.0707</ele>
        <time>2014-06-24T11:42:18Z</time>
      </trkpt>
      <trkpt lat="59.9514794" lon="17.6987176">
        <ele>38.5901</ele>
        <time>2014-06-24T11:42:19Z</time>
      </trkpt>
      <trkpt lat="59.9514581" lon="17.6986812">
        <ele>38.5901</ele>
        <time>2014-06-24T11:42:20Z</time>
      </trkpt>
      <trkpt lat="59.951439" lon="17.6986497">
        <ele>38.5901</ele>
        <time>2014-06-24T11:42:21Z</time>
      </trkpt>
      <trkpt lat="59.9514148" lon="17.698624">
        <ele>38.5901</ele>
        <time>2014-06-24T11:42:22Z</time>
      </trkpt>
      <trkpt lat="59.9513909" lon="17.6985982">
        <ele>38.5901</ele>
        <time>2014-06-24T11:42:23Z</time>
      </trkpt>
      <trkpt lat="59.9513692" lon="17.698571">
        <ele>38.1094</ele>
        <time>2014-06-24T11:42:24Z</time>
      </trkpt>
      <trkpt lat="59.9513454" lon="17.6985402">
        <ele>38.5901</ele>
        <time>2014-06-24T11:42:25Z</time>
      </trkpt>
      <trkpt lat="59.9513231" lon="17.6985124">
        <ele>38.1094</ele>
        <time>2014-06-24T11:42:26Z</time>
      </trkpt>
      <trkpt lat="59.9513007" lon="17.6984854">
        <ele>37.6287</ele>
        <time>2014-06-24T11:42:27Z</time>
      </trkpt>
      <trkpt lat="59.9512778" lon="17.6984574">
        <ele>38.1094</ele>
        <time>2014-06-24T11:42:28Z</time>
      </trkpt>
      <trkpt lat="59.9512578" lon="17.6984254">
        <ele>37.6287</ele>
        <time>2014-06-24T11:42:29Z</time>
      </trkpt>
      <trkpt lat="59.9512381" lon="17.6983953">
        <ele>37.6287</ele>
        <time>2014-06-24T11:42:30Z</time>
      </trkpt>
      <trkpt lat="59.9512174" lon="17.6983668">
        <ele>37.1481</ele>
        <time>2014-06-24T11:42:31Z</time>
      </trkpt>
      <trkpt lat="59.9511961" lon="17.6983361">
        <ele>37.1481</ele>
        <time>2014-06-24T11:42:32Z</time>
      </trkpt>
      <trkpt lat="59.9511723" lon="17.6983055">
        <ele>36.6675</ele>
        <time>2014-06-24T11:42:33Z</time>
      </trkpt>
      <trkpt lat="59.9511495" lon="17.6982755">
        <ele>36.6675</ele>
        <time>2014-06-24T11:42:34Z</time>
      </trkpt>
      <trkpt lat="59.9511299" lon="17.698248">
        <ele>36.6675</ele>
        <time>2014-06-24T11:42:35Z</time>
      </trkpt>
      <trkpt lat="59.9511104" lon="17.698222">
        <ele>36.1868</ele>
        <time>2014-06-24T11:42:36Z</time>
      </trkpt>
      <trkpt lat="59.9510897" lon="17.6981954">
        <ele>36.1868</ele>
        <time>2014-06-24T11:42:37Z</time>
      </trkpt>
      <trkpt lat="59.9510692" lon="17.6981659">
        <ele>36.1868</ele>
        <time>2014-06-24T11:42:38Z</time>
      </trkpt>
      <trkpt lat="59.9510483" lon="17.6981402">
        <ele>35.7061</ele>
        <time>2014-06-24T11:42:39Z</time>
      </trkpt>
      <trkpt lat="59.9510251" lon="17.6981156">
        <ele>35.7061</ele>
        <time>2014-06-24T11:42:40Z</time>
      </trkpt>
      <trkpt lat="59.9510029" lon="17.6980864">
        <ele>35.7061</ele>
        <time>2014-06-24T11:42:41Z</time>
      </trkpt>
      <trkpt lat="59.9509827" lon="17.6980563">
        <ele>35.7061</ele>
        <time>2014-06-24T11:42:42Z</time>
      </trkpt>
      <trkpt lat="59.9509592" lon="17.698031">
        <ele>35.2255</ele>
        <time>2014-06-24T11:42:43Z</time>
      </trkpt>
      <trkpt lat="59.9509288" lon="17.6980141">
        <ele>36.1868</ele>
        <time>2014-06-24T11:42:44Z</time>
      </trkpt>
      <trkpt lat="59.9509046" lon="17.6979884">
        <ele>36.6675</ele>
        <time>2014-06-24T11:42:45Z</time>
      </trkpt>
      <trkpt lat="59.9508801" lon="17.6979649">
        <ele>37.1481</ele>
        <time>2014-06-24T11:42:46Z</time>
      </trkpt>
      <trkpt lat="59.9508531" lon="17.6979399">
        <ele>37.1481</ele>
        <time>2014-06-24T11:42:47Z</time>
      </trkpt>
      <trkpt lat="59.9508257" lon="17.6979156">
        <ele>36.6675</ele>
        <time>2014-06-24T11:42:48Z</time>
      </trkpt>
      <trkpt lat="59.950801" lon="17.6978916">
        <ele>36.6675</ele>
        <time>2014-06-24T11:42:49Z</time>
      </trkpt>
      <trkpt lat="59.9507768" lon="17.6978709">
        <ele>37.1481</ele>
        <time>2014-06-24T11:42:50Z</time>
      </trkpt>
      <trkpt lat="59.9507538" lon="17.6978532">
        <ele>37.6287</ele>
        <time>2014-06-24T11:42:51Z</time>
      </trkpt>
      <trkpt lat="59.9507316" lon="17.6978351">
        <ele>38.1094</ele>
        <time>2014-06-24T11:42:52Z</time>
      </trkpt>
      <trkpt lat="59.9507051" lon="17.6978161">
        <ele>39.0707</ele>
        <time>2014-06-24T11:42:53Z</time>
      </trkpt>
      <trkpt lat="59.9506812" lon="17.6977936">
        <ele>39.0707</ele>
        <time>2014-06-24T11:42:54Z</time>
      </trkpt>
      <trkpt lat="59.9506553" lon="17.6977714">
        <ele>39.5513</ele>
        <time>2014-06-24T11:42:55Z</time>
      </trkpt>
      <trkpt lat="59.9506278" lon="17.6977524">
        <ele>40.0321</ele>
        <time>2014-06-24T11:42:56Z</time>
      </trkpt>
      <trkpt lat="59.9506034" lon="17.6977327">
        <ele>40.5128</ele>
        <time>2014-06-24T11:42:57Z</time>
      </trkpt>
      <trkpt lat="59.95058" lon="17.697711">
        <ele>40.0321</ele>
        <time>2014-06-24T11:42:58Z</time>
      </trkpt>
      <trkpt lat="59.9505585" lon="17.6976938">
        <ele>40.0321</ele>
        <time>2014-06-24T11:42:59Z</time>
      </trkpt>
      <trkpt lat="59.9505346" lon="17.6976768">
        <ele>39.5513</ele>
        <time>2014-06-24T11:43:00Z</time>
      </trkpt>
      <trkpt lat="59.9505087" lon="17.6976613">
        <ele>39.5513</ele>
        <time>2014-06-24T11:43:01Z</time>
      </trkpt>
      <trkpt lat="59.9504797" lon="17.6976533">
        <ele>40.0321</ele>
        <time>2014-06-24T11:43:02Z</time>
      </trkpt>
      <trkpt lat="59.9504512" lon="17.6976399">
        <ele>40.5128</ele>
        <time>2014-06-24T11:43:03Z</time>
      </trkpt>
      <trkpt lat="59.950423" lon="17.6976312">
        <ele>40.5128</ele>
        <time>2014-06-24T11:43:04Z</time>
      </trkpt>
      <trkpt lat="59.9503935" lon="17.6976227">
        <ele>40.9934</ele>
        <time>2014-06-24T11:43:05Z</time>
      </trkpt>
      <trkpt lat="59.9503652" lon="17.6976021">
        <ele>40.9934</ele>
        <time>2014-06-24T11:43:06Z</time>
      </trkpt>
      <trkpt lat="59.9503322" lon="17.6975907">
        <ele>41.474</ele>
        <time>2014-06-24T11:43:07Z</time>
      </trkpt>
      <trkpt lat="59.9502977" lon="17.6975847">
        <ele>41.9547</ele>
        <time>2014-06-24T11:43:08Z</time>
      </trkpt>
      <trkpt lat="59.950269" lon="17.6975653">
        <ele>42.4354</ele>
        <time>2014-06-24T11:43:09Z</time>
      </trkpt>
      <trkpt lat="59.9502451" lon="17.6975421">
        <ele>42.916</ele>
        <time>2014-06-24T11:43:10Z</time>
      </trkpt>
      <trkpt lat="59.9502224" lon="17.6975215">
        <ele>43.3966</ele>
        <time>2014-06-24T11:43:11Z</time>
      </trkpt>
      <trkpt lat="59.9501994" lon="17.6974975">
        <ele>43.8773</ele>
        <time>2014-06-24T11:43:12Z</time>
      </trkpt>
      <trkpt lat="59.9501766" lon="17.697479">
        <ele>43.3966</ele>
        <time>2014-06-24T11:43:13Z</time>
      </trkpt>
      <trkpt lat="59.9501545" lon="17.697458">
        <ele>43.8773</ele>
        <time>2014-06-24T11:43:14Z</time>
      </trkpt>
      <trkpt lat="59.9501341" lon="17.6974292">
        <ele>43.8773</ele>
        <time>2014-06-24T11:43:15Z</time>
      </trkpt>
      <trkpt lat="59.9501159" lon="17.697416">
        <ele>43.8773</ele>
        <time>2014-06-24T11:43:16Z</time>
      </trkpt>
      <trkpt lat="59.9500968" lon="17.697414">
        <ele>43.8773</ele>
        <time>2014-06-24T11:43:17Z</time>
      </trkpt>
      <trkpt lat="59.9500715" lon="17.6974173">
        <ele>43.8773</ele>
        <time>2014-06-24T11:43:18Z</time>
      </trkpt>
      <trkpt lat="59.9500471" lon="17.6974241">
        <ele>43.8773</ele>
        <time>2014-06-24T11:43:19Z</time>
      </trkpt>
      <trkpt lat="59.9500255" lon="17.6974253">
        <ele>43.3966</ele>
        <time>2014-06-24T11:43:20Z</time>
      </trkpt>
      <trkpt lat="59.9499986" lon="17.6974272">
        <ele>43.3966</ele>
        <time>2014-06-24T11:43:21Z</time>
      </trkpt>
      <trkpt lat="59.949972" lon="17.6974253">
        <ele>43.3966</ele>
        <time>2014-06-24T11:43:22Z</time>
      </trkpt>
      <trkpt lat="59.9499485" lon="17.6974174">
        <ele>43.3966</ele>
        <time>2014-06-24T11:43:23Z</time>
      </trkpt>
      <trkpt lat="59.9499235" lon="17.6974062">
        <ele>43.3966</ele>
        <time>2014-06-24T11:43:24Z</time>
      </trkpt>
      <trkpt lat="59.949898" lon="17.6973955">
        <ele>43.8773</ele>
        <time>2014-06-24T11:43:25Z</time>
      </trkpt>
      <trkpt lat="59.9498709" lon="17.6973917">
        <ele>43.8773</ele>
        <time>2014-06-24T11:43:26Z</time>
      </trkpt>
      <trkpt lat="59.9498439" lon="17.6973891">
        <ele>43.8773</ele>
        <time>2014-06-24T11:43:27Z</time>
      </trkpt>
      <trkpt lat="59.9498188" lon="17.6973878">
        <ele>43.8773</ele>
        <time>2014-06-24T11:43:28Z</time>
      </trkpt>
      <trkpt lat="59.9497959" lon="17.697386">
        <ele>43.8773</ele>
        <time>2014-06-24T11:43:29Z</time>
      </trkpt>
      <trkpt lat="59.9497747" lon="17.6973811">
        <ele>43.3966</ele>
        <time>2014-06-24T11:43:30Z</time>
      </trkpt>
      <trkpt lat="59.9497529" lon="17.6973782">
        <ele>42.4354</ele>
        <time>2014-06-24T11:43:31Z</time>
      </trkpt>
      <trkpt lat="59.9497294" lon="17.6973756">
        <ele>42.4354</ele>
        <time>2014-06-24T11:43:32Z</time>
      </trkpt>
      <trkpt lat="59.9497093" lon="17.6973742">
        <ele>42.4354</ele>
        <time>2014-06-24T11:43:33Z</time>
      </trkpt>
      <trkpt lat="59.9496909" lon="17.6973722">
        <ele>41.9547</ele>
        <time>2014-06-24T11:43:34Z</time>
      </trkpt>
      <trkpt lat="59.9496667" lon="17.697367">
        <ele>41.9547</ele>
        <time>2014-06-24T11:43:35Z</time>
      </trkpt>
      <trkpt lat="59.9496443" lon="17.6973567">
        <ele>41.474</ele>
        <time>2014-06-24T11:43:36Z</time>
      </trkpt>
      <trkpt lat="59.9496229" lon="17.6973541">
        <ele>41.474</ele>
        <time>2014-06-24T11:43:37Z</time>
      </trkpt>
      <trkpt lat="59.9495984" lon="17.6973523">
        <ele>40.9934</ele>
        <time>2014-06-24T11:43:38Z</time>
      </trkpt>
      <trkpt lat="59.9495768" lon="17.6973432">
        <ele>41.474</ele>
        <time>2014-06-24T11:43:39Z</time>
      </trkpt>
      <trkpt lat="59.9495552" lon="17.6973328">
        <ele>41.474</ele>
        <time>2014-06-24T11:43:40Z</time>
      </trkpt>
      <trkpt lat="59.9495307" lon="17.6973282">
        <ele>41.474</ele>
        <time>2014-06-24T11:43:41Z</time>
      </trkpt>
      <trkpt lat="59.9495038" lon="17.6973226">
        <ele>40.9934</ele>
        <time>2014-06-24T11:43:42Z</time>
      </trkpt>
      <trkpt lat="59.949477" lon="17.6973129">
        <ele>40.9934</ele>
        <time>2014-06-24T11:43:43Z</time>
      </trkpt>
      <trkpt lat="59.949449" lon="17.6973067">
        <ele>40.9934</ele>
        <time>2014-06-24T11:43:44Z</time>
      </trkpt>
      <trkpt lat="59.9494213" lon="17.6972981">
        <ele>40.5128</ele>
        <time>2014-06-24T11:43:45Z</time>
      </trkpt>
      <trkpt lat="59.9493975" lon="17.6972846">
        <ele>40.5128</ele>
        <time>2014-06-24T11:43:46Z</time>
      </trkpt>
      <trkpt lat="59.9493743" lon="17.6972691">
        <ele>41.474</ele>
        <time>2014-06-24T11:43:47Z</time>
      </trkpt>
      <trkpt lat="59.9493525" lon="17.6972571">
        <ele>41.474</ele>
        <time>2014-06-24T11:43:48Z</time>
      </trkpt>
      <trkpt lat="59.9493271" lon="17.6972462">
        <ele>41.474</ele>
        <time>2014-06-24T11:43:49Z</time>
      </trkpt>
      <trkpt lat="59.9493033" lon="17.6972348">
        <ele>41.474</ele>
        <time>2014-06-24T11:43:50Z</time>
      </trkpt>
      <trkpt lat="59.9492826" lon="17.6972244">
        <ele>41.9547</ele>
        <time>2014-06-24T11:43:51Z</time>
      </trkpt>
      <trkpt lat="59.949262" lon="17.6972085">
        <ele>42.4354</ele>
        <time>2014-06-24T11:43:52Z</time>
      </trkpt>
      <trkpt lat="59.9492401" lon="17.6971896">
        <ele>42.4354</ele>
        <time>2014-06-24T11:43:53Z</time>
      </trkpt>
      <trkpt lat="59.9492137" lon="17.6971779">
        <ele>41.9547</ele>
        <time>2014-06-24T11:43:54Z</time>
      </trkpt>
      <trkpt lat="59.9491889" lon="17.6971649">
        <ele>41.9547</ele>
        <time>2014-06-24T11:43:55Z</time>
      </trkpt>
      <trkpt lat="59.9491619" lon="17.6971552">
        <ele>41.9547</ele>
        <time>2014-06-24T11:43:56Z</time>
      </trkpt>
      <trkpt lat="59.9491363" lon="17.6971407">
        <ele>41.9547</ele>
        <time>2014-06-24T11:43:57Z</time>
      </trkpt>
      <trkpt lat="59.9491091" lon="17.6971241">
        <ele>41.474</ele>
        <time>2014-06-24T11:43:58Z</time>
      </trkpt>
      <trkpt lat="59.949084" lon="17.6971105">
        <ele>41.474</ele>
        <time>2014-06-24T11:43:59Z</time>
      </trkpt>
      <trkpt lat="59.9490591" lon="17.6970987">
        <ele>41.9547</ele>
        <time>2014-06-24T11:44:00Z</time>
      </trkpt>
      <trkpt lat="59.9490348" lon="17.6970798">
        <ele>42.4354</ele>
        <time>2014-06-24T11:44:01Z</time>
      </trkpt>
      <trkpt lat="59.9490106" lon="17.6970638">
        <ele>41.9547</ele>
        <time>2014-06-24T11:44:02Z</time>
      </trkpt>
      <trkpt lat="59.9489831" lon="17.697048">
        <ele>41.9547</ele>
        <time>2014-06-24T11:44:03Z</time>
      </trkpt>
      <trkpt lat="59.9489563" lon="17.6970262">
        <ele>41.9547</ele>
        <time>2014-06-24T11:44:04Z</time>
      </trkpt>
      <trkpt lat="59.948931" lon="17.6970048">
        <ele>41.9547</ele>
        <time>2014-06-24T11:44:05Z</time>
      </trkpt>
      <trkpt lat="59.9489082" lon="17.6969801">
        <ele>42.916</ele>
        <time>2014-06-24T11:44:06Z</time>
      </trkpt>
      <trkpt lat="59.9488884" lon="17.6969589">
        <ele>43.3966</ele>
        <time>2014-06-24T11:44:07Z</time>
      </trkpt>
      <trkpt lat="59.9488665" lon="17.6969418">
        <ele>43.8773</ele>
        <time>2014-06-24T11:44:08Z</time>
      </trkpt>
      <trkpt lat="59.9488421" lon="17.6969263">
        <ele>44.358</ele>
        <time>2014-06-24T11:44:09Z</time>
      </trkpt>
      <trkpt lat="59.9488162" lon="17.6969127">
        <ele>43.8773</ele>
        <time>2014-06-24T11:44:10Z</time>
      </trkpt>
      <trkpt lat="59.9487862" lon="17.6968956">
        <ele>43.3966</ele>
        <time>2014-06-24T11:44:11Z</time>
      </trkpt>
      <trkpt lat="59.9487563" lon="17.6968765">
        <ele>43.3966</ele>
        <time>2014-06-24T11:44:12Z</time>
      </trkpt>
      <trkpt lat="59.9487271" lon="17.6968582">
        <ele>43.3966</ele>
        <time>2014-06-24T11:44:13Z</time>
      </trkpt>
      <trkpt lat="59.9487008" lon="17.6968406">
        <ele>43.8773</ele>
        <time>2014-06-24T11:44:14Z</time>
      </trkpt>
      <trkpt lat="59.9486781" lon="17.6968165">
        <ele>43.8773</ele>
        <time>2014-06-24T11:44:15Z</time>
      </trkpt>
      <trkpt lat="59.9486584" lon="17.6967983">
        <ele>43.3966</ele>
        <time>2014-06-24T11:44:16Z</time>
      </trkpt>
      <trkpt lat="59.9486428" lon="17.696783">
        <ele>43.3966</ele>
        <time>2014-06-24T11:44:17Z</time>
      </trkpt>
      <trkpt lat="59.948625" lon="17.6967687">
        <ele>43.3966</ele>
        <time>2014-06-24T11:44:18Z</time>
      </trkpt>
      <trkpt lat="59.9486009" lon="17.6967572">
        <ele>43.3966</ele>
        <time>2014-06-24T11:44:19Z</time>
      </trkpt>
      <trkpt lat="59.9485758" lon="17.6967406">
        <ele>42.916</ele>
        <time>2014-06-24T11:44:20Z</time>
      </trkpt>
      <trkpt lat="59.9485548" lon="17.6967147">
        <ele>42.916</ele>
        <time>2014-06-24T11:44:21Z</time>
      </trkpt>
      <trkpt lat="59.9485331" lon="17.6966942">
        <ele>42.916</ele>
        <time>2014-06-24T11:44:22Z</time>
      </trkpt>
      <trkpt lat="59.9485083" lon="17.6966692">
        <ele>42.4354</ele>
        <time>2014-06-24T11:44:23Z</time>
      </trkpt>
      <trkpt lat="59.9484828" lon="17.6966449">
        <ele>41.9547</ele>
        <time>2014-06-24T11:44:24Z</time>
      </trkpt>
      <trkpt lat="59.9484601" lon="17.696621">
        <ele>41.9547</ele>
        <time>2014-06-24T11:44:25Z</time>
      </trkpt>
      <trkpt lat="59.9484354" lon="17.6966004">
        <ele>41.9547</ele>
        <time>2014-06-24T11:44:26Z</time>
      </trkpt>
      <trkpt lat="59.9484119" lon="17.6965839">
        <ele>41.474</ele>
        <time>2014-06-24T11:44:27Z</time>
      </trkpt>
      <trkpt lat="59.9483911" lon="17.6965611">
        <ele>41.9547</ele>
        <time>2014-06-24T11:44:28Z</time>
      </trkpt>
      <trkpt lat="59.9483662" lon="17.696533">
        <ele>42.4354</ele>
        <time>2014-06-24T11:44:29Z</time>
      </trkpt>
      <trkpt lat="59.9483399" lon="17.6965069">
        <ele>42.4354</ele>
        <time>2014-06-24T11:44:30Z</time>
      </trkpt>
      <trkpt lat="59.9483156" lon="17.6964798">
        <ele>43.3966</ele>
        <time>2014-06-24T11:44:31Z</time>
      </trkpt>
      <trkpt lat="59.9482892" lon="17.6964532">
        <ele>43.3966</ele>
        <time>2014-06-24T11:44:32Z</time>
      </trkpt>
      <trkpt lat="59.9482581" lon="17.6964299">
        <ele>43.8773</ele>
        <time>2014-06-24T11:44:33Z</time>
      </trkpt>
      <trkpt lat="59.9482304" lon="17.6964056">
        <ele>44.358</ele>
        <time>2014-06-24T11:44:34Z</time>
      </trkpt>
      <trkpt lat="59.9482088" lon="17.6963795">
        <ele>44.358</ele>
        <time>2014-06-24T11:44:35Z</time>
      </trkpt>
      <trkpt lat="59.9481926" lon="17.6963481">
        <ele>44.8386</ele>
        <time>2014-06-24T11:44:36Z</time>
      </trkpt>
      <trkpt lat="59.9481744" lon="17.6963128">
        <ele>44.8386</ele>
        <time>2014-06-24T11:44:37Z</time>
      </trkpt>
      <trkpt lat="59.9481565" lon="17.6962767">
        <ele>44.358</ele>
        <time>2014-06-24T11:44:38Z</time>
      </trkpt>
      <trkpt lat="59.9481425" lon="17.6962355">
        <ele>44.358</ele>
        <time>2014-06-24T11:44:39Z</time>
      </trkpt>
      <trkpt lat="59.9481259" lon="17.6961999">
        <ele>44.8386</ele>
        <time>2014-06-24T11:44:40Z</time>
      </trkpt>
      <trkpt lat="59.9481114" lon="17.6961616">
        <ele>44.358</ele>
        <time>2014-06-24T11:44:41Z</time>
      </trkpt>
      <trkpt lat="59.9481024" lon="17.6961124">
        <ele>44.358</ele>
        <time>2014-06-24T11:44:42Z</time>
      </trkpt>
      <trkpt lat="59.9480939" lon="17.6960517">
        <ele>44.358</ele>
        <time>2014-06-24T11:44:43Z</time>
      </trkpt>
      <trkpt lat="59.9480855" lon="17.6959933">
        <ele>43.8773</ele>
        <time>2014-06-24T11:44:44Z</time>
      </trkpt>
      <trkpt lat="59.9480839" lon="17.6959431">
        <ele>43.8773</ele>
        <time>2014-06-24T11:44:45Z</time>
      </trkpt>
      <trkpt lat="59.9480891" lon="17.6958788">
        <ele>43.8773</ele>
        <time>2014-06-24T11:44:46Z</time>
      </trkpt>
      <trkpt lat="59.9481" lon="17.6958185">
        <ele>43.3966</ele>
        <time>2014-06-24T11:44:47Z</time>
      </trkpt>
      <trkpt lat="59.9481139" lon="17.6957639">
        <ele>43.3966</ele>
        <time>2014-06-24T11:44:48Z</time>
      </trkpt>
      <trkpt lat="59.9481309" lon="17.6957187">
        <ele>42.916</ele>
        <time>2014-06-24T11:44:49Z</time>
      </trkpt>
      <trkpt lat="59.948144" lon="17.6956834">
        <ele>43.3966</ele>
        <time>2014-06-24T11:44:50Z</time>
      </trkpt>
      <trkpt lat="59.9481553" lon="17.6956501">
        <ele>43.3966</ele>
        <time>2014-06-24T11:44:51Z</time>
      </trkpt>
      <trkpt lat="59.9481709" lon="17.6956149">
        <ele>42.916</ele>
        <time>2014-06-24T11:44:52Z</time>
      </trkpt>
      <trkpt lat="59.9481868" lon="17.695584">
        <ele>42.916</ele>
        <time>2014-06-24T11:44:53Z</time>
      </trkpt>
      <trkpt lat="59.948201" lon="17.6955487">
        <ele>42.916</ele>
        <time>2014-06-24T11:44:54Z</time>
      </trkpt>
      <trkpt lat="59.9482176" lon="17.6955098">
        <ele>42.4354</ele>
        <time>2014-06-24T11:44:55Z</time>
      </trkpt>
      <trkpt lat="59.9482341" lon="17.6954736">
        <ele>42.4354</ele>
        <time>2014-06-24T11:44:56Z</time>
      </trkpt>
      <trkpt lat="59.9482512" lon="17.6954339">
        <ele>42.4354</ele>
        <time>2014-06-24T11:44:57Z</time>
      </trkpt>
      <trkpt lat="59.9482709" lon="17.6953934">
        <ele>42.4354</ele>
        <time>2014-06-24T11:44:58Z</time>
      </trkpt>
      <trkpt lat="59.9482907" lon="17.6953569">
        <ele>42.4354</ele>
        <time>2014-06-24T11:44:59Z</time>
      </trkpt>
      <trkpt lat="59.9483075" lon="17.6953157">
        <ele>42.4354</ele>
        <time>2014-06-24T11:45:00Z</time>
      </trkpt>
      <trkpt lat="59.9483238" lon="17.6952799">
        <ele>42.4354</ele>
        <time>2014-06-24T11:45:01Z</time>
      </trkpt>
      <trkpt lat="59.9483383" lon="17.6952437">
        <ele>42.916</ele>
        <time>2014-06-24T11:45:02Z</time>
      </trkpt>
      <trkpt lat="59.9483528" lon="17.6952022">
        <ele>43.3966</ele>
        <time>2014-06-24T11:45:03Z</time>
      </trkpt>
      <trkpt lat="59.9483681" lon="17.6951629">
        <ele>43.3966</ele>
        <time>2014-06-24T11:45:04Z</time>
      </trkpt>
      <trkpt lat="59.9483824" lon="17.6951234">
        <ele>43.8773</ele>
        <time>2014-06-24T11:45:05Z</time>
      </trkpt>
      <trkpt lat="59.9483983" lon="17.695081">
        <ele>43.8773</ele>
        <time>2014-06-24T11:45:06Z</time>
      </trkpt>
      <trkpt lat="59.9484116" lon="17.6950376">
        <ele>43.8773</ele>
        <time>2014-06-24T11:45:07Z</time>
      </trkpt>
      <trkpt lat="59.9484242" lon="17.6949997">
        <ele>43.8773</ele>
        <time>2014-06-24T11:45:08Z</time>
      </trkpt>
      <trkpt lat="59.9484377" lon="17.6949636">
        <ele>43.8773</ele>
        <time>2014-06-24T11:45:09Z</time>
      </trkpt>
      <trkpt lat="59.9484502" lon="17.694924">
        <ele>43.3966</ele>
        <time>2014-06-24T11:45:10Z</time>
      </trkpt>
      <trkpt lat="59.9484617" lon="17.6948856">
        <ele>43.3966</ele>
        <time>2014-06-24T11:45:11Z</time>
      </trkpt>
      <trkpt lat="59.948474" lon="17.6948536">
        <ele>43.3966</ele>
        <time>2014-06-24T11:45:12Z</time>
      </trkpt>
      <trkpt lat="59.9484895" lon="17.6948136">
        <ele>42.916</ele>
        <time>2014-06-24T11:45:13Z</time>
      </trkpt>
      <trkpt lat="59.9485097" lon="17.6947739">
        <ele>42.4354</ele>
        <time>2014-06-24T11:45:14Z</time>
      </trkpt>
      <trkpt lat="59.9485319" lon="17.694736">
        <ele>42.4354</ele>
        <time>2014-06-24T11:45:15Z</time>
      </trkpt>
      <trkpt lat="59.9485578" lon="17.6947068">
        <ele>42.4354</ele>
        <time>2014-06-24T11:45:16Z</time>
      </trkpt>
      <trkpt lat="59.9485815" lon="17.6946924">
        <ele>42.4354</ele>
        <time>2014-06-24T11:45:17Z</time>
      </trkpt>
      <trkpt lat="59.9486069" lon="17.6946879">
        <ele>41.9547</ele>
        <time>2014-06-24T11:45:18Z</time>
      </trkpt>
      <trkpt lat="59.9486378" lon="17.6946879">
        <ele>41.9547</ele>
        <time>2014-06-24T11:45:19Z</time>
      </trkpt>
      <trkpt lat="59.9486667" lon="17.6946939">
        <ele>41.474</ele>
        <time>2014-06-24T11:45:20Z</time>
      </trkpt>
      <trkpt lat="59.9486919" lon="17.6947061">
        <ele>40.9934</ele>
        <time>2014-06-24T11:45:21Z</time>
      </trkpt>
      <trkpt lat="59.9487147" lon="17.6947117">
        <ele>40.5128</ele>
        <time>2014-06-24T11:45:22Z</time>
      </trkpt>
      <trkpt lat="59.9487341" lon="17.6947014">
        <ele>40.5128</ele>
        <time>2014-06-24T11:45:23Z</time>
      </trkpt>
      <trkpt lat="59.9487465" lon="17.6946776">
        <ele>40.5128</ele>
        <time>2014-06-24T11:45:24Z</time>
      </trkpt>
      <trkpt lat="59.948759" lon="17.6946444">
        <ele>40.5128</ele>
        <time>2014-06-24T11:45:25Z</time>
      </trkpt>
      <trkpt lat="59.9487724" lon="17.6946009">
        <ele>40.5128</ele>
        <time>2014-06-24T11:45:26Z</time>
      </trkpt>
      <trkpt lat="59.9487858" lon="17.6945599">
        <ele>40.9934</ele>
        <time>2014-06-24T11:45:27Z</time>
      </trkpt>
      <trkpt lat="59.948798" lon="17.694521">
        <ele>40.5128</ele>
        <time>2014-06-24T11:45:28Z</time>
      </trkpt>
      <trkpt lat="59.9488125" lon="17.6944816">
        <ele>40.5128</ele>
        <time>2014-06-24T11:45:29Z</time>
      </trkpt>
      <trkpt lat="59.9488251" lon="17.6944402">
        <ele>40.0321</ele>
        <time>2014-06-24T11:45:30Z</time>
      </trkpt>
      <trkpt lat="59.9488398" lon="17.6944">
        <ele>39.5513</ele>
        <time>2014-06-24T11:45:31Z</time>
      </trkpt>
      <trkpt lat="59.9488532" lon="17.6943579">
        <ele>39.0707</ele>
        <time>2014-06-24T11:45:32Z</time>
      </trkpt>
      <trkpt lat="59.948865" lon="17.6943144">
        <ele>38.5901</ele>
        <time>2014-06-24T11:45:33Z</time>
      </trkpt>
      <trkpt lat="59.948878" lon="17.6942758">
        <ele>38.5901</ele>
        <time>2014-06-24T11:45:34Z</time>
      </trkpt>
      <trkpt lat="59.9488853" lon="17.6942351">
        <ele>38.5901</ele>
        <time>2014-06-24T11:45:35Z</time>
      </trkpt>
      <trkpt lat="59.9488952" lon="17.6941958">
        <ele>39.0707</ele>
        <time>2014-06-24T11:45:36Z</time>
      </trkpt>
      <trkpt lat="59.9489044" lon="17.6941563">
        <ele>38.5901</ele>
        <time>2014-06-24T11:45:37Z</time>
      </trkpt>
      <trkpt lat="59.9489172" lon="17.6941199">
        <ele>38.1094</ele>
        <time>2014-06-24T11:45:38Z</time>
      </trkpt>
      <trkpt lat="59.9489314" lon="17.6940756">
        <ele>37.1481</ele>
        <time>2014-06-24T11:45:39Z</time>
      </trkpt>
      <trkpt lat="59.9489509" lon="17.6940352">
        <ele>37.1481</ele>
        <time>2014-06-24T11:45:40Z</time>
      </trkpt>
      <trkpt lat="59.9489693" lon="17.6939995">
        <ele>37.1481</ele>
        <time>2014-06-24T11:45:41Z</time>
      </trkpt>
      <trkpt lat="59.9489858" lon="17.6939612">
        <ele>36.6675</ele>
        <time>2014-06-24T11:45:42Z</time>
      </trkpt>
      <trkpt lat="59.9490018" lon="17.6939191">
        <ele>37.1481</ele>
        <time>2014-06-24T11:45:43Z</time>
      </trkpt>
      <trkpt lat="59.9490169" lon="17.6938713">
        <ele>37.1481</ele>
        <time>2014-06-24T11:45:44Z</time>
      </trkpt>
      <trkpt lat="59.9490361" lon="17.6938272">
        <ele>37.1481</ele>
        <time>2014-06-24T11:45:45Z</time>
      </trkpt>
      <trkpt lat="59.9490546" lon="17.6937887">
        <ele>36.6675</ele>
        <time>2014-06-24T11:45:46Z</time>
      </trkpt>
      <trkpt lat="59.9490754" lon="17.6937561">
        <ele>36.1868</ele>
        <time>2014-06-24T11:45:47Z</time>
      </trkpt>
      <trkpt lat="59.9490941" lon="17.6937197">
        <ele>36.1868</ele>
        <time>2014-06-24T11:45:48Z</time>
      </trkpt>
      <trkpt lat="59.9491095" lon="17.6936714">
        <ele>36.1868</ele>
        <time>2014-06-24T11:45:49Z</time>
      </trkpt>
      <trkpt lat="59.9491236" lon="17.6936223">
        <ele>36.1868</ele>
        <time>2014-06-24T11:45:50Z</time>
      </trkpt>
      <trkpt lat="59.9491346" lon="17.6935841">
        <ele>37.1481</ele>
        <time>2014-06-24T11:45:51Z</time>
      </trkpt>
      <trkpt lat="59.9491418" lon="17.6935472">
        <ele>37.6287</ele>
        <time>2014-06-24T11:45:52Z</time>
      </trkpt>
      <trkpt lat="59.9491472" lon="17.6935078">
        <ele>37.6287</ele>
        <time>2014-06-24T11:45:53Z</time>
      </trkpt>
      <trkpt lat="59.9491534" lon="17.693471">
        <ele>38.1094</ele>
        <time>2014-06-24T11:45:54Z</time>
      </trkpt>
      <trkpt lat="59.9491536" lon="17.6934274">
        <ele>38.5901</ele>
        <time>2014-06-24T11:45:55Z</time>
      </trkpt>
      <trkpt lat="59.9491572" lon="17.693386">
        <ele>39.0707</ele>
        <time>2014-06-24T11:45:56Z</time>
      </trkpt>
      <trkpt lat="59.9491603" lon="17.6933524">
        <ele>39.0707</ele>
        <time>2014-06-24T11:45:57Z</time>
      </trkpt>
      <trkpt lat="59.949167" lon="17.6933149">
        <ele>39.5513</ele>
        <time>2014-06-24T11:45:58Z</time>
      </trkpt>
      <trkpt lat="59.9491724" lon="17.6932758">
        <ele>40.0321</ele>
        <time>2014-06-24T11:45:59Z</time>
      </trkpt>
      <trkpt lat="59.9491779" lon="17.6932281">
        <ele>40.0321</ele>
        <time>2014-06-24T11:46:00Z</time>
      </trkpt>
      <trkpt lat="59.9491816" lon="17.6931806">
        <ele>40.5128</ele>
        <time>2014-06-24T11:46:01Z</time>
      </trkpt>
      <trkpt lat="59.9491837" lon="17.6931345">
        <ele>40.5128</ele>
        <time>2014-06-24T11:46:02Z</time>
      </trkpt>
      <trkpt lat="59.9491851" lon="17.6930877">
        <ele>40.5128</ele>
        <time>2014-06-24T11:46:03Z</time>
      </trkpt>
      <trkpt lat="59.9491816" lon="17.6930416">
        <ele>40.5128</ele>
        <time>2014-06-24T11:46:04Z</time>
      </trkpt>
      <trkpt lat="59.9491769" lon="17.6930021">
        <ele>40.9934</ele>
        <time>2014-06-24T11:46:05Z</time>
      </trkpt>
      <trkpt lat="59.9491601" lon="17.6929466">
        <ele>41.9547</ele>
        <time>2014-06-24T11:46:06Z</time>
      </trkpt>
      <trkpt lat="59.9491381" lon="17.6928876">
        <ele>41.9547</ele>
        <time>2014-06-24T11:46:07Z</time>
      </trkpt>
      <trkpt lat="59.9491147" lon="17.6928416">
        <ele>42.4354</ele>
        <time>2014-06-24T11:46:08Z</time>
      </trkpt>
      <trkpt lat="59.949091" lon="17.6928088">
        <ele>42.916</ele>
        <time>2014-06-24T11:46:09Z</time>
      </trkpt>
      <trkpt lat="59.9490656" lon="17.6927791">
        <ele>43.3966</ele>
        <time>2014-06-24T11:46:10Z</time>
      </trkpt>
      <trkpt lat="59.9490454" lon="17.6927662">
        <ele>44.358</ele>
        <time>2014-06-24T11:46:11Z</time>
      </trkpt>
      <trkpt lat="59.9490189" lon="17.6927593">
        <ele>44.358</ele>
        <time>2014-06-24T11:46:12Z</time>
      </trkpt>
      <trkpt lat="59.948992" lon="17.692757">
        <ele>44.358</ele>
        <time>2014-06-24T11:46:13Z</time>
      </trkpt>
      <trkpt lat="59.9489671" lon="17.6927444">
        <ele>44.358</ele>
        <time>2014-06-24T11:46:14Z</time>
      </trkpt>
      <trkpt lat="59.9489448" lon="17.6927288">
        <ele>43.8773</ele>
        <time>2014-06-24T11:46:15Z</time>
      </trkpt>
      <trkpt lat="59.9489231" lon="17.6927156">
        <ele>43.3966</ele>
        <time>2014-06-24T11:46:16Z</time>
      </trkpt>
      <trkpt lat="59.9489055" lon="17.6927019">
        <ele>42.916</ele>
        <time>2014-06-24T11:46:17Z</time>
      </trkpt>
      <trkpt lat="59.9488871" lon="17.6926852">
        <ele>42.4354</ele>
        <time>2014-06-24T11:46:18Z</time>
      </trkpt>
      <trkpt lat="59.9488695" lon="17.6926767">
        <ele>41.9547</ele>
        <time>2014-06-24T11:46:19Z</time>
      </trkpt>
      <trkpt lat="59.9488483" lon="17.6926691">
        <ele>42.916</ele>
        <time>2014-06-24T11:46:20Z</time>
      </trkpt>
      <trkpt lat="59.9488247" lon="17.6926521">
        <ele>41.9547</ele>
        <time>2014-06-24T11:46:21Z</time>
      </trkpt>
      <trkpt lat="59.9488045" lon="17.6926246">
        <ele>41.474</ele>
        <time>2014-06-24T11:46:22Z</time>
      </trkpt>
      <trkpt lat="59.9487874" lon="17.6925996">
        <ele>41.474</ele>
        <time>2014-06-24T11:46:23Z</time>
      </trkpt>
      <trkpt lat="59.9487692" lon="17.6925744">
        <ele>41.474</ele>
        <time>2014-06-24T11:46:24Z</time>
      </trkpt>
      <trkpt lat="59.9487497" lon="17.6925406">
        <ele>41.9547</ele>
        <time>2014-06-24T11:46:25Z</time>
      </trkpt>
      <trkpt lat="59.948732" lon="17.6925106">
        <ele>42.916</ele>
        <time>2014-06-24T11:46:26Z</time>
      </trkpt>
      <trkpt lat="59.9487119" lon="17.6924774">
        <ele>43.8773</ele>
        <time>2014-06-24T11:46:27Z</time>
      </trkpt>
      <trkpt lat="59.9486934" lon="17.6924345">
        <ele>44.8386</ele>
        <time>2014-06-24T11:46:28Z</time>
      </trkpt>
      <trkpt lat="59.9486735" lon="17.6924002">
        <ele>45.7999</ele>
        <time>2014-06-24T11:46:29Z</time>
      </trkpt>
      <trkpt lat="59.9486552" lon="17.6923713">
        <ele>45.7999</ele>
        <time>2014-06-24T11:46:30Z</time>
      </trkpt>
      <trkpt lat="59.9486386" lon="17.6923401">
        <ele>46.7612</ele>
        <time>2014-06-24T11:46:31Z</time>
      </trkpt>
      <trkpt lat="59.9486186" lon="17.6923107">
        <ele>48.2034</ele>
        <time>2014-06-24T11:46:32Z</time>
      </trkpt>
      <trkpt lat="59.948595" lon="17.6922896">
        <ele>48.684</ele>
        <time>2014-06-24T11:46:33Z</time>
      </trkpt>
      <trkpt lat="59.9485684" lon="17.6922728">
        <ele>48.684</ele>
        <time>2014-06-24T11:46:34Z</time>
      </trkpt>
      <trkpt lat="59.9485489" lon="17.6922487">
        <ele>49.1646</ele>
        <time>2014-06-24T11:46:35Z</time>
      </trkpt>
      <trkpt lat="59.9485264" lon="17.6922295">
        <ele>49.1646</ele>
        <time>2014-06-24T11:46:36Z</time>
      </trkpt>
      <trkpt lat="59.9485023" lon="17.6922163">
        <ele>48.684</ele>
        <time>2014-06-24T11:46:37Z</time>
      </trkpt>
      <trkpt lat="59.9484786" lon="17.6922215">
        <ele>48.2034</ele>
        <time>2014-06-24T11:46:38Z</time>
      </trkpt>
      <trkpt lat="59.9484543" lon="17.6922179">
        <ele>49.1646</ele>
        <time>2014-06-24T11:46:39Z</time>
      </trkpt>
      <trkpt lat="59.9484383" lon="17.6922035">
        <ele>48.684</ele>
        <time>2014-06-24T11:46:40Z</time>
      </trkpt>
      <trkpt lat="59.9484285" lon="17.6921741">
        <ele>48.684</ele>
        <time>2014-06-24T11:46:41Z</time>
      </trkpt>
      <trkpt lat="59.9484145" lon="17.6921215">
        <ele>49.1646</ele>
        <time>2014-06-24T11:46:42Z</time>
      </trkpt>
      <trkpt lat="59.9484042" lon="17.6920719">
        <ele>49.1646</ele>
        <time>2014-06-24T11:46:43Z</time>
      </trkpt>
      <trkpt lat="59.9483928" lon="17.6920264">
        <ele>48.684</ele>
        <time>2014-06-24T11:46:44Z</time>
      </trkpt>
      <trkpt lat="59.9483797" lon="17.6919816">
        <ele>48.684</ele>
        <time>2014-06-24T11:46:45Z</time>
      </trkpt>
      <trkpt lat="59.9483647" lon="17.6919467">
        <ele>48.684</ele>
        <time>2014-06-24T11:46:46Z</time>
      </trkpt>
      <trkpt lat="59.9483492" lon="17.6919117">
        <ele>48.2034</ele>
        <time>2014-06-24T11:46:47Z</time>
      </trkpt>
      <trkpt lat="59.9483458" lon="17.6918901">
        <ele>47.7225</ele>
        <time>2014-06-24T11:46:48Z</time>
      </trkpt>
      <trkpt lat="59.9483477" lon="17.6918544">
        <ele>48.684</ele>
        <time>2014-06-24T11:46:49Z</time>
      </trkpt>
      <trkpt lat="59.9483408" lon="17.6918223">
        <ele>48.2034</ele>
        <time>2014-06-24T11:46:50Z</time>
      </trkpt>
      <trkpt lat="59.9483279" lon="17.6917874">
        <ele>48.2034</ele>
        <time>2014-06-24T11:46:51Z</time>
      </trkpt>
      <trkpt lat="59.9483159" lon="17.6917467">
        <ele>48.2034</ele>
        <time>2014-06-24T11:46:52Z</time>
      </trkpt>
      <trkpt lat="59.948303" lon="17.6917087">
        <ele>47.2418</ele>
        <time>2014-06-24T11:46:53Z</time>
      </trkpt>
      <trkpt lat="59.9482942" lon="17.6916698">
        <ele>46.7612</ele>
        <time>2014-06-24T11:46:54Z</time>
      </trkpt>
      <trkpt lat="59.9482854" lon="17.6916289">
        <ele>46.2806</ele>
        <time>2014-06-24T11:46:55Z</time>
      </trkpt>
      <trkpt lat="59.9482778" lon="17.6915839">
        <ele>45.7999</ele>
        <time>2014-06-24T11:46:56Z</time>
      </trkpt>
      <trkpt lat="59.9482731" lon="17.6915372">
        <ele>45.7999</ele>
        <time>2014-06-24T11:46:57Z</time>
      </trkpt>
      <trkpt lat="59.9482729" lon="17.6914865">
        <ele>45.3192</ele>
        <time>2014-06-24T11:46:58Z</time>
      </trkpt>
      <trkpt lat="59.9482741" lon="17.6914425">
        <ele>44.8386</ele>
        <time>2014-06-24T11:46:59Z</time>
      </trkpt>
      <trkpt lat="59.9482728" lon="17.6913907">
        <ele>44.8386</ele>
        <time>2014-06-24T11:47:00Z</time>
      </trkpt>
      <trkpt lat="59.9482657" lon="17.6913362">
        <ele>45.3192</ele>
        <time>2014-06-24T11:47:01Z</time>
      </trkpt>
      <trkpt lat="59.9482531" lon="17.6912848">
        <ele>45.3192</ele>
        <time>2014-06-24T11:47:02Z</time>
      </trkpt>
      <trkpt lat="59.9482374" lon="17.6912505">
        <ele>45.7999</ele>
        <time>2014-06-24T11:47:03Z</time>
      </trkpt>
      <trkpt lat="59.948215" lon="17.6912161">
        <ele>46.7612</ele>
        <time>2014-06-24T11:47:04Z</time>
      </trkpt>
      <trkpt lat="59.948192" lon="17.6911938">
        <ele>46.7612</ele>
        <time>2014-06-24T11:47:05Z</time>
      </trkpt>
      <trkpt lat="59.9481661" lon="17.6911778">
        <ele>46.7612</ele>
        <time>2014-06-24T11:47:06Z</time>
      </trkpt>
      <trkpt lat="59.9481423" lon="17.6911632">
        <ele>47.2418</ele>
        <time>2014-06-24T11:47:07Z</time>
      </trkpt>
      <trkpt lat="59.9481184" lon="17.6911487">
        <ele>47.7225</ele>
        <time>2014-06-24T11:47:08Z</time>
      </trkpt>
      <trkpt lat="59.9480938" lon="17.6911408">
        <ele>47.7225</ele>
        <time>2014-06-24T11:47:09Z</time>
      </trkpt>
      <trkpt lat="59.9480653" lon="17.691117">
        <ele>48.2034</ele>
        <time>2014-06-24T11:47:10Z</time>
      </trkpt>
      <trkpt lat="59.9480377" lon="17.6910789">
        <ele>48.684</ele>
        <time>2014-06-24T11:47:11Z</time>
      </trkpt>
      <trkpt lat="59.948015" lon="17.6910365">
        <ele>49.1646</ele>
        <time>2014-06-24T11:47:12Z</time>
      </trkpt>
      <trkpt lat="59.9479985" lon="17.6909971">
        <ele>49.1646</ele>
        <time>2014-06-24T11:47:13Z</time>
      </trkpt>
      <trkpt lat="59.9479858" lon="17.690952">
        <ele>49.6453</ele>
        <time>2014-06-24T11:47:14Z</time>
      </trkpt>
      <trkpt lat="59.9479783" lon="17.690901">
        <ele>49.6453</ele>
        <time>2014-06-24T11:47:15Z</time>
      </trkpt>
      <trkpt lat="59.947972" lon="17.6908446">
        <ele>50.6066</ele>
        <time>2014-06-24T11:47:16Z</time>
      </trkpt>
      <trkpt lat="59.9479721" lon="17.6907817">
        <ele>51.5679</ele>
        <time>2014-06-24T11:47:17Z</time>
      </trkpt>
      <trkpt lat="59.9479741" lon="17.6907356">
        <ele>51.5679</ele>
        <time>2014-06-24T11:47:18Z</time>
      </trkpt>
      <trkpt lat="59.9479744" lon="17.6907011">
        <ele>50.6066</ele>
        <time>2014-06-24T11:47:19Z</time>
      </trkpt>
      <trkpt lat="59.9479754" lon="17.6906593">
        <ele>50.6066</ele>
        <time>2014-06-24T11:47:20Z</time>
      </trkpt>
      <trkpt lat="59.9479845" lon="17.6906133">
        <ele>51.0872</ele>
        <time>2014-06-24T11:47:21Z</time>
      </trkpt>
      <trkpt lat="59.9479946" lon="17.6905716">
        <ele>51.0872</ele>
        <time>2014-06-24T11:47:22Z</time>
      </trkpt>
      <trkpt lat="59.9479959" lon="17.6905291">
        <ele>51.5679</ele>
        <time>2014-06-24T11:47:23Z</time>
      </trkpt>
      <trkpt lat="59.9479928" lon="17.6904889">
        <ele>52.0486</ele>
        <time>2014-06-24T11:47:24Z</time>
      </trkpt>
      <trkpt lat="59.9479792" lon="17.6904422">
        <ele>52.0486</ele>
        <time>2014-06-24T11:47:25Z</time>
      </trkpt>
      <trkpt lat="59.9479658" lon="17.6903936">
        <ele>51.5679</ele>
        <time>2014-06-24T11:47:26Z</time>
      </trkpt>
      <trkpt lat="59.9479493" lon="17.6903459">
        <ele>52.0486</ele>
        <time>2014-06-24T11:47:27Z</time>
      </trkpt>
      <trkpt lat="59.9479336" lon="17.6902996">
        <ele>51.5679</ele>
        <time>2014-06-24T11:47:28Z</time>
      </trkpt>
      <trkpt lat="59.9479171" lon="17.6902554">
        <ele>50.6066</ele>
        <time>2014-06-24T11:47:29Z</time>
      </trkpt>
      <trkpt lat="59.9478964" lon="17.6902133">
        <ele>50.126</ele>
        <time>2014-06-24T11:47:30Z</time>
      </trkpt>
      <trkpt lat="59.9478745" lon="17.6901698">
        <ele>50.6066</ele>
        <time>2014-06-24T11:47:31Z</time>
      </trkpt>
      <trkpt lat="59.9478604" lon="17.6901241">
        <ele>50.126</ele>
        <time>2014-06-24T11:47:32Z</time>
      </trkpt>
      <trkpt lat="59.9478507" lon="17.6900755">
        <ele>49.1646</ele>
        <time>2014-06-24T11:47:33Z</time>
      </trkpt>
      <trkpt lat="59.9478363" lon="17.6900284">
        <ele>48.684</ele>
        <time>2014-06-24T11:47:34Z</time>
      </trkpt>
      <trkpt lat="59.9478239" lon="17.6899885">
        <ele>47.7225</ele>
        <time>2014-06-24T11:47:35Z</time>
      </trkpt>
      <trkpt lat="59.9478156" lon="17.6899404">
        <ele>47.2418</ele>
        <time>2014-06-24T11:47:36Z</time>
      </trkpt>
      <trkpt lat="59.9478125" lon="17.689884">
        <ele>46.2806</ele>
        <time>2014-06-24T11:47:37Z</time>
      </trkpt>
      <trkpt lat="59.9478119" lon="17.6898253">
        <ele>46.2806</ele>
        <time>2014-06-24T11:47:38Z</time>
      </trkpt>
      <trkpt lat="59.9478103" lon="17.6897683">
        <ele>46.2806</ele>
        <time>2014-06-24T11:47:39Z</time>
      </trkpt>
      <trkpt lat="59.9478063" lon="17.6897125">
        <ele>46.2806</ele>
        <time>2014-06-24T11:47:40Z</time>
      </trkpt>
      <trkpt lat="59.9478015" lon="17.6896669">
        <ele>45.7999</ele>
        <time>2014-06-24T11:47:41Z</time>
      </trkpt>
      <trkpt lat="59.947796" lon="17.689622">
        <ele>46.2806</ele>
        <time>2014-06-24T11:47:42Z</time>
      </trkpt>
      <trkpt lat="59.9477917" lon="17.6895798">
        <ele>45.7999</ele>
        <time>2014-06-24T11:47:43Z</time>
      </trkpt>
      <trkpt lat="59.9477882" lon="17.6895342">
        <ele>45.7999</ele>
        <time>2014-06-24T11:47:44Z</time>
      </trkpt>
      <trkpt lat="59.947787" lon="17.6894868">
        <ele>45.7999</ele>
        <time>2014-06-24T11:47:45Z</time>
      </trkpt>
      <trkpt lat="59.9477835" lon="17.6894451">
        <ele>45.7999</ele>
        <time>2014-06-24T11:47:46Z</time>
      </trkpt>
      <trkpt lat="59.9477778" lon="17.6894047">
        <ele>45.7999</ele>
        <time>2014-06-24T11:47:47Z</time>
      </trkpt>
      <trkpt lat="59.9477748" lon="17.6893684">
        <ele>45.3192</ele>
        <time>2014-06-24T11:47:48Z</time>
      </trkpt>
      <trkpt lat="59.9477739" lon="17.6893249">
        <ele>45.3192</ele>
        <time>2014-06-24T11:47:49Z</time>
      </trkpt>
      <trkpt lat="59.9477757" lon="17.6892779">
        <ele>45.3192</ele>
        <time>2014-06-24T11:47:50Z</time>
      </trkpt>
      <trkpt lat="59.9477788" lon="17.6892327">
        <ele>45.3192</ele>
        <time>2014-06-24T11:47:51Z</time>
      </trkpt>
      <trkpt lat="59.9477817" lon="17.6891879">
        <ele>45.7999</ele>
        <time>2014-06-24T11:47:52Z</time>
      </trkpt>
      <trkpt lat="59.9477881" lon="17.6891441">
        <ele>45.3192</ele>
        <time>2014-06-24T11:47:53Z</time>
      </trkpt>
      <trkpt lat="59.9478" lon="17.6891052">
        <ele>44.8386</ele>
        <time>2014-06-24T11:47:54Z</time>
      </trkpt>
      <trkpt lat="59.9478144" lon="17.6890639">
        <ele>44.8386</ele>
        <time>2014-06-24T11:47:55Z</time>
      </trkpt>
      <trkpt lat="59.9478315" lon="17.6890225">
        <ele>44.8386</ele>
        <time>2014-06-24T11:47:56Z</time>
      </trkpt>
      <trkpt lat="59.9478511" lon="17.6889871">
        <ele>44.8386</ele>
        <time>2014-06-24T11:47:57Z</time>
      </trkpt>
      <trkpt lat="59.9478669" lon="17.6889479">
        <ele>44.358</ele>
        <time>2014-06-24T11:47:58Z</time>
      </trkpt>
      <trkpt lat="59.9478813" lon="17.6889061">
        <ele>43.8773</ele>
        <time>2014-06-24T11:47:59Z</time>
      </trkpt>
      <trkpt lat="59.9478953" lon="17.6888701">
        <ele>43.8773</ele>
        <time>2014-06-24T11:48:00Z</time>
      </trkpt>
      <trkpt lat="59.9479128" lon="17.6888345">
        <ele>43.8773</ele>
        <time>2014-06-24T11:48:01Z</time>
      </trkpt>
      <trkpt lat="59.947932" lon="17.6887913">
        <ele>43.8773</ele>
        <time>2014-06-24T11:48:02Z</time>
      </trkpt>
      <trkpt lat="59.9479503" lon="17.6887537">
        <ele>43.8773</ele>
        <time>2014-06-24T11:48:03Z</time>
      </trkpt>
      <trkpt lat="59.9479668" lon="17.6887208">
        <ele>43.8773</ele>
        <time>2014-06-24T11:48:04Z</time>
      </trkpt>
      <trkpt lat="59.9479807" lon="17.6886837">
        <ele>43.3966</ele>
        <time>2014-06-24T11:48:05Z</time>
      </trkpt>
      <trkpt lat="59.9479967" lon="17.6886499">
        <ele>43.3966</ele>
        <time>2014-06-24T11:48:06Z</time>
      </trkpt>
      <trkpt lat="59.9480171" lon="17.6886194">
        <ele>42.916</ele>
        <time>2014-06-24T11:48:07Z</time>
      </trkpt>
      <trkpt lat="59.9480384" lon="17.6885845">
        <ele>42.916</ele>
        <time>2014-06-24T11:48:08Z</time>
      </trkpt>
      <trkpt lat="59.9480596" lon="17.6885602">
        <ele>42.4354</ele>
        <time>2014-06-24T11:48:09Z</time>
      </trkpt>
      <trkpt lat="59.9480849" lon="17.6885469">
        <ele>41.9547</ele>
        <time>2014-06-24T11:48:10Z</time>
      </trkpt>
      <trkpt lat="59.9481123" lon="17.6885325">
        <ele>41.474</ele>
        <time>2014-06-24T11:48:11Z</time>
      </trkpt>
      <trkpt lat="59.9481377" lon="17.6885069">
        <ele>40.9934</ele>
        <time>2014-06-24T11:48:12Z</time>
      </trkpt>
      <trkpt lat="59.948161" lon="17.6884829">
        <ele>40.5128</ele>
        <time>2014-06-24T11:48:13Z</time>
      </trkpt>
      <trkpt lat="59.9481832" lon="17.6884603">
        <ele>40.5128</ele>
        <time>2014-06-24T11:48:14Z</time>
      </trkpt>
      <trkpt lat="59.9482052" lon="17.6884456">
        <ele>39.5513</ele>
        <time>2014-06-24T11:48:15Z</time>
      </trkpt>
      <trkpt lat="59.9482264" lon="17.688435">
        <ele>39.5513</ele>
        <time>2014-06-24T11:48:16Z</time>
      </trkpt>
      <trkpt lat="59.9482481" lon="17.6884307">
        <ele>39.5513</ele>
        <time>2014-06-24T11:48:17Z</time>
      </trkpt>
      <trkpt lat="59.9482709" lon="17.6884287">
        <ele>39.0707</ele>
        <time>2014-06-24T11:48:18Z</time>
      </trkpt>
      <trkpt lat="59.9482927" lon="17.6884246">
        <ele>39.0707</ele>
        <time>2014-06-24T11:48:19Z</time>
      </trkpt>
      <trkpt lat="59.9483181" lon="17.6884231">
        <ele>39.0707</ele>
        <time>2014-06-24T11:48:20Z</time>
      </trkpt>
      <trkpt lat="59.9483443" lon="17.6884189">
        <ele>38.5901</ele>
        <time>2014-06-24T11:48:21Z</time>
      </trkpt>
      <trkpt lat="59.9483702" lon="17.6884111">
        <ele>38.1094</ele>
        <time>2014-06-24T11:48:22Z</time>
      </trkpt>
      <trkpt lat="59.9483952" lon="17.6884085">
        <ele>38.1094</ele>
        <time>2014-06-24T11:48:23Z</time>
      </trkpt>
      <trkpt lat="59.9484184" lon="17.6884075">
        <ele>38.1094</ele>
        <time>2014-06-24T11:48:24Z</time>
      </trkpt>
      <trkpt lat="59.9484383" lon="17.6883992">
        <ele>37.6287</ele>
        <time>2014-06-24T11:48:25Z</time>
      </trkpt>
      <trkpt lat="59.9484591" lon="17.6883908">
        <ele>37.1481</ele>
        <time>2014-06-24T11:48:26Z</time>
      </trkpt>
      <trkpt lat="59.9484837" lon="17.6883795">
        <ele>36.6675</ele>
        <time>2014-06-24T11:48:27Z</time>
      </trkpt>
      <trkpt lat="59.9485078" lon="17.6883687">
        <ele>35.7061</ele>
        <time>2014-06-24T11:48:28Z</time>
      </trkpt>
      <trkpt lat="59.948533" lon="17.6883605">
        <ele>35.2255</ele>
        <time>2014-06-24T11:48:29Z</time>
      </trkpt>
      <trkpt lat="59.9485561" lon="17.6883499">
        <ele>34.7449</ele>
        <time>2014-06-24T11:48:30Z</time>
      </trkpt>
      <trkpt lat="59.9485808" lon="17.6883526">
        <ele>34.2642</ele>
        <time>2014-06-24T11:48:31Z</time>
      </trkpt>
      <trkpt lat="59.9486061" lon="17.6883534">
        <ele>34.7449</ele>
        <time>2014-06-24T11:48:32Z</time>
      </trkpt>
      <trkpt lat="59.948629" lon="17.6883552">
        <ele>34.2642</ele>
        <time>2014-06-24T11:48:33Z</time>
      </trkpt>
      <trkpt lat="59.9486568" lon="17.6883522">
        <ele>34.7449</ele>
        <time>2014-06-24T11:48:34Z</time>
      </trkpt>
      <trkpt lat="59.948676" lon="17.6883488">
        <ele>34.7449</ele>
        <time>2014-06-24T11:48:35Z</time>
      </trkpt>
      <trkpt lat="59.9486965" lon="17.688348">
        <ele>34.7449</ele>
        <time>2014-06-24T11:48:36Z</time>
      </trkpt>
      <trkpt lat="59.9487169" lon="17.6883431">
        <ele>34.2642</ele>
        <time>2014-06-24T11:48:37Z</time>
      </trkpt>
      <trkpt lat="59.9487359" lon="17.6883424">
        <ele>34.2642</ele>
        <time>2014-06-24T11:48:38Z</time>
      </trkpt>
      <trkpt lat="59.9487561" lon="17.6883464">
        <ele>33.3029</ele>
        <time>2014-06-24T11:48:39Z</time>
      </trkpt>
      <trkpt lat="59.9487775" lon="17.6883483">
        <ele>33.3029</ele>
        <time>2014-06-24T11:48:40Z</time>
      </trkpt>
      <trkpt lat="59.9487993" lon="17.6883469">
        <ele>33.3029</ele>
        <time>2014-06-24T11:48:41Z</time>
      </trkpt>
      <trkpt lat="59.9488198" lon="17.688349">
        <ele>33.3029</ele>
        <time>2014-06-24T11:48:42Z</time>
      </trkpt>
      <trkpt lat="59.9488433" lon="17.6883477">
        <ele>33.7834</ele>
        <time>2014-06-24T11:48:43Z</time>
      </trkpt>
      <trkpt lat="59.9488657" lon="17.6883449">
        <ele>33.7834</ele>
        <time>2014-06-24T11:48:44Z</time>
      </trkpt>
      <trkpt lat="59.9488874" lon="17.6883422">
        <ele>33.7834</ele>
        <time>2014-06-24T11:48:45Z</time>
      </trkpt>
      <trkpt lat="59.9489117" lon="17.6883422">
        <ele>34.2642</ele>
        <time>2014-06-24T11:48:46Z</time>
      </trkpt>
      <trkpt lat="59.9489353" lon="17.6883308">
        <ele>34.2642</ele>
        <time>2014-06-24T11:48:47Z</time>
      </trkpt>
      <trkpt lat="59.9489636" lon="17.6883287">
        <ele>35.2255</ele>
        <time>2014-06-24T11:48:48Z</time>
      </trkpt>
      <trkpt lat="59.9489878" lon="17.6883314">
        <ele>35.7061</ele>
        <time>2014-06-24T11:48:49Z</time>
      </trkpt>
      <trkpt lat="59.9490059" lon="17.6883306">
        <ele>35.7061</ele>
        <time>2014-06-24T11:48:50Z</time>
      </trkpt>
      <trkpt lat="59.94902" lon="17.6883262">
        <ele>35.7061</ele>
        <time>2014-06-24T11:48:51Z</time>
      </trkpt>
      <trkpt lat="59.9490368" lon="17.6883172">
        <ele>35.2255</ele>
        <time>2014-06-24T11:48:52Z</time>
      </trkpt>
      <trkpt lat="59.9490593" lon="17.6883111">
        <ele>35.2255</ele>
        <time>2014-06-24T11:48:53Z</time>
      </trkpt>
      <trkpt lat="59.9490876" lon="17.6882973">
        <ele>34.7449</ele>
        <time>2014-06-24T11:48:54Z</time>
      </trkpt>
      <trkpt lat="59.9491133" lon="17.6882796">
        <ele>34.2642</ele>
        <time>2014-06-24T11:48:55Z</time>
      </trkpt>
      <trkpt lat="59.9491423" lon="17.6882674">
        <ele>33.7834</ele>
        <time>2014-06-24T11:48:56Z</time>
      </trkpt>
      <trkpt lat="59.9491693" lon="17.68825">
        <ele>33.7834</ele>
        <time>2014-06-24T11:48:57Z</time>
      </trkpt>
      <trkpt lat="59.9491964" lon="17.6882335">
        <ele>33.7834</ele>
        <time>2014-06-24T11:48:58Z</time>
      </trkpt>
      <trkpt lat="59.949221" lon="17.688218">
        <ele>34.7449</ele>
        <time>2014-06-24T11:48:59Z</time>
      </trkpt>
      <trkpt lat="59.9492454" lon="17.6881955">
        <ele>35.7061</ele>
        <time>2014-06-24T11:49:00Z</time>
      </trkpt>
      <trkpt lat="59.9492679" lon="17.6881661">
        <ele>36.1868</ele>
        <time>2014-06-24T11:49:01Z</time>
      </trkpt>
      <trkpt lat="59.9492969" lon="17.6881381">
        <ele>36.6675</ele>
        <time>2014-06-24T11:49:02Z</time>
      </trkpt>
      <trkpt lat="59.9493225" lon="17.6881181">
        <ele>37.1481</ele>
        <time>2014-06-24T11:49:03Z</time>
      </trkpt>
      <trkpt lat="59.9493495" lon="17.6880967">
        <ele>37.6287</ele>
        <time>2014-06-24T11:49:04Z</time>
      </trkpt>
      <trkpt lat="59.949377" lon="17.6880787">
        <ele>38.1094</ele>
        <time>2014-06-24T11:49:05Z</time>
      </trkpt>
      <trkpt lat="59.9494048" lon="17.688062">
        <ele>38.5901</ele>
        <time>2014-06-24T11:49:06Z</time>
      </trkpt>
      <trkpt lat="59.9494375" lon="17.6880483">
        <ele>39.0707</ele>
        <time>2014-06-24T11:49:07Z</time>
      </trkpt>
      <trkpt lat="59.9494697" lon="17.6880334">
        <ele>39.0707</ele>
        <time>2014-06-24T11:49:08Z</time>
      </trkpt>
      <trkpt lat="59.9494951" lon="17.6880134">
        <ele>39.0707</ele>
        <time>2014-06-24T11:49:09Z</time>
      </trkpt>
      <trkpt lat="59.9495213" lon="17.6879939">
        <ele>39.5513</ele>
        <time>2014-06-24T11:49:10Z</time>
      </trkpt>
      <trkpt lat="59.9495487" lon="17.6879751">
        <ele>39.5513</ele>
        <time>2014-06-24T11:49:11Z</time>
      </trkpt>
      <trkpt lat="59.9495779" lon="17.6879558">
        <ele>40.0321</ele>
        <time>2014-06-24T11:49:12Z</time>
      </trkpt>
      <trkpt lat="59.949607" lon="17.6879349">
        <ele>39.5513</ele>
        <time>2014-06-24T11:49:13Z</time>
      </trkpt>
      <trkpt lat="59.9496374" lon="17.6879155">
        <ele>40.0321</ele>
        <time>2014-06-24T11:49:14Z</time>
      </trkpt>
      <trkpt lat="59.9496678" lon="17.6878925">
        <ele>40.5128</ele>
        <time>2014-06-24T11:49:15Z</time>
      </trkpt>
      <trkpt lat="59.9496949" lon="17.6878672">
        <ele>40.5128</ele>
        <time>2014-06-24T11:49:16Z</time>
      </trkpt>
      <trkpt lat="59.9497193" lon="17.6878393">
        <ele>40.9934</ele>
        <time>2014-06-24T11:49:17Z</time>
      </trkpt>
      <trkpt lat="59.9497447" lon="17.6878123">
        <ele>41.474</ele>
        <time>2014-06-24T11:49:18Z</time>
      </trkpt>
      <trkpt lat="59.9497722" lon="17.6877942">
        <ele>41.474</ele>
        <time>2014-06-24T11:49:19Z</time>
      </trkpt>
      <trkpt lat="59.949798" lon="17.6877714">
        <ele>41.9547</ele>
        <time>2014-06-24T11:49:20Z</time>
      </trkpt>
      <trkpt lat="59.9498255" lon="17.6877477">
        <ele>41.9547</ele>
        <time>2014-06-24T11:49:21Z</time>
      </trkpt>
      <trkpt lat="59.9498574" lon="17.6877288">
        <ele>41.9547</ele>
        <time>2014-06-24T11:49:22Z</time>
      </trkpt>
      <trkpt lat="59.9498861" lon="17.6877176">
        <ele>42.4354</ele>
        <time>2014-06-24T11:49:23Z</time>
      </trkpt>
      <trkpt lat="59.9499134" lon="17.6877138">
        <ele>42.4354</ele>
        <time>2014-06-24T11:49:24Z</time>
      </trkpt>
      <trkpt lat="59.9499446" lon="17.6877014">
        <ele>42.916</ele>
        <time>2014-06-24T11:49:25Z</time>
      </trkpt>
      <trkpt lat="59.9499761" lon="17.6876931">
        <ele>42.916</ele>
        <time>2014-06-24T11:49:26Z</time>
      </trkpt>
      <trkpt lat="59.9500057" lon="17.6876917">
        <ele>42.916</ele>
        <time>2014-06-24T11:49:27Z</time>
      </trkpt>
      <trkpt lat="59.9500353" lon="17.6876854">
        <ele>42.916</ele>
        <time>2014-06-24T11:49:28Z</time>
      </trkpt>
      <trkpt lat="59.9500658" lon="17.687688">
        <ele>42.916</ele>
        <time>2014-06-24T11:49:29Z</time>
      </trkpt>
      <trkpt lat="59.9500953" lon="17.687687">
        <ele>42.916</ele>
        <time>2014-06-24T11:49:30Z</time>
      </trkpt>
      <trkpt lat="59.9501213" lon="17.6876766">
        <ele>42.916</ele>
        <time>2014-06-24T11:49:31Z</time>
      </trkpt>
      <trkpt lat="59.950141" lon="17.6876555">
        <ele>43.3966</ele>
        <time>2014-06-24T11:49:32Z</time>
      </trkpt>
      <trkpt lat="59.9501555" lon="17.6876274">
        <ele>43.3966</ele>
        <time>2014-06-24T11:49:33Z</time>
      </trkpt>
      <trkpt lat="59.950171" lon="17.6876">
        <ele>42.916</ele>
        <time>2014-06-24T11:49:34Z</time>
      </trkpt>
      <trkpt lat="59.9501886" lon="17.6875624">
        <ele>41.9547</ele>
        <time>2014-06-24T11:49:35Z</time>
      </trkpt>
      <trkpt lat="59.9502034" lon="17.6875062">
        <ele>41.474</ele>
        <time>2014-06-24T11:49:36Z</time>
      </trkpt>
      <trkpt lat="59.9502139" lon="17.6874537">
        <ele>40.5128</ele>
        <time>2014-06-24T11:49:37Z</time>
      </trkpt>
      <trkpt lat="59.9502243" lon="17.6874047">
        <ele>40.0321</ele>
        <time>2014-06-24T11:49:38Z</time>
      </trkpt>
      <trkpt lat="59.9502326" lon="17.6873589">
        <ele>39.5513</ele>
        <time>2014-06-24T11:49:39Z</time>
      </trkpt>
      <trkpt lat="59.9502415" lon="17.6873143">
        <ele>39.0707</ele>
        <time>2014-06-24T11:49:40Z</time>
      </trkpt>
      <trkpt lat="59.9502559" lon="17.6872739">
        <ele>38.5901</ele>
        <time>2014-06-24T11:49:41Z</time>
      </trkpt>
      <trkpt lat="59.9502689" lon="17.6872296">
        <ele>38.1094</ele>
        <time>2014-06-24T11:49:42Z</time>
      </trkpt>
      <trkpt lat="59.9502786" lon="17.6871796">
        <ele>38.1094</ele>
        <time>2014-06-24T11:49:43Z</time>
      </trkpt>
      <trkpt lat="59.9502839" lon="17.6871385">
        <ele>37.6287</ele>
        <time>2014-06-24T11:49:44Z</time>
      </trkpt>
      <trkpt lat="59.9502927" lon="17.6870941">
        <ele>37.6287</ele>
        <time>2014-06-24T11:49:45Z</time>
      </trkpt>
      <trkpt lat="59.9503097" lon="17.687051">
        <ele>37.6287</ele>
        <time>2014-06-24T11:49:46Z</time>
      </trkpt>
      <trkpt lat="59.9503259" lon="17.6870104">
        <ele>37.6287</ele>
        <time>2014-06-24T11:49:47Z</time>
      </trkpt>
      <trkpt lat="59.950344" lon="17.6869704">
        <ele>37.6287</ele>
        <time>2014-06-24T11:49:48Z</time>
      </trkpt>
      <trkpt lat="59.9503621" lon="17.6869296">
        <ele>38.1094</ele>
        <time>2014-06-24T11:49:49Z</time>
      </trkpt>
      <trkpt lat="59.950376" lon="17.6868856">
        <ele>38.1094</ele>
        <time>2014-06-24T11:49:50Z</time>
      </trkpt>
      <trkpt lat="59.9503917" lon="17.6868425">
        <ele>38.5901</ele>
        <time>2014-06-24T11:49:51Z</time>
      </trkpt>
      <trkpt lat="59.9504081" lon="17.6868058">
        <ele>39.0707</ele>
        <time>2014-06-24T11:49:52Z</time>
      </trkpt>
      <trkpt lat="59.950422" lon="17.6867699">
        <ele>39.5513</ele>
        <time>2014-06-24T11:49:53Z</time>
      </trkpt>
      <trkpt lat="59.9504361" lon="17.6867328">
        <ele>40.0321</ele>
        <time>2014-06-24T11:49:54Z</time>
      </trkpt>
      <trkpt lat="59.9504523" lon="17.686697">
        <ele>40.0321</ele>
        <time>2014-06-24T11:49:55Z</time>
      </trkpt>
      <trkpt lat="59.9504683" lon="17.6866611">
        <ele>40.0321</ele>
        <time>2014-06-24T11:49:56Z</time>
      </trkpt>
      <trkpt lat="59.9504859" lon="17.6866255">
        <ele>40.5128</ele>
        <time>2014-06-24T11:49:57Z</time>
      </trkpt>
      <trkpt lat="59.9505056" lon="17.6865894">
        <ele>40.5128</ele>
        <time>2014-06-24T11:49:58Z</time>
      </trkpt>
      <trkpt lat="59.9505275" lon="17.6865552">
        <ele>40.9934</ele>
        <time>2014-06-24T11:49:59Z</time>
      </trkpt>
      <trkpt lat="59.950547" lon="17.6865163">
        <ele>40.9934</ele>
        <time>2014-06-24T11:50:00Z</time>
      </trkpt>
      <trkpt lat="59.9505676" lon="17.6864743">
        <ele>41.474</ele>
        <time>2014-06-24T11:50:01Z</time>
      </trkpt>
      <trkpt lat="59.9505895" lon="17.6864379">
        <ele>41.474</ele>
        <time>2014-06-24T11:50:02Z</time>
      </trkpt>
      <trkpt lat="59.9506101" lon="17.6864054">
        <ele>41.9547</ele>
        <time>2014-06-24T11:50:03Z</time>
      </trkpt>
      <trkpt lat="59.9506299" lon="17.6863666">
        <ele>41.474</ele>
        <time>2014-06-24T11:50:04Z</time>
      </trkpt>
      <trkpt lat="59.9506527" lon="17.686335">
        <ele>41.474</ele>
        <time>2014-06-24T11:50:05Z</time>
      </trkpt>
      <trkpt lat="59.9506754" lon="17.6863028">
        <ele>41.9547</ele>
        <time>2014-06-24T11:50:06Z</time>
      </trkpt>
      <trkpt lat="59.9506993" lon="17.6862774">
        <ele>41.9547</ele>
        <time>2014-06-24T11:50:07Z</time>
      </trkpt>
      <trkpt lat="59.950723" lon="17.6862561">
        <ele>41.9547</ele>
        <time>2014-06-24T11:50:08Z</time>
      </trkpt>
      <trkpt lat="59.9507465" lon="17.6862368">
        <ele>41.9547</ele>
        <time>2014-06-24T11:50:09Z</time>
      </trkpt>
      <trkpt lat="59.9507688" lon="17.686223">
        <ele>41.474</ele>
        <time>2014-06-24T11:50:10Z</time>
      </trkpt>
      <trkpt lat="59.9507921" lon="17.686212">
        <ele>41.9547</ele>
        <time>2014-06-24T11:50:11Z</time>
      </trkpt>
      <trkpt lat="59.9508162" lon="17.6861981">
        <ele>41.9547</ele>
        <time>2014-06-24T11:50:12Z</time>
      </trkpt>
      <trkpt lat="59.9508365" lon="17.686195">
        <ele>41.474</ele>
        <time>2014-06-24T11:50:13Z</time>
      </trkpt>
      <trkpt lat="59.9508563" lon="17.6861882">
        <ele>41.474</ele>
        <time>2014-06-24T11:50:14Z</time>
      </trkpt>
      <trkpt lat="59.9508837" lon="17.6861863">
        <ele>41.474</ele>
        <time>2014-06-24T11:50:15Z</time>
      </trkpt>
      <trkpt lat="59.95091" lon="17.6861785">
        <ele>41.474</ele>
        <time>2014-06-24T11:50:16Z</time>
      </trkpt>
      <trkpt lat="59.9509319" lon="17.6861739">
        <ele>41.474</ele>
        <time>2014-06-24T11:50:17Z</time>
      </trkpt>
      <trkpt lat="59.9509537" lon="17.6861659">
        <ele>41.474</ele>
        <time>2014-06-24T11:50:18Z</time>
      </trkpt>
      <trkpt lat="59.9509764" lon="17.6861567">
        <ele>40.9934</ele>
        <time>2014-06-24T11:50:19Z</time>
      </trkpt>
      <trkpt lat="59.9509996" lon="17.6861485">
        <ele>41.474</ele>
        <time>2014-06-24T11:50:20Z</time>
      </trkpt>
      <trkpt lat="59.9510272" lon="17.6861374">
        <ele>41.474</ele>
        <time>2014-06-24T11:50:21Z</time>
      </trkpt>
      <trkpt lat="59.9510509" lon="17.6861271">
        <ele>41.474</ele>
        <time>2014-06-24T11:50:22Z</time>
      </trkpt>
      <trkpt lat="59.9510748" lon="17.6861173">
        <ele>41.474</ele>
        <time>2014-06-24T11:50:23Z</time>
      </trkpt>
      <trkpt lat="59.9511003" lon="17.6861039">
        <ele>40.9934</ele>
        <time>2014-06-24T11:50:24Z</time>
      </trkpt>
      <trkpt lat="59.9511272" lon="17.6860848">
        <ele>40.5128</ele>
        <time>2014-06-24T11:50:25Z</time>
      </trkpt>
      <trkpt lat="59.9511538" lon="17.6860677">
        <ele>40.5128</ele>
        <time>2014-06-24T11:50:26Z</time>
      </trkpt>
      <trkpt lat="59.9511778" lon="17.6860531">
        <ele>40.0321</ele>
        <time>2014-06-24T11:50:27Z</time>
      </trkpt>
      <trkpt lat="59.9512035" lon="17.6860354">
        <ele>40.0321</ele>
        <time>2014-06-24T11:50:28Z</time>
      </trkpt>
      <trkpt lat="59.9512268" lon="17.6860271">
        <ele>40.0321</ele>
        <time>2014-06-24T11:50:29Z</time>
      </trkpt>
      <trkpt lat="59.9512469" lon="17.6860242">
        <ele>40.0321</ele>
        <time>2014-06-24T11:50:30Z</time>
      </trkpt>
      <trkpt lat="59.9512651" lon="17.6860195">
        <ele>39.5513</ele>
        <time>2014-06-24T11:50:31Z</time>
      </trkpt>
      <trkpt lat="59.9512847" lon="17.686027">
        <ele>39.0707</ele>
        <time>2014-06-24T11:50:32Z</time>
      </trkpt>
      <trkpt lat="59.9513033" lon="17.6860381">
        <ele>39.0707</ele>
        <time>2014-06-24T11:50:33Z</time>
      </trkpt>
      <trkpt lat="59.9513216" lon="17.6860436">
        <ele>38.5901</ele>
        <time>2014-06-24T11:50:34Z</time>
      </trkpt>
      <trkpt lat="59.9513391" lon="17.6860512">
        <ele>38.1094</ele>
        <time>2014-06-24T11:50:35Z</time>
      </trkpt>
      <trkpt lat="59.951357" lon="17.6860532">
        <ele>36.6675</ele>
        <time>2014-06-24T11:50:36Z</time>
      </trkpt>
      <trkpt lat="59.95138" lon="17.686045">
        <ele>35.7061</ele>
        <time>2014-06-24T11:50:37Z</time>
      </trkpt>
      <trkpt lat="59.9514121" lon="17.6860243">
        <ele>33.7834</ele>
        <time>2014-06-24T11:50:38Z</time>
      </trkpt>
      <trkpt lat="59.9514389" lon="17.6860076">
        <ele>33.3029</ele>
        <time>2014-06-24T11:50:39Z</time>
      </trkpt>
      <trkpt lat="59.9514664" lon="17.6859804">
        <ele>33.3029</ele>
        <time>2014-06-24T11:50:40Z</time>
      </trkpt>
      <trkpt lat="59.9514944" lon="17.685964">
        <ele>32.8223</ele>
        <time>2014-06-24T11:50:41Z</time>
      </trkpt>
      <trkpt lat="59.951522" lon="17.6859365">
        <ele>32.3416</ele>
        <time>2014-06-24T11:50:42Z</time>
      </trkpt>
      <trkpt lat="59.9515432" lon="17.6859069">
        <ele>31.8607</ele>
        <time>2014-06-24T11:50:43Z</time>
      </trkpt>
      <trkpt lat="59.9515661" lon="17.6858796">
        <ele>32.3416</ele>
        <time>2014-06-24T11:50:44Z</time>
      </trkpt>
      <trkpt lat="59.9515923" lon="17.6858397">
        <ele>31.8607</ele>
        <time>2014-06-24T11:50:45Z</time>
      </trkpt>
      <trkpt lat="59.9516137" lon="17.6857958">
        <ele>31.8607</ele>
        <time>2014-06-24T11:50:46Z</time>
      </trkpt>
      <trkpt lat="59.9516303" lon="17.6857532">
        <ele>31.3801</ele>
        <time>2014-06-24T11:50:47Z</time>
      </trkpt>
      <trkpt lat="59.9516483" lon="17.6857159">
        <ele>31.3801</ele>
        <time>2014-06-24T11:50:48Z</time>
      </trkpt>
      <trkpt lat="59.9516607" lon="17.6856761">
        <ele>31.3801</ele>
        <time>2014-06-24T11:50:49Z</time>
      </trkpt>
      <trkpt lat="59.9516774" lon="17.6856334">
        <ele>31.3801</ele>
        <time>2014-06-24T11:50:50Z</time>
      </trkpt>
      <trkpt lat="59.9516985" lon="17.6855847">
        <ele>31.8607</ele>
        <time>2014-06-24T11:50:51Z</time>
      </trkpt>
      <trkpt lat="59.9517144" lon="17.6855412">
        <ele>32.3416</ele>
        <time>2014-06-24T11:50:52Z</time>
      </trkpt>
      <trkpt lat="59.9517282" lon="17.6854916">
        <ele>31.8607</ele>
        <time>2014-06-24T11:50:53Z</time>
      </trkpt>
      <trkpt lat="59.9517437" lon="17.6854467">
        <ele>31.8607</ele>
        <time>2014-06-24T11:50:54Z</time>
      </trkpt>
      <trkpt lat="59.9517618" lon="17.6853997">
        <ele>31.3801</ele>
        <time>2014-06-24T11:50:55Z</time>
      </trkpt>
      <trkpt lat="59.9517825" lon="17.6853503">
        <ele>31.8607</ele>
        <time>2014-06-24T11:50:56Z</time>
      </trkpt>
      <trkpt lat="59.9517944" lon="17.6852982">
        <ele>31.8607</ele>
        <time>2014-06-24T11:50:57Z</time>
      </trkpt>
      <trkpt lat="59.9518074" lon="17.6852495">
        <ele>31.8607</ele>
        <time>2014-06-24T11:50:58Z</time>
      </trkpt>
      <trkpt lat="59.9518233" lon="17.6852066">
        <ele>31.8607</ele>
        <time>2014-06-24T11:50:59Z</time>
      </trkpt>
      <trkpt lat="59.9518396" lon="17.6851581">
        <ele>31.8607</ele>
        <time>2014-06-24T11:51:00Z</time>
      </trkpt>
      <trkpt lat="59.9518577" lon="17.6851233">
        <ele>31.8607</ele>
        <time>2014-06-24T11:51:01Z</time>
      </trkpt>
      <trkpt lat="59.9518735" lon="17.6850911">
        <ele>32.8223</ele>
        <time>2014-06-24T11:51:02Z</time>
      </trkpt>
      <trkpt lat="59.9518904" lon="17.68506">
        <ele>33.3029</ele>
        <time>2014-06-24T11:51:03Z</time>
      </trkpt>
      <trkpt lat="59.9519093" lon="17.6850276">
        <ele>33.3029</ele>
        <time>2014-06-24T11:51:04Z</time>
      </trkpt>
      <trkpt lat="59.9519229" lon="17.6849937">
        <ele>34.2642</ele>
        <time>2014-06-24T11:51:05Z</time>
      </trkpt>
      <trkpt lat="59.9519369" lon="17.6849734">
        <ele>33.7834</ele>
        <time>2014-06-24T11:51:06Z</time>
      </trkpt>
      <trkpt lat="59.9519543" lon="17.6849457">
        <ele>34.2642</ele>
        <time>2014-06-24T11:51:07Z</time>
      </trkpt>
      <trkpt lat="59.9519734" lon="17.6849103">
        <ele>33.7834</ele>
        <time>2014-06-24T11:51:08Z</time>
      </trkpt>
      <trkpt lat="59.9519949" lon="17.6848944">
        <ele>33.3029</ele>
        <time>2014-06-24T11:51:09Z</time>
      </trkpt>
      <trkpt lat="59.9520123" lon="17.6848595">
        <ele>34.2642</ele>
        <time>2014-06-24T11:51:10Z</time>
      </trkpt>
      <trkpt lat="59.952032" lon="17.6848161">
        <ele>34.2642</ele>
        <time>2014-06-24T11:51:11Z</time>
      </trkpt>
      <trkpt lat="59.9520518" lon="17.6847711">
        <ele>33.7834</ele>
        <time>2014-06-24T11:51:12Z</time>
      </trkpt>
      <trkpt lat="59.952068" lon="17.6847356">
        <ele>33.7834</ele>
        <time>2014-06-24T11:51:13Z</time>
      </trkpt>
      <trkpt lat="59.952083" lon="17.6846925">
        <ele>34.2642</ele>
        <time>2014-06-24T11:51:14Z</time>
      </trkpt>
      <trkpt lat="59.9521019" lon="17.6846612">
        <ele>34.2642</ele>
        <time>2014-06-24T11:51:15Z</time>
      </trkpt>
      <trkpt lat="59.9521164" lon="17.6846286">
        <ele>33.7834</ele>
        <time>2014-06-24T11:51:16Z</time>
      </trkpt>
      <trkpt lat="59.9521347" lon="17.6845917">
        <ele>34.2642</ele>
        <time>2014-06-24T11:51:17Z</time>
      </trkpt>
      <trkpt lat="59.9521544" lon="17.6845727">
        <ele>33.7834</ele>
        <time>2014-06-24T11:51:18Z</time>
      </trkpt>
      <trkpt lat="59.95217" lon="17.6845472">
        <ele>33.7834</ele>
        <time>2014-06-24T11:51:19Z</time>
      </trkpt>
      <trkpt lat="59.9521806" lon="17.6845108">
        <ele>33.7834</ele>
        <time>2014-06-24T11:51:20Z</time>
      </trkpt>
      <trkpt lat="59.952192" lon="17.6844739">
        <ele>34.2642</ele>
        <time>2014-06-24T11:51:21Z</time>
      </trkpt>
      <trkpt lat="59.9522011" lon="17.6844283">
        <ele>34.2642</ele>
        <time>2014-06-24T11:51:22Z</time>
      </trkpt>
      <trkpt lat="59.9522109" lon="17.6843875">
        <ele>33.7834</ele>
        <time>2014-06-24T11:51:23Z</time>
      </trkpt>
      <trkpt lat="59.9522179" lon="17.6843436">
        <ele>33.7834</ele>
        <time>2014-06-24T11:51:24Z</time>
      </trkpt>
      <trkpt lat="59.9522233" lon="17.6842871">
        <ele>33.3029</ele>
        <time>2014-06-24T11:51:25Z</time>
      </trkpt>
      <trkpt lat="59.9522328" lon="17.6842318">
        <ele>32.8223</ele>
        <time>2014-06-24T11:51:26Z</time>
      </trkpt>
      <trkpt lat="59.9522457" lon="17.6841786">
        <ele>32.3416</ele>
        <time>2014-06-24T11:51:27Z</time>
      </trkpt>
      <trkpt lat="59.9522576" lon="17.6841276">
        <ele>32.3416</ele>
        <time>2014-06-24T11:51:28Z</time>
      </trkpt>
      <trkpt lat="59.9522673" lon="17.6840837">
        <ele>31.3801</ele>
        <time>2014-06-24T11:51:29Z</time>
      </trkpt>
      <trkpt lat="59.9522777" lon="17.6840412">
        <ele>31.3801</ele>
        <time>2014-06-24T11:51:30Z</time>
      </trkpt>
      <trkpt lat="59.9522891" lon="17.6839966">
        <ele>31.3801</ele>
        <time>2014-06-24T11:51:31Z</time>
      </trkpt>
      <trkpt lat="59.9522983" lon="17.6839454">
        <ele>31.3801</ele>
        <time>2014-06-24T11:51:32Z</time>
      </trkpt>
      <trkpt lat="59.9523123" lon="17.6838982">
        <ele>31.3801</ele>
        <time>2014-06-24T11:51:33Z</time>
      </trkpt>
      <trkpt lat="59.9523304" lon="17.6838541">
        <ele>31.3801</ele>
        <time>2014-06-24T11:51:34Z</time>
      </trkpt>
      <trkpt lat="59.9523465" lon="17.6838084">
        <ele>31.8607</ele>
        <time>2014-06-24T11:51:35Z</time>
      </trkpt>
      <trkpt lat="59.9523678" lon="17.6837609">
        <ele>31.8607</ele>
        <time>2014-06-24T11:51:36Z</time>
      </trkpt>
      <trkpt lat="59.9523879" lon="17.683722">
        <ele>32.3416</ele>
        <time>2014-06-24T11:51:37Z</time>
      </trkpt>
      <trkpt lat="59.9524041" lon="17.6836853">
        <ele>32.3416</ele>
        <time>2014-06-24T11:51:38Z</time>
      </trkpt>
      <trkpt lat="59.9524238" lon="17.6836491">
        <ele>32.8223</ele>
        <time>2014-06-24T11:51:39Z</time>
      </trkpt>
      <trkpt lat="59.952443" lon="17.6836086">
        <ele>32.8223</ele>
        <time>2014-06-24T11:51:40Z</time>
      </trkpt>
      <trkpt lat="59.9524625" lon="17.6835679">
        <ele>33.3029</ele>
        <time>2014-06-24T11:51:41Z</time>
      </trkpt>
      <trkpt lat="59.9524811" lon="17.6835278">
        <ele>33.3029</ele>
        <time>2014-06-24T11:51:42Z</time>
      </trkpt>
      <trkpt lat="59.9524978" lon="17.6834894">
        <ele>33.3029</ele>
        <time>2014-06-24T11:51:43Z</time>
      </trkpt>
      <trkpt lat="59.952516" lon="17.6834529">
        <ele>33.7834</ele>
        <time>2014-06-24T11:51:44Z</time>
      </trkpt>
      <trkpt lat="59.9525335" lon="17.6834189">
        <ele>33.7834</ele>
        <time>2014-06-24T11:51:45Z</time>
      </trkpt>
      <trkpt lat="59.9525506" lon="17.6833827">
        <ele>33.3029</ele>
        <time>2014-06-24T11:51:46Z</time>
      </trkpt>
      <trkpt lat="59.9525697" lon="17.6833436">
        <ele>33.3029</ele>
        <time>2014-06-24T11:51:47Z</time>
      </trkpt>
      <trkpt lat="59.9525866" lon="17.6833075">
        <ele>33.3029</ele>
        <time>2014-06-24T11:51:48Z</time>
      </trkpt>
      <trkpt lat="59.9526041" lon="17.6832708">
        <ele>33.7834</ele>
        <time>2014-06-24T11:51:49Z</time>
      </trkpt>
      <trkpt lat="59.9526228" lon="17.6832384">
        <ele>33.7834</ele>
        <time>2014-06-24T11:51:50Z</time>
      </trkpt>
      <trkpt lat="59.952644" lon="17.6832088">
        <ele>33.7834</ele>
        <time>2014-06-24T11:51:51Z</time>
      </trkpt>
      <trkpt lat="59.9526651" lon="17.6831734">
        <ele>33.3029</ele>
        <time>2014-06-24T11:51:52Z</time>
      </trkpt>
      <trkpt lat="59.9526853" lon="17.6831295">
        <ele>33.3029</ele>
        <time>2014-06-24T11:51:53Z</time>
      </trkpt>
      <trkpt lat="59.9527066" lon="17.6830865">
        <ele>33.3029</ele>
        <time>2014-06-24T11:51:54Z</time>
      </trkpt>
      <trkpt lat="59.9527247" lon="17.6830518">
        <ele>32.8223</ele>
        <time>2014-06-24T11:51:55Z</time>
      </trkpt>
      <trkpt lat="59.9527446" lon="17.6830144">
        <ele>32.8223</ele>
        <time>2014-06-24T11:51:56Z</time>
      </trkpt>
      <trkpt lat="59.952765" lon="17.6829747">
        <ele>32.8223</ele>
        <time>2014-06-24T11:51:57Z</time>
      </trkpt>
      <trkpt lat="59.9527838" lon="17.6829347">
        <ele>33.3029</ele>
        <time>2014-06-24T11:51:58Z</time>
      </trkpt>
      <trkpt lat="59.9528" lon="17.6828948">
        <ele>33.3029</ele>
        <time>2014-06-24T11:51:59Z</time>
      </trkpt>
      <trkpt lat="59.9528143" lon="17.6828535">
        <ele>33.7834</ele>
        <time>2014-06-24T11:52:00Z</time>
      </trkpt>
      <trkpt lat="59.9528331" lon="17.6828094">
        <ele>33.7834</ele>
        <time>2014-06-24T11:52:01Z</time>
      </trkpt>
      <trkpt lat="59.952853" lon="17.6827675">
        <ele>33.7834</ele>
        <time>2014-06-24T11:52:02Z</time>
      </trkpt>
      <trkpt lat="59.9528698" lon="17.6827287">
        <ele>33.7834</ele>
        <time>2014-06-24T11:52:03Z</time>
      </trkpt>
      <trkpt lat="59.9528895" lon="17.6826923">
        <ele>33.7834</ele>
        <time>2014-06-24T11:52:04Z</time>
      </trkpt>
      <trkpt lat="59.9529069" lon="17.6826571">
        <ele>33.7834</ele>
        <time>2014-06-24T11:52:05Z</time>
      </trkpt>
      <trkpt lat="59.9529259" lon="17.6826213">
        <ele>33.7834</ele>
        <time>2014-06-24T11:52:06Z</time>
      </trkpt>
      <trkpt lat="59.9529439" lon="17.6825872">
        <ele>34.2642</ele>
        <time>2014-06-24T11:52:07Z</time>
      </trkpt>
      <trkpt lat="59.9529608" lon="17.6825535">
        <ele>34.7449</ele>
        <time>2014-06-24T11:52:08Z</time>
      </trkpt>
      <trkpt lat="59.9529786" lon="17.6825198">
        <ele>34.7449</ele>
        <time>2014-06-24T11:52:09Z</time>
      </trkpt>
      <trkpt lat="59.9529966" lon="17.6824824">
        <ele>35.2255</ele>
        <time>2014-06-24T11:52:10Z</time>
      </trkpt>
      <trkpt lat="59.9530153" lon="17.6824452">
        <ele>35.7061</ele>
        <time>2014-06-24T11:52:11Z</time>
      </trkpt>
      <trkpt lat="59.9530336" lon="17.6824111">
        <ele>35.7061</ele>
        <time>2014-06-24T11:52:12Z</time>
      </trkpt>
      <trkpt lat="59.9530542" lon="17.6823764">
        <ele>35.7061</ele>
        <time>2014-06-24T11:52:13Z</time>
      </trkpt>
      <trkpt lat="59.9530749" lon="17.6823432">
        <ele>35.7061</ele>
        <time>2014-06-24T11:52:14Z</time>
      </trkpt>
      <trkpt lat="59.9530941" lon="17.6823122">
        <ele>35.7061</ele>
        <time>2014-06-24T11:52:15Z</time>
      </trkpt>
      <trkpt lat="59.9531123" lon="17.6822839">
        <ele>35.7061</ele>
        <time>2014-06-24T11:52:16Z</time>
      </trkpt>
      <trkpt lat="59.9531339" lon="17.6822551">
        <ele>35.7061</ele>
        <time>2014-06-24T11:52:17Z</time>
      </trkpt>
      <trkpt lat="59.9531519" lon="17.6822249">
        <ele>35.7061</ele>
        <time>2014-06-24T11:52:18Z</time>
      </trkpt>
      <trkpt lat="59.9531688" lon="17.6821909">
        <ele>35.7061</ele>
        <time>2014-06-24T11:52:19Z</time>
      </trkpt>
      <trkpt lat="59.9531837" lon="17.6821604">
        <ele>35.7061</ele>
        <time>2014-06-24T11:52:20Z</time>
      </trkpt>
      <trkpt lat="59.953198" lon="17.6821349">
        <ele>35.7061</ele>
        <time>2014-06-24T11:52:21Z</time>
      </trkpt>
      <trkpt lat="59.9532149" lon="17.6821078">
        <ele>35.7061</ele>
        <time>2014-06-24T11:52:22Z</time>
      </trkpt>
      <trkpt lat="59.9532339" lon="17.6820822">
        <ele>35.7061</ele>
        <time>2014-06-24T11:52:23Z</time>
      </trkpt>
      <trkpt lat="59.9532536" lon="17.6820551">
        <ele>35.2255</ele>
        <time>2014-06-24T11:52:24Z</time>
      </trkpt>
      <trkpt lat="59.9532738" lon="17.6820301">
        <ele>35.2255</ele>
        <time>2014-06-24T11:52:25Z</time>
      </trkpt>
      <trkpt lat="59.953295" lon="17.6820071">
        <ele>34.7449</ele>
        <time>2014-06-24T11:52:26Z</time>
      </trkpt>
      <trkpt lat="59.9533151" lon="17.6819873">
        <ele>34.7449</ele>
        <time>2014-06-24T11:52:27Z</time>
      </trkpt>
      <trkpt lat="59.9533371" lon="17.6819646">
        <ele>34.7449</ele>
        <time>2014-06-24T11:52:28Z</time>
      </trkpt>
      <trkpt lat="59.9533591" lon="17.6819423">
        <ele>34.2642</ele>
        <time>2014-06-24T11:52:29Z</time>
      </trkpt>
      <trkpt lat="59.9533806" lon="17.6819178">
        <ele>33.7834</ele>
        <time>2014-06-24T11:52:30Z</time>
      </trkpt>
      <trkpt lat="59.953404" lon="17.6818946">
        <ele>33.7834</ele>
        <time>2014-06-24T11:52:31Z</time>
      </trkpt>
      <trkpt lat="59.9534263" lon="17.6818723">
        <ele>33.3029</ele>
        <time>2014-06-24T11:52:32Z</time>
      </trkpt>
      <trkpt lat="59.9534503" lon="17.6818517">
        <ele>33.3029</ele>
        <time>2014-06-24T11:52:33Z</time>
      </trkpt>
      <trkpt lat="59.9534754" lon="17.6818332">
        <ele>33.3029</ele>
        <time>2014-06-24T11:52:34Z</time>
      </trkpt>
      <trkpt lat="59.953499" lon="17.6818153">
        <ele>32.8223</ele>
        <time>2014-06-24T11:52:35Z</time>
      </trkpt>
      <trkpt lat="59.9535228" lon="17.6817947">
        <ele>32.8223</ele>
        <time>2014-06-24T11:52:36Z</time>
      </trkpt>
      <trkpt lat="59.9535459" lon="17.6817745">
        <ele>32.8223</ele>
        <time>2014-06-24T11:52:37Z</time>
      </trkpt>
      <trkpt lat="59.9535682" lon="17.6817552">
        <ele>32.8223</ele>
        <time>2014-06-24T11:52:38Z</time>
      </trkpt>
      <trkpt lat="59.9535899" lon="17.68174">
        <ele>32.8223</ele>
        <time>2014-06-24T11:52:39Z</time>
      </trkpt>
      <trkpt lat="59.9536135" lon="17.681723">
        <ele>32.8223</ele>
        <time>2014-06-24T11:52:40Z</time>
      </trkpt>
      <trkpt lat="59.9536347" lon="17.681706">
        <ele>32.8223</ele>
        <time>2014-06-24T11:52:41Z</time>
      </trkpt>
      <trkpt lat="59.9536556" lon="17.68169">
        <ele>32.8223</ele>
        <time>2014-06-24T11:52:42Z</time>
      </trkpt>
      <trkpt lat="59.9536784" lon="17.6816708">
        <ele>32.8223</ele>
        <time>2014-06-24T11:52:43Z</time>
      </trkpt>
      <trkpt lat="59.9536997" lon="17.6816491">
        <ele>33.3029</ele>
        <time>2014-06-24T11:52:44Z</time>
      </trkpt>
      <trkpt lat="59.9537219" lon="17.6816281">
        <ele>33.3029</ele>
        <time>2014-06-24T11:52:45Z</time>
      </trkpt>
      <trkpt lat="59.9537469" lon="17.6816117">
        <ele>33.3029</ele>
        <time>2014-06-24T11:52:46Z</time>
      </trkpt>
      <trkpt lat="59.9537709" lon="17.6815968">
        <ele>33.7834</ele>
        <time>2014-06-24T11:52:47Z</time>
      </trkpt>
      <trkpt lat="59.9537942" lon="17.6815739">
        <ele>33.7834</ele>
        <time>2014-06-24T11:52:48Z</time>
      </trkpt>
      <trkpt lat="59.9538193" lon="17.6815463">
        <ele>33.7834</ele>
        <time>2014-06-24T11:52:49Z</time>
      </trkpt>
      <trkpt lat="59.9538416" lon="17.6815238">
        <ele>33.7834</ele>
        <time>2014-06-24T11:52:50Z</time>
      </trkpt>
      <trkpt lat="59.9538653" lon="17.6815009">
        <ele>34.2642</ele>
        <time>2014-06-24T11:52:51Z</time>
      </trkpt>
      <trkpt lat="59.9538888" lon="17.6814781">
        <ele>33.7834</ele>
        <time>2014-06-24T11:52:52Z</time>
      </trkpt>
      <trkpt lat="59.95391" lon="17.6814575">
        <ele>33.7834</ele>
        <time>2014-06-24T11:52:53Z</time>
      </trkpt>
      <trkpt lat="59.9539305" lon="17.6814381">
        <ele>33.7834</ele>
        <time>2014-06-24T11:52:54Z</time>
      </trkpt>
      <trkpt lat="59.9539525" lon="17.6814216">
        <ele>33.7834</ele>
        <time>2014-06-24T11:52:55Z</time>
      </trkpt>
      <trkpt lat="59.9539763" lon="17.6814036">
        <ele>33.7834</ele>
        <time>2014-06-24T11:52:56Z</time>
      </trkpt>
      <trkpt lat="59.9540001" lon="17.6813858">
        <ele>33.7834</ele>
        <time>2014-06-24T11:52:57Z</time>
      </trkpt>
      <trkpt lat="59.9540234" lon="17.6813662">
        <ele>33.7834</ele>
        <time>2014-06-24T11:52:58Z</time>
      </trkpt>
      <trkpt lat="59.954047" lon="17.6813435">
        <ele>33.7834</ele>
        <time>2014-06-24T11:52:59Z</time>
      </trkpt>
      <trkpt lat="59.9540711" lon="17.6813196">
        <ele>33.7834</ele>
        <time>2014-06-24T11:53:00Z</time>
      </trkpt>
      <trkpt lat="59.9540944" lon="17.6813033">
        <ele>33.7834</ele>
        <time>2014-06-24T11:53:01Z</time>
      </trkpt>
      <trkpt lat="59.9541198" lon="17.6812865">
        <ele>33.7834</ele>
        <time>2014-06-24T11:53:02Z</time>
      </trkpt>
      <trkpt lat="59.9541426" lon="17.681266">
        <ele>33.3029</ele>
        <time>2014-06-24T11:53:03Z</time>
      </trkpt>
      <trkpt lat="59.9541678" lon="17.681241">
        <ele>33.3029</ele>
        <time>2014-06-24T11:53:04Z</time>
      </trkpt>
      <trkpt lat="59.9541957" lon="17.6812166">
        <ele>33.3029</ele>
        <time>2014-06-24T11:53:05Z</time>
      </trkpt>
      <trkpt lat="59.9542197" lon="17.6811952">
        <ele>33.3029</ele>
        <time>2014-06-24T11:53:06Z</time>
      </trkpt>
      <trkpt lat="59.9542454" lon="17.681173">
        <ele>33.3029</ele>
        <time>2014-06-24T11:53:07Z</time>
      </trkpt>
      <trkpt lat="59.9542719" lon="17.6811532">
        <ele>33.3029</ele>
        <time>2014-06-24T11:53:08Z</time>
      </trkpt>
      <trkpt lat="59.9542969" lon="17.6811352">
        <ele>33.3029</ele>
        <time>2014-06-24T11:53:09Z</time>
      </trkpt>
      <trkpt lat="59.9543233" lon="17.6811207">
        <ele>33.3029</ele>
        <time>2014-06-24T11:53:10Z</time>
      </trkpt>
      <trkpt lat="59.9543492" lon="17.6811091">
        <ele>33.3029</ele>
        <time>2014-06-24T11:53:11Z</time>
      </trkpt>
      <trkpt lat="59.9543726" lon="17.6811025">
        <ele>33.3029</ele>
        <time>2014-06-24T11:53:12Z</time>
      </trkpt>
      <trkpt lat="59.9543967" lon="17.6811086">
        <ele>33.7834</ele>
        <time>2014-06-24T11:53:13Z</time>
      </trkpt>
      <trkpt lat="59.9544207" lon="17.681129">
        <ele>33.3029</ele>
        <time>2014-06-24T11:53:14Z</time>
      </trkpt>
      <trkpt lat="59.9544407" lon="17.6811606">
        <ele>33.3029</ele>
        <time>2014-06-24T11:53:15Z</time>
      </trkpt>
      <trkpt lat="59.9544584" lon="17.6812019">
        <ele>33.7834</ele>
        <time>2014-06-24T11:53:16Z</time>
      </trkpt>
      <trkpt lat="59.954471" lon="17.6812455">
        <ele>33.7834</ele>
        <time>2014-06-24T11:53:17Z</time>
      </trkpt>
      <trkpt lat="59.9544823" lon="17.6812844">
        <ele>33.7834</ele>
        <time>2014-06-24T11:53:18Z</time>
      </trkpt>
      <trkpt lat="59.9544969" lon="17.6813226">
        <ele>33.7834</ele>
        <time>2014-06-24T11:53:19Z</time>
      </trkpt>
      <trkpt lat="59.9545144" lon="17.6813621">
        <ele>33.7834</ele>
        <time>2014-06-24T11:53:20Z</time>
      </trkpt>
      <trkpt lat="59.9545316" lon="17.681402">
        <ele>33.7834</ele>
        <time>2014-06-24T11:53:21Z</time>
      </trkpt>
      <trkpt lat="59.9545467" lon="17.6814411">
        <ele>33.7834</ele>
        <time>2014-06-24T11:53:22Z</time>
      </trkpt>
      <trkpt lat="59.9545605" lon="17.6814807">
        <ele>33.7834</ele>
        <time>2014-06-24T11:53:23Z</time>
      </trkpt>
      <trkpt lat="59.9545736" lon="17.6815238">
        <ele>33.7834</ele>
        <time>2014-06-24T11:53:24Z</time>
      </trkpt>
      <trkpt lat="59.9545911" lon="17.6815631">
        <ele>33.7834</ele>
        <time>2014-06-24T11:53:25Z</time>
      </trkpt>
      <trkpt lat="59.954616" lon="17.6816005">
        <ele>33.3029</ele>
        <time>2014-06-24T11:53:26Z</time>
      </trkpt>
      <trkpt lat="59.9546336" lon="17.6816485">
        <ele>33.7834</ele>
        <time>2014-06-24T11:53:27Z</time>
      </trkpt>
      <trkpt lat="59.9546491" lon="17.6816946">
        <ele>33.3029</ele>
        <time>2014-06-24T11:53:28Z</time>
      </trkpt>
      <trkpt lat="59.9546704" lon="17.6817371">
        <ele>33.3029</ele>
        <time>2014-06-24T11:53:29Z</time>
      </trkpt>
      <trkpt lat="59.954687" lon="17.6817796">
        <ele>33.3029</ele>
        <time>2014-06-24T11:53:30Z</time>
      </trkpt>
      <trkpt lat="59.9547023" lon="17.6818213">
        <ele>33.3029</ele>
        <time>2014-06-24T11:53:31Z</time>
      </trkpt>
      <trkpt lat="59.9547196" lon="17.6818617">
        <ele>33.3029</ele>
        <time>2014-06-24T11:53:32Z</time>
      </trkpt>
      <trkpt lat="59.9547391" lon="17.6818965">
        <ele>32.8223</ele>
        <time>2014-06-24T11:53:33Z</time>
      </trkpt>
      <trkpt lat="59.9547604" lon="17.6819195">
        <ele>32.8223</ele>
        <time>2014-06-24T11:53:34Z</time>
      </trkpt>
      <trkpt lat="59.9547826" lon="17.6819427">
        <ele>32.8223</ele>
        <time>2014-06-24T11:53:35Z</time>
      </trkpt>
      <trkpt lat="59.9548041" lon="17.681964">
        <ele>32.8223</ele>
        <time>2014-06-24T11:53:36Z</time>
      </trkpt>
      <trkpt lat="59.9548266" lon="17.6819867">
        <ele>32.8223</ele>
        <time>2014-06-24T11:53:37Z</time>
      </trkpt>
      <trkpt lat="59.9548456" lon="17.682021">
        <ele>32.8223</ele>
        <time>2014-06-24T11:53:38Z</time>
      </trkpt>
      <trkpt lat="59.9548605" lon="17.6820561">
        <ele>33.3029</ele>
        <time>2014-06-24T11:53:39Z</time>
      </trkpt>
      <trkpt lat="59.9548743" lon="17.6820943">
        <ele>33.3029</ele>
        <time>2014-06-24T11:53:40Z</time>
      </trkpt>
      <trkpt lat="59.9548909" lon="17.682134">
        <ele>33.3029</ele>
        <time>2014-06-24T11:53:41Z</time>
      </trkpt>
      <trkpt lat="59.9549085" lon="17.6821729">
        <ele>33.7834</ele>
        <time>2014-06-24T11:53:42Z</time>
      </trkpt>
      <trkpt lat="59.9549227" lon="17.6822199">
        <ele>33.7834</ele>
        <time>2014-06-24T11:53:43Z</time>
      </trkpt>
      <trkpt lat="59.9549372" lon="17.6822777">
        <ele>33.7834</ele>
        <time>2014-06-24T11:53:44Z</time>
      </trkpt>
      <trkpt lat="59.9549523" lon="17.6823313">
        <ele>33.3029</ele>
        <time>2014-06-24T11:53:45Z</time>
      </trkpt>
      <trkpt lat="59.9549672" lon="17.682381">
        <ele>33.7834</ele>
        <time>2014-06-24T11:53:46Z</time>
      </trkpt>
      <trkpt lat="59.9549801" lon="17.682428">
        <ele>33.7834</ele>
        <time>2014-06-24T11:53:47Z</time>
      </trkpt>
      <trkpt lat="59.9549921" lon="17.6824741">
        <ele>33.7834</ele>
        <time>2014-06-24T11:53:48Z</time>
      </trkpt>
      <trkpt lat="59.9550038" lon="17.6825198">
        <ele>33.7834</ele>
        <time>2014-06-24T11:53:49Z</time>
      </trkpt>
      <trkpt lat="59.9550144" lon="17.6825597">
        <ele>33.7834</ele>
        <time>2014-06-24T11:53:50Z</time>
      </trkpt>
      <trkpt lat="59.9550253" lon="17.6826014">
        <ele>33.7834</ele>
        <time>2014-06-24T11:53:51Z</time>
      </trkpt>
      <trkpt lat="59.9550366" lon="17.6826399">
        <ele>33.3029</ele>
        <time>2014-06-24T11:53:52Z</time>
      </trkpt>
      <trkpt lat="59.9550464" lon="17.6826814">
        <ele>32.8223</ele>
        <time>2014-06-24T11:53:53Z</time>
      </trkpt>
      <trkpt lat="59.9550548" lon="17.6827311">
        <ele>32.8223</ele>
        <time>2014-06-24T11:53:54Z</time>
      </trkpt>
      <trkpt lat="59.9550646" lon="17.6827769">
        <ele>32.8223</ele>
        <time>2014-06-24T11:53:55Z</time>
      </trkpt>
      <trkpt lat="59.9550781" lon="17.6828224">
        <ele>32.3416</ele>
        <time>2014-06-24T11:53:56Z</time>
      </trkpt>
      <trkpt lat="59.95509" lon="17.6828721">
        <ele>31.8607</ele>
        <time>2014-06-24T11:53:57Z</time>
      </trkpt>
      <trkpt lat="59.9550958" lon="17.6829197">
        <ele>31.8607</ele>
        <time>2014-06-24T11:53:58Z</time>
      </trkpt>
      <trkpt lat="59.9551038" lon="17.6829647">
        <ele>31.8607</ele>
        <time>2014-06-24T11:53:59Z</time>
      </trkpt>
      <trkpt lat="59.9551126" lon="17.6830104">
        <ele>31.3801</ele>
        <time>2014-06-24T11:54:00Z</time>
      </trkpt>
      <trkpt lat="59.95512" lon="17.6830549">
        <ele>31.3801</ele>
        <time>2014-06-24T11:54:01Z</time>
      </trkpt>
      <trkpt lat="59.9551264" lon="17.6831005">
        <ele>30.8995</ele>
        <time>2014-06-24T11:54:02Z</time>
      </trkpt>
      <trkpt lat="59.9551367" lon="17.6831485">
        <ele>30.4188</ele>
        <time>2014-06-24T11:54:03Z</time>
      </trkpt>
      <trkpt lat="59.9551439" lon="17.6831918">
        <ele>29.9381</ele>
        <time>2014-06-24T11:54:04Z</time>
      </trkpt>
      <trkpt lat="59.9551532" lon="17.6832362">
        <ele>29.9381</ele>
        <time>2014-06-24T11:54:05Z</time>
      </trkpt>
      <trkpt lat="59.9551628" lon="17.6832852">
        <ele>29.9381</ele>
        <time>2014-06-24T11:54:06Z</time>
      </trkpt>
      <trkpt lat="59.9551716" lon="17.6833339">
        <ele>29.4575</ele>
        <time>2014-06-24T11:54:07Z</time>
      </trkpt>
      <trkpt lat="59.9551851" lon="17.6833828">
        <ele>28.9769</ele>
        <time>2014-06-24T11:54:08Z</time>
      </trkpt>
      <trkpt lat="59.9551971" lon="17.6834279">
        <ele>28.9769</ele>
        <time>2014-06-24T11:54:09Z</time>
      </trkpt>
      <trkpt lat="59.9552087" lon="17.6834733">
        <ele>28.9769</ele>
        <time>2014-06-24T11:54:10Z</time>
      </trkpt>
      <trkpt lat="59.9552282" lon="17.6835178">
        <ele>28.9769</ele>
        <time>2014-06-24T11:54:11Z</time>
      </trkpt>
      <trkpt lat="59.9552476" lon="17.683565">
        <ele>28.9769</ele>
        <time>2014-06-24T11:54:12Z</time>
      </trkpt>
      <trkpt lat="59.9552629" lon="17.683611">
        <ele>28.4962</ele>
        <time>2014-06-24T11:54:13Z</time>
      </trkpt>
      <trkpt lat="59.955279" lon="17.6836553">
        <ele>28.4962</ele>
        <time>2014-06-24T11:54:14Z</time>
      </trkpt>
      <trkpt lat="59.955291" lon="17.6837043">
        <ele>28.9769</ele>
        <time>2014-06-24T11:54:15Z</time>
      </trkpt>
      <trkpt lat="59.9553039" lon="17.6837512">
        <ele>28.9769</ele>
        <time>2014-06-24T11:54:16Z</time>
      </trkpt>
      <trkpt lat="59.9553175" lon="17.6837963">
        <ele>28.9769</ele>
        <time>2014-06-24T11:54:17Z</time>
      </trkpt>
      <trkpt lat="59.955324" lon="17.6838442">
        <ele>29.4575</ele>
        <time>2014-06-24T11:54:18Z</time>
      </trkpt>
      <trkpt lat="59.9553296" lon="17.6838911">
        <ele>29.9381</ele>
        <time>2014-06-24T11:54:19Z</time>
      </trkpt>
      <trkpt lat="59.9553382" lon="17.6839415">
        <ele>29.9381</ele>
        <time>2014-06-24T11:54:20Z</time>
      </trkpt>
      <trkpt lat="59.955352" lon="17.6839929">
        <ele>29.9381</ele>
        <time>2014-06-24T11:54:21Z</time>
      </trkpt>
      <trkpt lat="59.955364" lon="17.6840402">
        <ele>29.9381</ele>
        <time>2014-06-24T11:54:22Z</time>
      </trkpt>
      <trkpt lat="59.9553742" lon="17.6840855">
        <ele>29.9381</ele>
        <time>2014-06-24T11:54:23Z</time>
      </trkpt>
      <trkpt lat="59.9553868" lon="17.6841302">
        <ele>29.4575</ele>
        <time>2014-06-24T11:54:24Z</time>
      </trkpt>
      <trkpt lat="59.9553987" lon="17.6841816">
        <ele>29.9381</ele>
        <time>2014-06-24T11:54:25Z</time>
      </trkpt>
      <trkpt lat="59.9554141" lon="17.6842324">
        <ele>29.9381</ele>
        <time>2014-06-24T11:54:26Z</time>
      </trkpt>
      <trkpt lat="59.9554283" lon="17.6842803">
        <ele>30.4188</ele>
        <time>2014-06-24T11:54:27Z</time>
      </trkpt>
      <trkpt lat="59.9554329" lon="17.6843308">
        <ele>30.4188</ele>
        <time>2014-06-24T11:54:28Z</time>
      </trkpt>
      <trkpt lat="59.95544" lon="17.6843779">
        <ele>30.8995</ele>
        <time>2014-06-24T11:54:29Z</time>
      </trkpt>
      <trkpt lat="59.955449" lon="17.6844256">
        <ele>31.3801</ele>
        <time>2014-06-24T11:54:30Z</time>
      </trkpt>
      <trkpt lat="59.9554592" lon="17.6844752">
        <ele>31.3801</ele>
        <time>2014-06-24T11:54:31Z</time>
      </trkpt>
      <trkpt lat="59.9554701" lon="17.6845227">
        <ele>31.3801</ele>
        <time>2014-06-24T11:54:32Z</time>
      </trkpt>
      <trkpt lat="59.9554847" lon="17.6845717">
        <ele>31.8607</ele>
        <time>2014-06-24T11:54:33Z</time>
      </trkpt>
      <trkpt lat="59.9555024" lon="17.6846201">
        <ele>31.8607</ele>
        <time>2014-06-24T11:54:34Z</time>
      </trkpt>
      <trkpt lat="59.9555184" lon="17.684668">
        <ele>32.3416</ele>
        <time>2014-06-24T11:54:35Z</time>
      </trkpt>
      <trkpt lat="59.9555356" lon="17.6847165">
        <ele>32.8223</ele>
        <time>2014-06-24T11:54:36Z</time>
      </trkpt>
      <trkpt lat="59.9555496" lon="17.6847634">
        <ele>32.8223</ele>
        <time>2014-06-24T11:54:37Z</time>
      </trkpt>
      <trkpt lat="59.9555583" lon="17.6848142">
        <ele>32.8223</ele>
        <time>2014-06-24T11:54:38Z</time>
      </trkpt>
      <trkpt lat="59.9555659" lon="17.6848644">
        <ele>33.3029</ele>
        <time>2014-06-24T11:54:39Z</time>
      </trkpt>
      <trkpt lat="59.9555743" lon="17.684913">
        <ele>33.3029</ele>
        <time>2014-06-24T11:54:40Z</time>
      </trkpt>
      <trkpt lat="59.9555866" lon="17.6849616">
        <ele>33.3029</ele>
        <time>2014-06-24T11:54:41Z</time>
      </trkpt>
      <trkpt lat="59.9556018" lon="17.6850087">
        <ele>33.3029</ele>
        <time>2014-06-24T11:54:42Z</time>
      </trkpt>
      <trkpt lat="59.9556142" lon="17.685058">
        <ele>33.7834</ele>
        <time>2014-06-24T11:54:43Z</time>
      </trkpt>
      <trkpt lat="59.955626" lon="17.6851076">
        <ele>33.7834</ele>
        <time>2014-06-24T11:54:44Z</time>
      </trkpt>
      <trkpt lat="59.9556332" lon="17.6851581">
        <ele>33.7834</ele>
        <time>2014-06-24T11:54:45Z</time>
      </trkpt>
      <trkpt lat="59.955636" lon="17.6852104">
        <ele>33.7834</ele>
        <time>2014-06-24T11:54:46Z</time>
      </trkpt>
      <trkpt lat="59.9556376" lon="17.6852679">
        <ele>33.7834</ele>
        <time>2014-06-24T11:54:47Z</time>
      </trkpt>
      <trkpt lat="59.9556418" lon="17.6853277">
        <ele>34.2642</ele>
        <time>2014-06-24T11:54:48Z</time>
      </trkpt>
      <trkpt lat="59.9556489" lon="17.6853816">
        <ele>34.7449</ele>
        <time>2014-06-24T11:54:49Z</time>
      </trkpt>
      <trkpt lat="59.9556547" lon="17.6854347">
        <ele>34.2642</ele>
        <time>2014-06-24T11:54:50Z</time>
      </trkpt>
      <trkpt lat="59.9556614" lon="17.6854875">
        <ele>34.2642</ele>
        <time>2014-06-24T11:54:51Z</time>
      </trkpt>
      <trkpt lat="59.955667" lon="17.6855427">
        <ele>34.2642</ele>
        <time>2014-06-24T11:54:52Z</time>
      </trkpt>
      <trkpt lat="59.9556744" lon="17.6855993">
        <ele>34.7449</ele>
        <time>2014-06-24T11:54:53Z</time>
      </trkpt>
      <trkpt lat="59.955681" lon="17.6856518">
        <ele>34.7449</ele>
        <time>2014-06-24T11:54:54Z</time>
      </trkpt>
      <trkpt lat="59.9556868" lon="17.6857033">
        <ele>35.2255</ele>
        <time>2014-06-24T11:54:55Z</time>
      </trkpt>
      <trkpt lat="59.955693" lon="17.6857532">
        <ele>35.7061</ele>
        <time>2014-06-24T11:54:56Z</time>
      </trkpt>
      <trkpt lat="59.9556997" lon="17.6858045">
        <ele>35.7061</ele>
        <time>2014-06-24T11:54:57Z</time>
      </trkpt>
      <trkpt lat="59.9557064" lon="17.6858553">
        <ele>35.7061</ele>
        <time>2014-06-24T11:54:58Z</time>
      </trkpt>
      <trkpt lat="59.9557141" lon="17.6859024">
        <ele>36.1868</ele>
        <time>2014-06-24T11:54:59Z</time>
      </trkpt>
      <trkpt lat="59.9557194" lon="17.6859537">
        <ele>36.6675</ele>
        <time>2014-06-24T11:55:00Z</time>
      </trkpt>
      <trkpt lat="59.955727" lon="17.686005">
        <ele>36.6675</ele>
        <time>2014-06-24T11:55:01Z</time>
      </trkpt>
      <trkpt lat="59.9557344" lon="17.6860572">
        <ele>37.1481</ele>
        <time>2014-06-24T11:55:02Z</time>
      </trkpt>
      <trkpt lat="59.9557432" lon="17.6861104">
        <ele>37.1481</ele>
        <time>2014-06-24T11:55:03Z</time>
      </trkpt>
      <trkpt lat="59.9557504" lon="17.6861612">
        <ele>37.1481</ele>
        <time>2014-06-24T11:55:04Z</time>
      </trkpt>
      <trkpt lat="59.9557576" lon="17.6862153">
        <ele>37.1481</ele>
        <time>2014-06-24T11:55:05Z</time>
      </trkpt>
      <trkpt lat="59.9557646" lon="17.6862677">
        <ele>36.6675</ele>
        <time>2014-06-24T11:55:06Z</time>
      </trkpt>
      <trkpt lat="59.9557703" lon="17.6863187">
        <ele>36.6675</ele>
        <time>2014-06-24T11:55:07Z</time>
      </trkpt>
      <trkpt lat="59.9557765" lon="17.6863702">
        <ele>36.6675</ele>
        <time>2014-06-24T11:55:08Z</time>
      </trkpt>
      <trkpt lat="59.9557848" lon="17.6864178">
        <ele>36.6675</ele>
        <time>2014-06-24T11:55:09Z</time>
      </trkpt>
      <trkpt lat="59.9557924" lon="17.6864686">
        <ele>37.1481</ele>
        <time>2014-06-24T11:55:10Z</time>
      </trkpt>
      <trkpt lat="59.9557981" lon="17.6865198">
        <ele>37.1481</ele>
        <time>2014-06-24T11:55:11Z</time>
      </trkpt>
      <trkpt lat="59.9558007" lon="17.6865682">
        <ele>36.6675</ele>
        <time>2014-06-24T11:55:12Z</time>
      </trkpt>
      <trkpt lat="59.9558034" lon="17.6866209">
        <ele>37.1481</ele>
        <time>2014-06-24T11:55:13Z</time>
      </trkpt>
      <trkpt lat="59.9557981" lon="17.6866718">
        <ele>36.6675</ele>
        <time>2014-06-24T11:55:14Z</time>
      </trkpt>
      <trkpt lat="59.9557897" lon="17.686717">
        <ele>36.6675</ele>
        <time>2014-06-24T11:55:15Z</time>
      </trkpt>
      <trkpt lat="59.955766" lon="17.6867585">
        <ele>35.7061</ele>
        <time>2014-06-24T11:55:16Z</time>
      </trkpt>
      <trkpt lat="59.9557435" lon="17.6867953">
        <ele>34.7449</ele>
        <time>2014-06-24T11:55:17Z</time>
      </trkpt>
      <trkpt lat="59.9557178" lon="17.6868289">
        <ele>34.2642</ele>
        <time>2014-06-24T11:55:18Z</time>
      </trkpt>
      <trkpt lat="59.9556936" lon="17.6868581">
        <ele>33.7834</ele>
        <time>2014-06-24T11:55:19Z</time>
      </trkpt>
      <trkpt lat="59.9556697" lon="17.6868873">
        <ele>33.7834</ele>
        <time>2014-06-24T11:55:20Z</time>
      </trkpt>
      <trkpt lat="59.9556454" lon="17.6869197">
        <ele>33.3029</ele>
        <time>2014-06-24T11:55:21Z</time>
      </trkpt>
      <trkpt lat="59.9556235" lon="17.6869504">
        <ele>33.3029</ele>
        <time>2014-06-24T11:55:22Z</time>
      </trkpt>
      <trkpt lat="59.9556105" lon="17.6869646">
        <ele>33.7834</ele>
        <time>2014-06-24T11:55:23Z</time>
      </trkpt>
      <trkpt lat="59.9555985" lon="17.6869732">
        <ele>33.7834</ele>
        <time>2014-06-24T11:55:24Z</time>
      </trkpt>
      <trkpt lat="59.9555807" lon="17.6869966">
        <ele>34.2642</ele>
        <time>2014-06-24T11:55:25Z</time>
      </trkpt>
      <trkpt lat="59.9555572" lon="17.6870264">
        <ele>34.2642</ele>
        <time>2014-06-24T11:55:26Z</time>
      </trkpt>
      <trkpt lat="59.9555328" lon="17.6870577">
        <ele>33.7834</ele>
        <time>2014-06-24T11:55:27Z</time>
      </trkpt>
      <trkpt lat="59.9555089" lon="17.6870906">
        <ele>33.7834</ele>
        <time>2014-06-24T11:55:28Z</time>
      </trkpt>
      <trkpt lat="59.955484" lon="17.6871242">
        <ele>33.7834</ele>
        <time>2014-06-24T11:55:29Z</time>
      </trkpt>
      <trkpt lat="59.9554629" lon="17.6871558">
        <ele>33.3029</ele>
        <time>2014-06-24T11:55:30Z</time>
      </trkpt>
      <trkpt lat="59.9554417" lon="17.6871931">
        <ele>33.7834</ele>
        <time>2014-06-24T11:55:31Z</time>
      </trkpt>
      <trkpt lat="59.9554203" lon="17.6872354">
        <ele>34.2642</ele>
        <time>2014-06-24T11:55:32Z</time>
      </trkpt>
      <trkpt lat="59.9553973" lon="17.6872729">
        <ele>34.2642</ele>
        <time>2014-06-24T11:55:33Z</time>
      </trkpt>
      <trkpt lat="59.9553734" lon="17.6873047">
        <ele>34.2642</ele>
        <time>2014-06-24T11:55:34Z</time>
      </trkpt>
      <trkpt lat="59.9553504" lon="17.6873371">
        <ele>34.7449</ele>
        <time>2014-06-24T11:55:35Z</time>
      </trkpt>
      <trkpt lat="59.9553293" lon="17.6873653">
        <ele>34.7449</ele>
        <time>2014-06-24T11:55:36Z</time>
      </trkpt>
      <trkpt lat="59.95531" lon="17.6873948">
        <ele>35.2255</ele>
        <time>2014-06-24T11:55:37Z</time>
      </trkpt>
      <trkpt lat="59.9552888" lon="17.6874295">
        <ele>35.7061</ele>
        <time>2014-06-24T11:55:38Z</time>
      </trkpt>
      <trkpt lat="59.9552642" lon="17.6874632">
        <ele>35.7061</ele>
        <time>2014-06-24T11:55:39Z</time>
      </trkpt>
      <trkpt lat="59.9552396" lon="17.6874979">
        <ele>36.1868</ele>
        <time>2014-06-24T11:55:40Z</time>
      </trkpt>
      <trkpt lat="59.9552143" lon="17.6875336">
        <ele>36.1868</ele>
        <time>2014-06-24T11:55:41Z</time>
      </trkpt>
      <trkpt lat="59.9551906" lon="17.6875646">
        <ele>36.1868</ele>
        <time>2014-06-24T11:55:42Z</time>
      </trkpt>
      <trkpt lat="59.9551682" lon="17.6875942">
        <ele>35.7061</ele>
        <time>2014-06-24T11:55:43Z</time>
      </trkpt>
      <trkpt lat="59.9551491" lon="17.6876278">
        <ele>35.7061</ele>
        <time>2014-06-24T11:55:44Z</time>
      </trkpt>
      <trkpt lat="59.9551295" lon="17.6876631">
        <ele>36.1868</ele>
        <time>2014-06-24T11:55:45Z</time>
      </trkpt>
      <trkpt lat="59.9551101" lon="17.6877036">
        <ele>36.6675</ele>
        <time>2014-06-24T11:55:46Z</time>
      </trkpt>
      <trkpt lat="59.9550894" lon="17.6877403">
        <ele>37.1481</ele>
        <time>2014-06-24T11:55:47Z</time>
      </trkpt>
      <trkpt lat="59.9550667" lon="17.6877745">
        <ele>37.6287</ele>
        <time>2014-06-24T11:55:48Z</time>
      </trkpt>
      <trkpt lat="59.9550413" lon="17.6878139">
        <ele>37.6287</ele>
        <time>2014-06-24T11:55:49Z</time>
      </trkpt>
      <trkpt lat="59.9550155" lon="17.6878525">
        <ele>37.6287</ele>
        <time>2014-06-24T11:55:50Z</time>
      </trkpt>
      <trkpt lat="59.9549898" lon="17.6878872">
        <ele>38.1094</ele>
        <time>2014-06-24T11:55:51Z</time>
      </trkpt>
      <trkpt lat="59.9549609" lon="17.6879216">
        <ele>38.1094</ele>
        <time>2014-06-24T11:55:52Z</time>
      </trkpt>
      <trkpt lat="59.9549346" lon="17.6879542">
        <ele>38.5901</ele>
        <time>2014-06-24T11:55:53Z</time>
      </trkpt>
      <trkpt lat="59.9549132" lon="17.6879825">
        <ele>39.0707</ele>
        <time>2014-06-24T11:55:54Z</time>
      </trkpt>
      <trkpt lat="59.9548925" lon="17.6880154">
        <ele>38.5901</ele>
        <time>2014-06-24T11:55:55Z</time>
      </trkpt>
      <trkpt lat="59.9548714" lon="17.6880492">
        <ele>38.5901</ele>
        <time>2014-06-24T11:55:56Z</time>
      </trkpt>
      <trkpt lat="59.9548525" lon="17.6880853">
        <ele>38.5901</ele>
        <time>2014-06-24T11:55:57Z</time>
      </trkpt>
      <trkpt lat="59.9548296" lon="17.6881236">
        <ele>38.5901</ele>
        <time>2014-06-24T11:55:58Z</time>
      </trkpt>
      <trkpt lat="59.9548051" lon="17.6881542">
        <ele>38.1094</ele>
        <time>2014-06-24T11:55:59Z</time>
      </trkpt>
      <trkpt lat="59.9547827" lon="17.6881732">
        <ele>37.1481</ele>
        <time>2014-06-24T11:56:00Z</time>
      </trkpt>
      <trkpt lat="59.9547627" lon="17.6881899">
        <ele>36.6675</ele>
        <time>2014-06-24T11:56:01Z</time>
      </trkpt>
      <trkpt lat="59.9547476" lon="17.6882123">
        <ele>35.7061</ele>
        <time>2014-06-24T11:56:02Z</time>
      </trkpt>
      <trkpt lat="59.9547316" lon="17.6882327">
        <ele>35.2255</ele>
        <time>2014-06-24T11:56:03Z</time>
      </trkpt>
      <trkpt lat="59.9547119" lon="17.6882331">
        <ele>35.7061</ele>
        <time>2014-06-24T11:56:04Z</time>
      </trkpt>
      <trkpt lat="59.9546917" lon="17.6882365">
        <ele>36.1868</ele>
        <time>2014-06-24T11:56:05Z</time>
      </trkpt>
      <trkpt lat="59.9546637" lon="17.6882546">
        <ele>37.1481</ele>
        <time>2014-06-24T11:56:06Z</time>
      </trkpt>
      <trkpt lat="59.9546376" lon="17.6882816">
        <ele>38.1094</ele>
        <time>2014-06-24T11:56:07Z</time>
      </trkpt>
      <trkpt lat="59.9546117" lon="17.6883192">
        <ele>39.0707</ele>
        <time>2014-06-24T11:56:08Z</time>
      </trkpt>
      <trkpt lat="59.9545873" lon="17.6883204">
        <ele>38.1094</ele>
        <time>2014-06-24T11:56:09Z</time>
      </trkpt>
      <trkpt lat="59.9545576" lon="17.688317">
        <ele>38.5901</ele>
        <time>2014-06-24T11:56:10Z</time>
      </trkpt>
      <trkpt lat="59.9545306" lon="17.6883148">
        <ele>39.0707</ele>
        <time>2014-06-24T11:56:11Z</time>
      </trkpt>
      <trkpt lat="59.9545039" lon="17.688303">
        <ele>39.0707</ele>
        <time>2014-06-24T11:56:12Z</time>
      </trkpt>
      <trkpt lat="59.9544736" lon="17.6882967">
        <ele>39.5513</ele>
        <time>2014-06-24T11:56:13Z</time>
      </trkpt>
      <trkpt lat="59.9544425" lon="17.6882982">
        <ele>40.0321</ele>
        <time>2014-06-24T11:56:14Z</time>
      </trkpt>
      <trkpt lat="59.9544133" lon="17.6883002">
        <ele>40.0321</ele>
        <time>2014-06-24T11:56:15Z</time>
      </trkpt>
      <trkpt lat="59.9543824" lon="17.6883082">
        <ele>40.0321</ele>
        <time>2014-06-24T11:56:16Z</time>
      </trkpt>
      <trkpt lat="59.9543487" lon="17.6883112">
        <ele>40.9934</ele>
        <time>2014-06-24T11:56:17Z</time>
      </trkpt>
      <trkpt lat="59.954319" lon="17.6883074">
        <ele>41.474</ele>
        <time>2014-06-24T11:56:18Z</time>
      </trkpt>
      <trkpt lat="59.9542866" lon="17.6883037">
        <ele>42.916</ele>
        <time>2014-06-24T11:56:19Z</time>
      </trkpt>
      <trkpt lat="59.9542556" lon="17.6883011">
        <ele>43.3966</ele>
        <time>2014-06-24T11:56:20Z</time>
      </trkpt>
      <trkpt lat="59.9542223" lon="17.6883034">
        <ele>43.8773</ele>
        <time>2014-06-24T11:56:21Z</time>
      </trkpt>
      <trkpt lat="59.9541843" lon="17.6883152">
        <ele>45.3192</ele>
        <time>2014-06-24T11:56:22Z</time>
      </trkpt>
      <trkpt lat="59.9541529" lon="17.6883251">
        <ele>45.7999</ele>
        <time>2014-06-24T11:56:23Z</time>
      </trkpt>
      <trkpt lat="59.9541218" lon="17.6883262">
        <ele>45.3192</ele>
        <time>2014-06-24T11:56:24Z</time>
      </trkpt>
      <trkpt lat="59.9540917" lon="17.6883261">
        <ele>44.8386</ele>
        <time>2014-06-24T11:56:25Z</time>
      </trkpt>
      <trkpt lat="59.9540633" lon="17.6883312">
        <ele>44.358</ele>
        <time>2014-06-24T11:56:26Z</time>
      </trkpt>
      <trkpt lat="59.9540338" lon="17.6883372">
        <ele>43.3966</ele>
        <time>2014-06-24T11:56:27Z</time>
      </trkpt>
      <trkpt lat="59.9540079" lon="17.688335">
        <ele>42.916</ele>
        <time>2014-06-24T11:56:28Z</time>
      </trkpt>
      <trkpt lat="59.9539896" lon="17.6883241">
        <ele>42.4354</ele>
        <time>2014-06-24T11:56:29Z</time>
      </trkpt>
      <trkpt lat="59.9539705" lon="17.6883154">
        <ele>41.9547</ele>
        <time>2014-06-24T11:56:30Z</time>
      </trkpt>
      <trkpt lat="59.9539507" lon="17.6883082">
        <ele>41.474</ele>
        <time>2014-06-24T11:56:31Z</time>
      </trkpt>
      <trkpt lat="59.9539317" lon="17.6883027">
        <ele>40.5128</ele>
        <time>2014-06-24T11:56:32Z</time>
      </trkpt>
      <trkpt lat="59.9539119" lon="17.6882966">
        <ele>39.5513</ele>
        <time>2014-06-24T11:56:33Z</time>
      </trkpt>
      <trkpt lat="59.953887" lon="17.6883082">
        <ele>38.1094</ele>
        <time>2014-06-24T11:56:34Z</time>
      </trkpt>
      <trkpt lat="59.9538554" lon="17.6883289">
        <ele>37.6287</ele>
        <time>2014-06-24T11:56:35Z</time>
      </trkpt>
      <trkpt lat="59.9538188" lon="17.6883479">
        <ele>36.6675</ele>
        <time>2014-06-24T11:56:36Z</time>
      </trkpt>
      <trkpt lat="59.9537855" lon="17.6883552">
        <ele>35.7061</ele>
        <time>2014-06-24T11:56:37Z</time>
      </trkpt>
      <trkpt lat="59.9537546" lon="17.6883688">
        <ele>34.2642</ele>
        <time>2014-06-24T11:56:38Z</time>
      </trkpt>
      <trkpt lat="59.9537266" lon="17.6883775">
        <ele>33.7834</ele>
        <time>2014-06-24T11:56:39Z</time>
      </trkpt>
      <trkpt lat="59.9536997" lon="17.6883877">
        <ele>33.3029</ele>
        <time>2014-06-24T11:56:40Z</time>
      </trkpt>
      <trkpt lat="59.9536752" lon="17.6884048">
        <ele>32.8223</ele>
        <time>2014-06-24T11:56:41Z</time>
      </trkpt>
      <trkpt lat="59.9536549" lon="17.6884263">
        <ele>31.8607</ele>
        <time>2014-06-24T11:56:42Z</time>
      </trkpt>
      <trkpt lat="59.9536353" lon="17.6884682">
        <ele>30.8995</ele>
        <time>2014-06-24T11:56:43Z</time>
      </trkpt>
      <trkpt lat="59.95362" lon="17.6885224">
        <ele>30.4188</ele>
        <time>2014-06-24T11:56:44Z</time>
      </trkpt>
      <trkpt lat="59.9536111" lon="17.6885817">
        <ele>29.9381</ele>
        <time>2014-06-24T11:56:45Z</time>
      </trkpt>
      <trkpt lat="59.9536063" lon="17.6886432">
        <ele>28.9769</ele>
        <time>2014-06-24T11:56:46Z</time>
      </trkpt>
      <trkpt lat="59.9536014" lon="17.6887044">
        <ele>29.4575</ele>
        <time>2014-06-24T11:56:47Z</time>
      </trkpt>
      <trkpt lat="59.9536029" lon="17.6887597">
        <ele>29.9381</ele>
        <time>2014-06-24T11:56:48Z</time>
      </trkpt>
      <trkpt lat="59.9536044" lon="17.6888177">
        <ele>30.4188</ele>
        <time>2014-06-24T11:56:49Z</time>
      </trkpt>
      <trkpt lat="59.9536099" lon="17.6888753">
        <ele>30.4188</ele>
        <time>2014-06-24T11:56:50Z</time>
      </trkpt>
      <trkpt lat="59.9536117" lon="17.6889437">
        <ele>31.8607</ele>
        <time>2014-06-24T11:56:51Z</time>
      </trkpt>
      <trkpt lat="59.953609" lon="17.6890204">
        <ele>31.8607</ele>
        <time>2014-06-24T11:56:52Z</time>
      </trkpt>
      <trkpt lat="59.9536055" lon="17.6890974">
        <ele>31.8607</ele>
        <time>2014-06-24T11:56:53Z</time>
      </trkpt>
      <trkpt lat="59.9536054" lon="17.6891746">
        <ele>31.8607</ele>
        <time>2014-06-24T11:56:54Z</time>
      </trkpt>
      <trkpt lat="59.953606" lon="17.689247">
        <ele>31.3801</ele>
        <time>2014-06-24T11:56:55Z</time>
      </trkpt>
      <trkpt lat="59.953608" lon="17.6893164">
        <ele>30.8995</ele>
        <time>2014-06-24T11:56:56Z</time>
      </trkpt>
      <trkpt lat="59.9536137" lon="17.6893882">
        <ele>31.3801</ele>
        <time>2014-06-24T11:56:57Z</time>
      </trkpt>
      <trkpt lat="59.9536157" lon="17.6894544">
        <ele>30.8995</ele>
        <time>2014-06-24T11:56:58Z</time>
      </trkpt>
      <trkpt lat="59.9536153" lon="17.6895238">
        <ele>30.8995</ele>
        <time>2014-06-24T11:56:59Z</time>
      </trkpt>
      <trkpt lat="59.9536159" lon="17.6895922">
        <ele>31.3801</ele>
        <time>2014-06-24T11:57:00Z</time>
      </trkpt>
      <trkpt lat="59.9536168" lon="17.6896646">
        <ele>31.3801</ele>
        <time>2014-06-24T11:57:01Z</time>
      </trkpt>
      <trkpt lat="59.9536214" lon="17.6897326">
        <ele>31.3801</ele>
        <time>2014-06-24T11:57:02Z</time>
      </trkpt>
      <trkpt lat="59.9536267" lon="17.6898004">
        <ele>31.3801</ele>
        <time>2014-06-24T11:57:03Z</time>
      </trkpt>
      <trkpt lat="59.9536328" lon="17.6898723">
        <ele>31.3801</ele>
        <time>2014-06-24T11:57:04Z</time>
      </trkpt>
      <trkpt lat="59.9536376" lon="17.6899469">
        <ele>31.3801</ele>
        <time>2014-06-24T11:57:05Z</time>
      </trkpt>
      <trkpt lat="59.9536401" lon="17.6900219">
        <ele>31.3801</ele>
        <time>2014-06-24T11:57:06Z</time>
      </trkpt>
      <trkpt lat="59.9536411" lon="17.6900926">
        <ele>31.3801</ele>
        <time>2014-06-24T11:57:07Z</time>
      </trkpt>
      <trkpt lat="59.9536381" lon="17.6901604">
        <ele>31.3801</ele>
        <time>2014-06-24T11:57:08Z</time>
      </trkpt>
      <trkpt lat="59.953639" lon="17.6902241">
        <ele>32.3416</ele>
        <time>2014-06-24T11:57:09Z</time>
      </trkpt>
      <trkpt lat="59.9536352" lon="17.6902734">
        <ele>31.8607</ele>
        <time>2014-06-24T11:57:10Z</time>
      </trkpt>
    </trkseg>
  </trk>
</gpx>